| time (UTC) | temp C | wind direction | speed KPH | gust KPH | rain 1hr cm | rain 24hr cm | rain mn cm | humidity % | barometer mb |
| 20260510180224 | 15 | 41 | 22.5 | 30.6 | 0.00 | 0.00 | 0.00 | 59 | 1025.3 |
| 20260510180126 | 15 | 40 | 20.9 | 30.6 | 0.00 | 0.00 | 0.00 | 60 | 1025.4 |
| 20260510180041 | 15 | 24 | 22.5 | 30.6 | 0.00 | 0.00 | 0.00 | 59 | 1025.5 |
| 20260510175916 | 15 | 24 | 22.5 | 30.6 | 0.00 | 0.00 | 0.00 | 59 | 1025.5 |
| 20260510175819 | 15 | 37 | 20.9 | 29.0 | 0.00 | 0.00 | 0.00 | 59 | 1025.5 |
| 20260510175715 | 15 | 62 | 20.9 | 29.0 | 0.00 | 0.00 | 0.00 | 59 | 1025.5 |
| 20260510175635 | 15 | 11 | 19.3 | 29.0 | 0.00 | 0.00 | 0.00 | 58 | 1025.5 |
| 20260510175529 | 16 | 47 | 24.1 | 29.0 | 0.00 | 0.00 | 0.00 | 58 | 1025.6 |
| 20260510175426 | 16 | 44 | 24.1 | 29.0 | 0.00 | 0.00 | 0.00 | 59 | 1025.5 |
| 20260510175328 | 16 | 34 | 20.9 | 29.0 | 0.00 | 0.00 | 0.00 | 59 | 1025.5 |
| 20260510175224 | 16 | 42 | 20.9 | 32.2 | 0.00 | 0.00 | 0.00 | 59 | 1025.5 |
| 20260510175141 | 16 | 13 | 20.9 | 32.2 | 0.00 | 0.00 | 0.00 | 60 | 1025.4 |
| 20260510175055 | 15 | 20 | 22.5 | 32.2 | 0.00 | 0.00 | 0.00 | 60 | 1025.4 |
| 20260510174931 | 15 | 25 | 24.1 | 32.2 | 0.00 | 0.00 | 0.00 | 60 | 1025.4 |
| 20260510174832 | 15 | 25 | 24.1 | 32.2 | 0.00 | 0.00 | 0.00 | 61 | 1025.4 |
| 20260510174748 | 15 | 33 | 20.9 | 32.2 | 0.00 | 0.00 | 0.00 | 61 | 1025.5 |
| 20260510174624 | 15 | 42 | 19.3 | 32.2 | 0.00 | 0.00 | 0.00 | 62 | 1025.4 |
| 20260510174516 | 15 | 17 | 20.9 | 33.8 | 0.00 | 0.00 | 0.00 | 61 | 1025.5 |
| 20260510174418 | 15 | 42 | 20.9 | 33.8 | 0.00 | 0.00 | 0.00 | 61 | 1025.5 |
| 20260510174323 | 15 | 54 | 20.9 | 33.8 | 0.00 | 0.00 | 0.00 | 61 | 1025.5 |
| 20260510174218 | 15 | 46 | 20.9 | 33.8 | 0.00 | 0.00 | 0.00 | 61 | 1025.5 |
| 20260510174115 | 15 | 46 | 24.1 | 33.8 | 0.00 | 0.00 | 0.00 | 61 | 1025.5 |
| 20260510174035 | 15 | 49 | 24.1 | 33.8 | 0.00 | 0.00 | 0.00 | 61 | 1025.4 |
| 20260510173931 | 15 | 32 | 20.9 | 33.8 | 0.00 | 0.00 | 0.00 | 61 | 1025.4 |
| 20260510173831 | 15 | 28 | 22.5 | 33.8 | 0.00 | 0.00 | 0.00 | 60 | 1025.5 |
| 20260510173729 | 15 | 37 | 25.7 | 33.8 | 0.00 | 0.00 | 0.00 | 61 | 1025.5 |
| 20260510173628 | 15 | 46 | 24.1 | 33.8 | 0.00 | 0.00 | 0.00 | 61 | 1025.4 |
| 20260510173521 | 15 | 44 | 20.9 | 33.8 | 0.00 | 0.00 | 0.00 | 61 | 1025.4 |
| 20260510173423 | 15 | 360 | 20.9 | 33.8 | 0.00 | 0.00 | 0.00 | 60 | 1025.4 |
| 20260510173323 | 15 | 34 | 27.4 | 33.8 | 0.00 | 0.00 | 0.00 | 60 | 1025.4 |
| 20260510173239 | 15 | 49 | 27.4 | 33.8 | 0.00 | 0.00 | 0.00 | 60 | 1025.4 |
| 20260510173135 | 15 | 42 | 24.1 | 33.8 | 0.00 | 0.00 | 0.00 | 61 | 1025.4 |
| 20260510173032 | 15 | 17 | 20.9 | 32.2 | 0.00 | 0.00 | 0.00 | 62 | 1025.5 |
| 20260510172931 | 15 | 36 | 20.9 | 32.2 | 0.00 | 0.00 | 0.00 | 62 | 1025.4 |
| 20260510172829 | 15 | 49 | 20.9 | 32.2 | 0.00 | 0.00 | 0.00 | 62 | 1025.4 |
| 20260510172726 | 15 | 17 | 20.9 | 32.2 | 0.00 | 0.00 | 0.00 | 63 | 1025.4 |
| 20260510172622 | 15 | 19 | 20.9 | 33.8 | 0.00 | 0.00 | 0.00 | 62 | 1025.4 |
| 20260510172519 | 14 | 28 | 20.9 | 33.8 | 0.00 | 0.00 | 0.00 | 62 | 1025.4 |
| 20260510172416 | 14 | 34 | 20.9 | 33.8 | 0.00 | 0.00 | 0.00 | 62 | 1025.4 |
| 20260510172318 | 14 | 34 | 22.5 | 33.8 | 0.00 | 0.00 | 0.00 | 62 | 1025.5 |
| 20260510172234 | 14 | 28 | 24.1 | 33.8 | 0.00 | 0.00 | 0.00 | 62 | 1025.5 |
| 20260510172151 | 14 | 15 | 24.1 | 33.8 | 0.00 | 0.00 | 0.00 | 62 | 1025.5 |
| 20260510172022 | 14 | 29 | 22.5 | 33.8 | 0.00 | 0.00 | 0.00 | 62 | 1025.5 |
| 20260510171939 | 14 | 37 | 24.1 | 33.8 | 0.00 | 0.00 | 0.00 | 62 | 1025.6 |
| 20260510171836 | 14 | 44 | 24.1 | 35.4 | 0.00 | 0.00 | 0.00 | 62 | 1025.6 |
| 20260510171752 | 14 | 24 | 25.7 | 35.4 | 0.00 | 0.00 | 0.00 | 62 | 1025.6 |
| 20260510171630 | 15 | 13 | 22.5 | 35.4 | 0.00 | 0.00 | 0.00 | 63 | 1025.5 |
| 20260510171529 | 15 | 360 | 22.5 | 35.4 | 0.00 | 0.00 | 0.00 | 63 | 1025.5 |
| 20260510171425 | 14 | 32 | 22.5 | 35.4 | 0.00 | 0.00 | 0.00 | 63 | 1025.5 |
| 20260510171326 | 14 | 24 | 22.5 | 35.4 | 0.00 | 0.00 | 0.00 | 62 | 1025.4 |
| 20260510171221 | 15 | 17 | 24.1 | 35.4 | 0.00 | 0.00 | 0.00 | 63 | 1025.4 |
| 20260510171142 | 15 | 15 | 25.7 | 35.4 | 0.00 | 0.00 | 0.00 | 63 | 1025.4 |
| 20260510171034 | 15 | 26 | 25.7 | 35.4 | 0.00 | 0.00 | 0.00 | 63 | 1025.4 |
| 20260510170932 | 15 | 20 | 24.1 | 35.4 | 0.00 | 0.00 | 0.00 | 64 | 1025.4 |
| 20260510170832 | 14 | 336 | 24.1 | 32.2 | 0.00 | 0.00 | 0.00 | 63 | 1025.3 |
| 20260510170732 | 15 | 31 | 25.7 | 33.8 | 0.00 | 0.00 | 0.00 | 63 | 1025.4 |
| 20260510170649 | 15 | 46 | 25.7 | 33.8 | 0.00 | 0.00 | 0.00 | 63 | 1025.4 |
| 20260510170522 | 15 | 34 | 25.7 | 33.8 | 0.00 | 0.00 | 0.00 | 63 | 1025.4 |
| 20260510170424 | 15 | 37 | 24.1 | 33.8 | 0.00 | 0.00 | 0.00 | 63 | 1025.4 |
| 20260510170323 | 15 | 24 | 24.1 | 33.8 | 0.00 | 0.00 | 0.00 | 63 | 1025.4 |
| 20260510170219 | 15 | 22 | 24.1 | 33.8 | 0.00 | 0.00 | 0.00 | 64 | 1025.4 |
| 20260510170137 | 15 | 20 | 24.1 | 33.8 | 0.00 | 0.00 | 0.00 | 64 | 1025.3 |
| 20260510170051 | 15 | 41 | 22.5 | 33.8 | 0.00 | 0.00 | 0.00 | 64 | 1025.4 |
| 20260510165926 | 15 | 27 | 24.1 | 33.8 | 0.00 | 0.00 | 0.00 | 64 | 1025.4 |
| 20260510165831 | 15 | 32 | 24.1 | 35.4 | 0.00 | 0.00 | 0.00 | 64 | 1025.4 |
| 20260510165732 | 15 | 42 | 22.5 | 35.4 | 0.00 | 0.00 | 0.00 | 64 | 1025.3 |
| 20260510165632 | 15 | 24 | 20.9 | 35.4 | 0.00 | 0.00 | 0.00 | 64 | 1025.4 |
| 20260510165526 | 15 | 38 | 25.7 | 35.4 | 0.00 | 0.00 | 0.00 | 64 | 1025.3 |
| 20260510165428 | 15 | 36 | 25.7 | 35.4 | 0.00 | 0.00 | 0.00 | 64 | 1025.3 |
| 20260510165326 | 15 | 24 | 24.1 | 35.4 | 0.00 | 0.00 | 0.00 | 64 | 1025.3 |
| 20260510165224 | 15 | 40 | 22.5 | 35.4 | 0.00 | 0.00 | 0.00 | 65 | 1025.3 |
| 20260510165120 | 15 | 20 | 24.1 | 35.4 | 0.00 | 0.00 | 0.00 | 64 | 1025.3 |
| 20260510165038 | 15 | 355 | 25.7 | 35.4 | 0.00 | 0.00 | 0.00 | 64 | 1025.3 |
| 20260510164934 | 15 | 17 | 25.7 | 35.4 | 0.00 | 0.00 | 0.00 | 64 | 1025.3 |
| 20260510164834 | 15 | 16 | 25.7 | 35.4 | 0.00 | 0.00 | 0.00 | 63 | 1025.3 |
| 20260510164730 | 15 | 5 | 24.1 | 35.4 | 0.00 | 0.00 | 0.00 | 64 | 1025.3 |
| 20260510164630 | 15 | 18 | 24.1 | 35.4 | 0.00 | 0.00 | 0.00 | 65 | 1025.2 |
| 20260510164523 | 15 | 21 | 25.7 | 35.4 | 0.00 | 0.00 | 0.00 | 65 | 1025.3 |
| 20260510164419 | 15 | 20 | 24.1 | 35.4 | 0.00 | 0.00 | 0.00 | 65 | 1025.3 |
| 20260510164339 | 15 | 24 | 24.1 | 35.4 | 0.00 | 0.00 | 0.00 | 65 | 1025.3 |
| 20260510164235 | 15 | 21 | 25.7 | 35.4 | 0.00 | 0.00 | 0.00 | 65 | 1025.2 |
| 20260510164139 | 15 | 26 | 24.1 | 35.4 | 0.00 | 0.00 | 0.00 | 65 | 1025.2 |
| 20260510164032 | 15 | 51 | 22.5 | 35.4 | 0.00 | 0.00 | 0.00 | 65 | 1025.2 |
| 20260510163928 | 15 | 33 | 20.9 | 35.4 | 0.00 | 0.00 | 0.00 | 66 | 1025.2 |
| 20260510163826 | 15 | 355 | 24.1 | 35.4 | 0.00 | 0.00 | 0.00 | 65 | 1025.2 |
| 20260510163721 | 15 | 21 | 27.4 | 35.4 | 0.00 | 0.00 | 0.00 | 65 | 1025.2 |
| 20260510163621 | 15 | 54 | 27.4 | 35.4 | 0.00 | 0.00 | 0.00 | 65 | 1025.1 |
| 20260510163515 | 15 | 40 | 25.7 | 35.4 | 0.00 | 0.00 | 0.00 | 65 | 1025.1 |
| 20260510163416 | 15 | 38 | 22.5 | 33.8 | 0.00 | 0.00 | 0.00 | 65 | 1025.1 |
| 20260510163321 | 15 | 17 | 22.5 | 33.8 | 0.00 | 0.00 | 0.00 | 67 | 1025.1 |
| 20260510163220 | 15 | 28 | 22.5 | 32.2 | 0.00 | 0.00 | 0.00 | 67 | 1025.0 |
| 20260510163138 | 15 | 34 | 24.1 | 32.2 | 0.00 | 0.00 | 0.00 | 67 | 1025.0 |
| 20260510163053 | 15 | 66 | 24.1 | 32.2 | 0.00 | 0.00 | 0.00 | 66 | 1025.0 |
| 20260510162929 | 15 | 27 | 25.7 | 32.2 | 0.00 | 0.00 | 0.00 | 67 | 1025.0 |
| 20260510162852 | 15 | 24 | 22.5 | 32.2 | 0.00 | 0.00 | 0.00 | 67 | 1025.0 |
| 20260510162728 | 15 | 30 | 17.7 | 30.6 | 0.00 | 0.00 | 0.00 | 67 | 1025.0 |
| 20260510162616 | 15 | 27 | 20.9 | 30.6 | 0.00 | 0.00 | 0.00 | 68 | 1025.0 |
| 20260510162531 | 15 | 16 | 24.1 | 30.6 | 0.00 | 0.00 | 0.00 | 68 | 1025.0 |
| 20260510162429 | 15 | 34 | 22.5 | 30.6 | 0.00 | 0.00 | 0.00 | 69 | 1024.9 |
| 20260510162329 | 15 | 32 | 22.5 | 30.6 | 0.00 | 0.00 | 0.00 | 68 | 1024.9 |
| 20260510162246 | 15 | 30 | 22.5 | 30.6 | 0.00 | 0.00 | 0.00 | 68 | 1024.9 |
| 20260510162142 | 15 | 39 | 22.5 | 30.6 | 0.00 | 0.00 | 0.00 | 68 | 1025.0 |
| 20260510162035 | 15 | 29 | 22.5 | 30.6 | 0.00 | 0.00 | 0.00 | 68 | 1024.9 |
| 20260510161952 | 15 | 5 | 22.5 | 30.6 | 0.00 | 0.00 | 0.00 | 69 | 1025.0 |
| 20260510161832 | 15 | 34 | 22.5 | 30.6 | 0.00 | 0.00 | 0.00 | 70 | 1024.9 |
| 20260510161732 | 14 | 43 | 22.5 | 30.6 | 0.00 | 0.00 | 0.00 | 71 | 1024.9 |
| 20260510161655 | 14 | 35 | 22.5 | 30.6 | 0.00 | 0.00 | 0.00 | 71 | 1025.0 |
| 20260510161528 | 14 | 44 | 20.9 | 30.6 | 0.00 | 0.00 | 0.00 | 71 | 1024.9 |
| 20260510161425 | 14 | 42 | 20.9 | 27.4 | 0.00 | 0.00 | 0.00 | 71 | 1024.9 |
| 20260510161322 | 14 | 49 | 19.3 | 27.4 | 0.00 | 0.00 | 0.00 | 72 | 1024.9 |
| 20260510161222 | 14 | 44 | 17.7 | 30.6 | 0.00 | 0.00 | 0.00 | 73 | 1024.9 |
| 20260510161140 | 13 | 38 | 17.7 | 30.6 | 0.00 | 0.00 | 0.00 | 73 | 1024.9 |
| 20260510161033 | 13 | 22 | 17.7 | 30.6 | 0.00 | 0.00 | 0.00 | 73 | 1024.9 |
| 20260510160932 | 13 | 23 | 19.3 | 30.6 | 0.00 | 0.00 | 0.00 | 73 | 1024.9 |
| 20260510160829 | 13 | 37 | 17.7 | 30.6 | 0.00 | 0.00 | 0.00 | 74 | 1024.9 |
| 20260510160729 | 13 | 35 | 19.3 | 30.6 | 0.00 | 0.00 | 0.00 | 74 | 1024.9 |
| 20260510160646 | 13 | 40 | 20.9 | 30.6 | 0.00 | 0.00 | 0.00 | 74 | 1024.9 |
| 20260510160522 | 13 | 48 | 17.7 | 30.6 | 0.00 | 0.00 | 0.00 | 75 | 1024.9 |
| 20260510160418 | 13 | 47 | 17.7 | 30.6 | 0.00 | 0.00 | 0.00 | 76 | 1024.9 |
| 20260510160335 | 13 | 360 | 16.1 | 30.6 | 0.00 | 0.00 | 0.00 | 75 | 1024.9 |
| 20260510160235 | 13 | 38 | 17.7 | 30.6 | 0.00 | 0.00 | 0.00 | 76 | 1024.9 |
| 20260510160132 | 13 | 25 | 19.3 | 27.4 | 0.00 | 0.00 | 0.00 | 76 | 1024.9 |
| 20260510160025 | 13 | 59 | 20.9 | 27.4 | 0.00 | 0.00 | 0.00 | 76 | 1025.0 |
| 20260510155927 | 13 | 54 | 17.7 | 27.4 | 0.00 | 0.00 | 0.00 | 77 | 1025.0 |
| 20260510155847 | 12 | 32 | 14.5 | 25.7 | 0.00 | 0.00 | 0.00 | 78 | 1024.9 |
| 20260510155729 | 12 | 360 | 14.5 | 27.4 | 0.00 | 0.00 | 0.00 | 77 | 1025.0 |
| 20260510155626 | 12 | 360 | 17.7 | 27.4 | 0.00 | 0.00 | 0.00 | 78 | 1025.0 |
| 20260510155520 | 12 | 49 | 19.3 | 27.4 | 0.00 | 0.00 | 0.00 | 78 | 1025.0 |
| 20260510155437 | 12 | 360 | 19.3 | 27.4 | 0.00 | 0.00 | 0.00 | 78 | 1025.1 |
| 20260510155334 | 12 | 44 | 19.3 | 27.4 | 0.00 | 0.00 | 0.00 | 78 | 1025.1 |
| 20260510155231 | 12 | 40 | 19.3 | 27.4 | 0.00 | 0.00 | 0.00 | 78 | 1025.1 |
| 20260510155131 | 12 | 26 | 19.3 | 27.4 | 0.00 | 0.00 | 0.00 | 78 | 1025.0 |
| 20260510155028 | 12 | 40 | 20.9 | 27.4 | 0.00 | 0.00 | 0.00 | 78 | 1025.0 |
| 20260510154946 | 12 | 58 | 20.9 | 27.4 | 0.00 | 0.00 | 0.00 | 78 | 1025.0 |
| 20260510154823 | 12 | 42 | 19.3 | 27.4 | 0.00 | 0.00 | 0.00 | 78 | 1025.0 |
| 20260510154719 | 12 | 35 | 17.7 | 25.7 | 0.00 | 0.00 | 0.00 | 79 | 1025.0 |
| 20260510154639 | 12 | 40 | 19.3 | 25.7 | 0.00 | 0.00 | 0.00 | 79 | 1025.0 |
| 20260510154552 | 12 | 26 | 19.3 | 25.7 | 0.00 | 0.00 | 0.00 | 79 | 1025.0 |
| 20260510154427 | 12 | 34 | 19.3 | 25.7 | 0.00 | 0.00 | 0.00 | 79 | 1025.0 |
| 20260510154324 | 12 | 360 | 17.7 | 25.7 | 0.00 | 0.00 | 0.00 | 80 | 1024.9 |
| 20260510154225 | 12 | 360 | 17.7 | 25.7 | 0.00 | 0.00 | 0.00 | 80 | 1024.9 |
| 20260510154123 | 12 | 37 | 19.3 | 25.7 | 0.00 | 0.00 | 0.00 | 79 | 1024.9 |
| 20260510154020 | 12 | 14 | 19.3 | 25.7 | 0.00 | 0.00 | 0.00 | 80 | 1024.9 |
| 20260510153921 | 12 | 13 | 17.7 | 25.7 | 0.00 | 0.00 | 0.00 | 80 | 1024.8 |
| 20260510153819 | 12 | 17 | 17.7 | 25.7 | 0.00 | 0.00 | 0.00 | 80 | 1024.8 |
| 20260510153718 | 12 | 30 | 20.9 | 25.7 | 0.00 | 0.00 | 0.00 | 80 | 1024.8 |
| 20260510153616 | 12 | 34 | 20.9 | 25.7 | 0.00 | 0.00 | 0.00 | 80 | 1024.8 |
| 20260510153534 | 12 | 39 | 19.3 | 25.7 | 0.00 | 0.00 | 0.00 | 80 | 1024.7 |
| 20260510153432 | 12 | 26 | 17.7 | 25.7 | 0.00 | 0.00 | 0.00 | 81 | 1024.7 |
| 20260510153330 | 12 | 16 | 17.7 | 25.7 | 0.00 | 0.00 | 0.00 | 80 | 1024.7 |
| 20260510153246 | 11 | 40 | 19.3 | 25.7 | 0.00 | 0.00 | 0.00 | 80 | 1024.7 |
| 20260510153123 | 12 | 5 | 19.3 | 25.7 | 0.00 | 0.00 | 0.00 | 80 | 1024.8 |
| 20260510153017 | 12 | 17 | 19.3 | 24.1 | 0.00 | 0.00 | 0.00 | 81 | 1024.7 |
| 20260510152916 | 11 | 46 | 17.7 | 24.1 | 0.00 | 0.00 | 0.00 | 81 | 1024.6 |
| 20260510152835 | 11 | 13 | 17.7 | 24.1 | 0.00 | 0.00 | 0.00 | 81 | 1024.6 |
| 20260510152735 | 11 | 38 | 17.7 | 24.1 | 0.00 | 0.00 | 0.00 | 81 | 1024.6 |
| 20260510152632 | 11 | 22 | 16.1 | 24.1 | 0.00 | 0.00 | 0.00 | 81 | 1024.7 |
| 20260510152526 | 11 | 38 | 17.7 | 24.1 | 0.00 | 0.00 | 0.00 | 81 | 1024.7 |
| 20260510152426 | 11 | 21 | 19.3 | 24.1 | 0.00 | 0.00 | 0.00 | 81 | 1024.6 |
| 20260510152327 | 11 | 26 | 19.3 | 24.1 | 0.00 | 0.00 | 0.00 | 81 | 1024.6 |
| 20260510152226 | 11 | 39 | 19.3 | 24.1 | 0.00 | 0.00 | 0.00 | 81 | 1024.6 |
| 20260510152124 | 11 | 360 | 16.1 | 24.1 | 0.00 | 0.00 | 0.00 | 81 | 1024.6 |
| 20260510152022 | 11 | 28 | 16.1 | 24.1 | 0.00 | 0.00 | 0.00 | 81 | 1024.6 |
| 20260510151939 | 11 | 28 | 14.5 | 24.1 | 0.00 | 0.00 | 0.00 | 81 | 1024.6 |
| 20260510151857 | 11 | 13 | 16.1 | 24.1 | 0.00 | 0.00 | 0.00 | 81 | 1024.6 |
| 20260510151733 | 11 | 24 | 17.7 | 24.1 | 0.00 | 0.00 | 0.00 | 81 | 1024.6 |
| 20260510151632 | 11 | 38 | 17.7 | 24.1 | 0.00 | 0.00 | 0.00 | 81 | 1024.5 |
| 20260510151529 | 11 | 37 | 17.7 | 30.6 | 0.00 | 0.00 | 0.00 | 81 | 1024.6 |
| 20260510151426 | 11 | 34 | 19.3 | 30.6 | 0.00 | 0.00 | 0.00 | 81 | 1024.6 |
| 20260510151327 | 11 | 40 | 17.7 | 30.6 | 0.00 | 0.00 | 0.00 | 81 | 1024.5 |
| 20260510151229 | 11 | 19 | 17.7 | 30.6 | 0.00 | 0.00 | 0.00 | 81 | 1024.5 |
| 20260510151129 | 11 | 28 | 16.1 | 30.6 | 0.00 | 0.00 | 0.00 | 81 | 1024.4 |
| 20260510151026 | 11 | 17 | 17.7 | 30.6 | 0.00 | 0.00 | 0.00 | 81 | 1024.4 |
| 20260510150943 | 11 | 360 | 16.1 | 30.6 | 0.00 | 0.00 | 0.00 | 81 | 1024.4 |
| 20260510150822 | 11 | 360 | 17.7 | 30.6 | 0.00 | 0.00 | 0.00 | 81 | 1024.4 |
| 20260510150738 | 11 | 360 | 19.3 | 30.6 | 0.00 | 0.00 | 0.00 | 81 | 1024.4 |
| 20260510150655 | 11 | 24 | 22.5 | 30.6 | 0.00 | 0.00 | 0.00 | 81 | 1024.4 |
| 20260510150548 | 11 | 360 | 19.3 | 30.6 | 0.00 | 0.00 | 0.00 | 81 | 1024.3 |
| 20260510150426 | 11 | 355 | 17.7 | 30.6 | 0.00 | 0.00 | 0.00 | 81 | 1024.3 |
| 20260510150333 | 11 | 10 | 17.7 | 30.6 | 0.00 | 0.00 | 0.00 | 81 | 1024.4 |
| 20260510150228 | 11 | 15 | 20.9 | 30.6 | 0.00 | 0.00 | 0.00 | 81 | 1024.4 |
| 20260510150125 | 11 | 41 | 20.9 | 30.6 | 0.00 | 0.00 | 0.00 | 81 | 1024.4 |
| 20260510150019 | 11 | 19 | 20.9 | 30.6 | 0.00 | 0.00 | 0.00 | 81 | 1024.4 |
| 20260510145919 | 11 | 360 | 20.9 | 30.6 | 0.00 | 0.00 | 0.00 | 81 | 1024.4 |
| 20260510145817 | 11 | 22 | 22.5 | 30.6 | 0.00 | 0.00 | 0.00 | 81 | 1024.4 |
| 20260510145733 | 11 | 26 | 22.5 | 30.6 | 0.00 | 0.00 | 0.00 | 81 | 1024.4 |
| 20260510145617 | 11 | 17 | 22.5 | 29.0 | 0.00 | 0.00 | 0.00 | 81 | 1024.4 |
| 20260510145531 | 11 | 360 | 20.9 | 27.4 | 0.00 | 0.00 | 0.00 | 81 | 1024.4 |
| 20260510145428 | 11 | 351 | 20.9 | 27.4 | 0.00 | 0.00 | 0.00 | 81 | 1024.4 |
| 20260510145326 | 11 | 360 | 19.3 | 27.4 | 0.00 | 0.00 | 0.00 | 81 | 1024.4 |
| 20260510145222 | 11 | 17 | 20.9 | 27.4 | 0.00 | 0.00 | 0.00 | 81 | 1024.4 |
| 20260510145120 | 11 | 16 | 20.9 | 27.4 | 0.00 | 0.00 | 0.00 | 81 | 1024.4 |
| 20260510145017 | 11 | 360 | 19.3 | 27.4 | 0.00 | 0.00 | 0.00 | 82 | 1024.3 |
| 20260510144921 | 11 | 360 | 19.3 | 27.4 | 0.00 | 0.00 | 0.00 | 82 | 1024.3 |
| 20260510144819 | 11 | 360 | 17.7 | 27.4 | 0.00 | 0.00 | 0.00 | 81 | 1024.3 |
| 20260510144736 | 11 | 360 | 19.3 | 27.4 | 0.00 | 0.00 | 0.00 | 81 | 1024.3 |
| 20260510144632 | 11 | 360 | 19.3 | 27.4 | 0.00 | 0.00 | 0.00 | 81 | 1024.3 |
| 20260510144546 | 11 | 360 | 20.9 | 27.4 | 0.00 | 0.00 | 0.00 | 81 | 1024.4 |
| 20260510144422 | 11 | 360 | 22.5 | 27.4 | 0.00 | 0.00 | 0.00 | 81 | 1024.3 |
| 20260510144323 | 11 | 360 | 22.5 | 27.4 | 0.00 | 0.00 | 0.00 | 81 | 1024.3 |
| 20260510144223 | 11 | 360 | 20.9 | 27.4 | 0.00 | 0.00 | 0.00 | 81 | 1024.3 |
| 20260510144123 | 11 | 360 | 20.9 | 27.4 | 0.00 | 0.00 | 0.00 | 81 | 1024.3 |
| 20260510144040 | 11 | 360 | 20.9 | 27.4 | 0.00 | 0.00 | 0.00 | 81 | 1024.3 |
| 20260510143936 | 11 | 360 | 22.5 | 27.4 | 0.00 | 0.00 | 0.00 | 81 | 1024.3 |
| 20260510143834 | 11 | 33 | 19.3 | 27.4 | 0.00 | 0.00 | 0.00 | 81 | 1024.3 |
| 20260510143731 | 11 | 5 | 17.7 | 27.4 | 0.00 | 0.00 | 0.00 | 81 | 1024.3 |
| 20260510143631 | 11 | 15 | 16.1 | 27.4 | 0.00 | 0.00 | 0.00 | 81 | 1024.3 |
| 20260510143528 | 11 | 17 | 16.1 | 27.4 | 0.00 | 0.00 | 0.00 | 82 | 1024.3 |
| 20260510143445 | 11 | 22 | 16.1 | 27.4 | 0.00 | 0.00 | 0.00 | 81 | 1024.2 |
| 20260510143322 | 11 | 20 | 19.3 | 27.4 | 0.00 | 0.00 | 0.00 | 81 | 1024.1 |
| 20260510143222 | 11 | 17 | 20.9 | 27.4 | 0.00 | 0.00 | 0.00 | 80 | 1024.1 |
| 20260510143118 | 11 | 19 | 20.9 | 27.4 | 0.00 | 0.00 | 0.00 | 80 | 1024.2 |
| 20260510143033 | 11 | 5 | 20.9 | 25.7 | 0.00 | 0.00 | 0.00 | 80 | 1024.2 |
| 20260510142953 | 11 | 5 | 19.3 | 25.7 | 0.00 | 0.00 | 0.00 | 80 | 1024.1 |
| 20260510142831 | 11 | 19 | 19.3 | 24.1 | 0.00 | 0.00 | 0.00 | 81 | 1024.3 |
| 20260510142749 | 11 | 24 | 16.1 | 29.0 | 0.00 | 0.00 | 0.00 | 81 | 1024.2 |
| 20260510142629 | 11 | 14 | 17.7 | 29.0 | 0.00 | 0.00 | 0.00 | 81 | 1024.1 |
| 20260510142527 | 11 | 27 | 19.3 | 29.0 | 0.00 | 0.00 | 0.00 | 81 | 1024.1 |
| 20260510142427 | 11 | 28 | 19.3 | 29.0 | 0.00 | 0.00 | 0.00 | 81 | 1024.1 |
| 20260510142325 | 11 | 5 | 19.3 | 29.0 | 0.00 | 0.00 | 0.00 | 81 | 1024.1 |
| 20260510142224 | 11 | 26 | 19.3 | 29.0 | 0.00 | 0.00 | 0.00 | 81 | 1024.1 |
| 20260510142122 | 11 | 44 | 17.7 | 29.0 | 0.00 | 0.00 | 0.00 | 81 | 1024.0 |
| 20260510142036 | 11 | 26 | 19.3 | 29.0 | 0.00 | 0.00 | 0.00 | 81 | 1024.0 |
| 20260510141934 | 11 | 25 | 20.9 | 29.0 | 0.00 | 0.00 | 0.00 | 81 | 1024.0 |
| 20260510141835 | 11 | 15 | 22.5 | 29.0 | 0.00 | 0.00 | 0.00 | 81 | 1024.0 |
| 20260510141716 | 11 | 355 | 22.5 | 29.0 | 0.00 | 0.00 | 0.00 | 80 | 1024.0 |
| 20260510141634 | 11 | 5 | 22.5 | 29.0 | 0.00 | 0.00 | 0.00 | 80 | 1024.0 |
| 20260510141551 | 11 | 5 | 19.3 | 29.0 | 0.00 | 0.00 | 0.00 | 80 | 1023.9 |
| 20260510141447 | 11 | 5 | 19.3 | 29.0 | 0.00 | 0.00 | 0.00 | 81 | 1023.9 |
| 20260510141324 | 11 | 24 | 19.3 | 29.0 | 0.00 | 0.00 | 0.00 | 80 | 1023.8 |
| 20260510141241 | 11 | 360 | 20.9 | 29.0 | 0.00 | 0.00 | 0.00 | 80 | 1023.8 |
| 20260510141137 | 11 | 360 | 22.5 | 29.0 | 0.00 | 0.00 | 0.00 | 80 | 1023.8 |
| 20260510141033 | 11 | 28 | 20.9 | 29.0 | 0.00 | 0.00 | 0.00 | 80 | 1023.8 |
| 20260510140931 | 11 | 14 | 22.5 | 29.0 | 0.00 | 0.00 | 0.00 | 80 | 1023.8 |
| 20260510140850 | 11 | 360 | 20.9 | 29.0 | 0.00 | 0.00 | 0.00 | 79 | 1023.8 |
| 20260510140730 | 11 | 17 | 20.9 | 29.0 | 0.00 | 0.00 | 0.00 | 79 | 1023.8 |
| 20260510140631 | 12 | 360 | 19.3 | 27.4 | 0.00 | 0.00 | 0.00 | 79 | 1023.8 |
| 20260510140525 | 12 | 360 | 20.9 | 27.4 | 0.00 | 0.00 | 0.00 | 79 | 1023.8 |
| 20260510140422 | 12 | 43 | 20.9 | 27.4 | 0.00 | 0.00 | 0.00 | 79 | 1023.8 |
| 20260510140343 | 12 | 360 | 20.9 | 27.4 | 0.00 | 0.00 | 0.00 | 79 | 1023.8 |
| 20260510140259 | 12 | 360 | 19.3 | 27.4 | 0.00 | 0.00 | 0.00 | 79 | 1023.7 |
| 20260510140134 | 12 | 18 | 20.9 | 27.4 | 0.00 | 0.00 | 0.00 | 79 | 1023.7 |
| 20260510140026 | 12 | 44 | 22.5 | 27.4 | 0.00 | 0.00 | 0.00 | 79 | 1023.7 |
| 20260510135923 | 12 | 360 | 20.9 | 29.0 | 0.00 | 0.00 | 0.00 | 79 | 1023.6 |
| 20260510135825 | 12 | 44 | 19.3 | 29.0 | 0.00 | 0.00 | 0.00 | 79 | 1023.6 |
| 20260510135744 | 12 | 360 | 20.9 | 29.0 | 0.00 | 0.00 | 0.00 | 79 | 1023.6 |
| 20260510135640 | 12 | 23 | 19.3 | 29.0 | 0.00 | 0.00 | 0.00 | 79 | 1023.6 |
| 20260510135532 | 12 | 360 | 19.3 | 29.0 | 0.00 | 0.00 | 0.00 | 78 | 1023.5 |
| 20260510135428 | 12 | 360 | 20.9 | 29.0 | 0.00 | 0.00 | 0.00 | 78 | 1023.6 |
| 20260510135328 | 12 | 27 | 20.9 | 29.0 | 0.00 | 0.00 | 0.00 | 78 | 1023.5 |
| 20260510135227 | 12 | 42 | 19.3 | 29.0 | 0.00 | 0.00 | 0.00 | 78 | 1023.5 |
| 20260510135128 | 12 | 360 | 20.9 | 29.0 | 0.00 | 0.00 | 0.00 | 78 | 1023.5 |
| 20260510135022 | 12 | 360 | 22.5 | 29.0 | 0.00 | 0.00 | 0.00 | 78 | 1023.5 |
| 20260510134947 | 12 | 27 | 24.1 | 29.0 | 0.00 | 0.00 | 0.00 | 77 | 1023.4 |
| 20260510134829 | 12 | 360 | 22.5 | 27.4 | 0.00 | 0.00 | 0.00 | 77 | 1023.4 |
| 20260510134746 | 12 | 360 | 20.9 | 27.4 | 0.00 | 0.00 | 0.00 | 77 | 1023.4 |
| 20260510134624 | 12 | 360 | 19.3 | 27.4 | 0.00 | 0.00 | 0.00 | 78 | 1023.4 |
| 20260510134519 | 12 | 360 | 19.3 | 29.0 | 0.00 | 0.00 | 0.00 | 78 | 1023.4 |
| 20260510134416 | 12 | 360 | 19.3 | 29.0 | 0.00 | 0.00 | 0.00 | 79 | 1023.4 |
| 20260510134335 | 12 | 360 | 19.3 | 29.0 | 0.00 | 0.00 | 0.00 | 79 | 1023.5 |
| 20260510134231 | 12 | 360 | 22.5 | 29.0 | 0.00 | 0.00 | 0.00 | 79 | 1023.5 |
| 20260510134128 | 12 | 360 | 22.5 | 30.6 | 0.00 | 0.00 | 0.00 | 79 | 1023.5 |
| 20260510134028 | 12 | 360 | 20.9 | 30.6 | 0.00 | 0.00 | 0.00 | 80 | 1023.5 |
| 20260510133924 | 12 | 33 | 19.3 | 30.6 | 0.00 | 0.00 | 0.00 | 80 | 1023.5 |
| 20260510133824 | 12 | 34 | 20.9 | 30.6 | 0.00 | 0.00 | 0.00 | 81 | 1023.5 |
| 20260510133721 | 12 | 22 | 20.9 | 30.6 | 0.00 | 0.00 | 0.00 | 81 | 1023.5 |
| 20260510133638 | 12 | 34 | 20.9 | 30.6 | 0.00 | 0.00 | 0.00 | 81 | 1023.5 |
| 20260510133532 | 12 | 360 | 19.3 | 30.6 | 0.00 | 0.00 | 0.00 | 81 | 1023.5 |
| 20260510133431 | 12 | 360 | 20.9 | 30.6 | 0.00 | 0.00 | 0.00 | 81 | 1023.5 |
| 20260510133328 | 11 | 360 | 22.5 | 30.6 | 0.00 | 0.00 | 0.00 | 81 | 1023.5 |
| 20260510133231 | 11 | 360 | 24.1 | 30.6 | 0.00 | 0.00 | 0.00 | 81 | 1023.4 |
| 20260510133128 | 11 | 360 | 22.5 | 30.6 | 0.00 | 0.00 | 0.00 | 81 | 1023.4 |
| 20260510133023 | 11 | 360 | 19.3 | 29.0 | 0.00 | 0.00 | 0.00 | 81 | 1023.4 |
| 20260510132919 | 11 | 360 | 20.9 | 29.0 | 0.00 | 0.00 | 0.00 | 81 | 1023.4 |
| 20260510132838 | 11 | 360 | 22.5 | 29.0 | 0.00 | 0.00 | 0.00 | 81 | 1023.4 |
| 20260510132715 | 11 | 360 | 22.5 | 29.0 | 0.00 | 0.00 | 0.00 | 81 | 1023.4 |
| 20260510132618 | 11 | 360 | 20.9 | 27.4 | 0.00 | 0.00 | 0.00 | 81 | 1023.4 |
| 20260510132516 | 11 | 360 | 19.3 | 29.0 | 0.00 | 0.00 | 0.00 | 81 | 1023.5 |
| 20260510132433 | 11 | 360 | 19.3 | 29.0 | 0.00 | 0.00 | 0.00 | 81 | 1023.5 |
| 20260510132333 | 11 | 360 | 19.3 | 29.0 | 0.00 | 0.00 | 0.00 | 81 | 1023.5 |
| 20260510132230 | 11 | 360 | 20.9 | 29.0 | 0.00 | 0.00 | 0.00 | 81 | 1023.5 |
| 20260510132130 | 11 | 360 | 22.5 | 29.0 | 0.00 | 0.00 | 0.00 | 80 | 1023.5 |
| 20260510132044 | 11 | 360 | 22.5 | 29.0 | 0.00 | 0.00 | 0.00 | 80 | 1023.5 |
| 20260510131920 | 11 | 360 | 20.9 | 29.0 | 0.00 | 0.00 | 0.00 | 80 | 1023.5 |
| 20260510131821 | 11 | 360 | 22.5 | 29.0 | 0.00 | 0.00 | 0.00 | 80 | 1023.4 |
| 20260510131724 | 11 | 360 | 24.1 | 29.0 | 0.00 | 0.00 | 0.00 | 80 | 1023.4 |
| 20260510131642 | 11 | 360 | 24.1 | 29.0 | 0.00 | 0.00 | 0.00 | 80 | 1023.4 |
| 20260510131534 | 11 | 360 | 22.5 | 27.4 | 0.00 | 0.00 | 0.00 | 80 | 1023.4 |
| 20260510131430 | 11 | 360 | 22.5 | 27.4 | 0.00 | 0.00 | 0.00 | 80 | 1023.4 |
| 20260510131330 | 11 | 360 | 20.9 | 27.4 | 0.00 | 0.00 | 0.00 | 80 | 1023.3 |
| 20260510131229 | 11 | 360 | 20.9 | 29.0 | 0.00 | 0.00 | 0.00 | 81 | 1023.3 |
| 20260510131126 | 11 | 360 | 19.3 | 29.0 | 0.00 | 0.00 | 0.00 | 81 | 1023.3 |
| 20260510131019 | 11 | 360 | 19.3 | 29.0 | 0.00 | 0.00 | 0.00 | 81 | 1023.2 |
| 20260510130923 | 11 | 360 | 19.3 | 29.0 | 0.00 | 0.00 | 0.00 | 81 | 1023.3 |
| 20260510130844 | 11 | 360 | 19.3 | 29.0 | 0.00 | 0.00 | 0.00 | 81 | 1023.2 |
| 20260510130800 | 11 | 360 | 19.3 | 29.0 | 0.00 | 0.00 | 0.00 | 81 | 1023.2 |
| 20260510130635 | 11 | 360 | 19.3 | 29.0 | 0.00 | 0.00 | 0.00 | 81 | 1023.2 |
| 20260510130528 | 11 | 360 | 17.7 | 29.0 | 0.00 | 0.00 | 0.00 | 81 | 1023.2 |
| 20260510130424 | 11 | 360 | 19.3 | 29.0 | 0.00 | 0.00 | 0.00 | 81 | 1023.1 |
| 20260510130323 | 11 | 360 | 19.3 | 29.0 | 0.00 | 0.00 | 0.00 | 82 | 1023.1 |
| 20260510130219 | 11 | 360 | 17.7 | 27.4 | 0.00 | 0.00 | 0.00 | 82 | 1023.1 |
| 20260510130116 | 11 | 360 | 20.9 | 27.4 | 0.00 | 0.00 | 0.00 | 81 | 1023.2 |
| 20260510130016 | 11 | 360 | 20.9 | 27.4 | 0.00 | 0.00 | 0.00 | 82 | 1023.1 |
| 20260510125933 | 11 | 360 | 19.3 | 27.4 | 0.00 | 0.00 | 0.00 | 82 | 1023.2 |
| 20260510125835 | 11 | 360 | 16.1 | 29.0 | 0.00 | 0.00 | 0.00 | 82 | 1023.1 |
| 20260510125752 | 11 | 360 | 17.7 | 29.0 | 0.00 | 0.00 | 0.00 | 82 | 1023.1 |
| 20260510125628 | 11 | 360 | 19.3 | 30.6 | 0.00 | 0.00 | 0.00 | 81 | 1023.2 |
| 20260510125521 | 11 | 360 | 19.3 | 30.6 | 0.00 | 0.00 | 0.00 | 81 | 1023.2 |
| 20260510125440 | 11 | 360 | 19.3 | 33.8 | 0.00 | 0.00 | 0.00 | 81 | 1023.1 |
| 20260510125321 | 11 | 360 | 19.3 | 33.8 | 0.00 | 0.00 | 0.00 | 81 | 1023.1 |
| 20260510125222 | 11 | 360 | 19.3 | 33.8 | 0.00 | 0.00 | 0.00 | 81 | 1023.1 |
| 20260510125118 | 11 | 360 | 19.3 | 33.8 | 0.00 | 0.00 | 0.00 | 81 | 1023.1 |
| 20260510125032 | 11 | 360 | 19.3 | 33.8 | 0.00 | 0.00 | 0.00 | 81 | 1023.0 |
| 20260510124955 | 11 | 360 | 20.9 | 33.8 | 0.00 | 0.00 | 0.00 | 81 | 1023.0 |
| 20260510124832 | 11 | 360 | 22.5 | 33.8 | 0.00 | 0.00 | 0.00 | 81 | 1022.9 |
| 20260510124731 | 11 | 360 | 24.1 | 33.8 | 0.00 | 0.00 | 0.00 | 81 | 1022.9 |
| 20260510124628 | 11 | 360 | 24.1 | 33.8 | 0.00 | 0.00 | 0.00 | 81 | 1022.9 |
| 20260510124525 | 11 | 360 | 24.1 | 33.8 | 0.00 | 0.00 | 0.00 | 81 | 1022.9 |
| 20260510124445 | 11 | 360 | 22.5 | 33.8 | 0.00 | 0.00 | 0.00 | 81 | 1022.8 |
| 20260510124343 | 11 | 360 | 22.5 | 32.2 | 0.00 | 0.00 | 0.00 | 81 | 1022.9 |
| 20260510124218 | 11 | 360 | 24.1 | 32.2 | 0.00 | 0.00 | 0.00 | 80 | 1022.8 |
| 20260510124121 | 11 | 360 | 24.1 | 30.6 | 0.00 | 0.00 | 0.00 | 80 | 1022.9 |
| 20260510124035 | 11 | 360 | 22.5 | 35.4 | 0.00 | 0.00 | 0.00 | 80 | 1022.9 |
| 20260510123935 | 11 | 360 | 22.5 | 35.4 | 0.00 | 0.00 | 0.00 | 80 | 1022.9 |
| 20260510123834 | 11 | 360 | 20.9 | 35.4 | 0.00 | 0.00 | 0.00 | 80 | 1022.9 |
| 20260510123730 | 11 | 360 | 20.9 | 35.4 | 0.00 | 0.00 | 0.00 | 80 | 1022.8 |
| 20260510123630 | 11 | 360 | 20.9 | 35.4 | 0.00 | 0.00 | 0.00 | 80 | 1022.8 |
| 20260510123531 | 11 | 360 | 20.9 | 35.4 | 0.00 | 0.00 | 0.00 | 80 | 1022.8 |
| 20260510123428 | 11 | 360 | 20.9 | 35.4 | 0.00 | 0.00 | 0.00 | 80 | 1022.8 |
| 20260510123327 | 11 | 360 | 22.5 | 35.4 | 0.00 | 0.00 | 0.00 | 80 | 1022.8 |
| 20260510123226 | 11 | 360 | 25.7 | 35.4 | 0.00 | 0.00 | 0.00 | 80 | 1022.7 |
| 20260510123123 | 11 | 360 | 24.1 | 35.4 | 0.00 | 0.00 | 0.00 | 80 | 1022.7 |
| 20260510123017 | 11 | 360 | 22.5 | 32.2 | 0.00 | 0.00 | 0.00 | 80 | 1022.7 |
| 20260510122918 | 11 | 360 | 24.1 | 33.8 | 0.00 | 0.00 | 0.00 | 80 | 1022.7 |
| 20260510122836 | 11 | 360 | 25.7 | 33.8 | 0.00 | 0.00 | 0.00 | 80 | 1022.6 |
| 20260510122732 | 11 | 360 | 27.4 | 33.8 | 0.00 | 0.00 | 0.00 | 80 | 1022.5 |
| 20260510122630 | 11 | 360 | 27.4 | 33.8 | 0.00 | 0.00 | 0.00 | 79 | 1022.5 |
| 20260510122529 | 11 | 360 | 25.7 | 33.8 | 0.00 | 0.00 | 0.00 | 79 | 1022.4 |
| 20260510122427 | 11 | 360 | 22.5 | 33.8 | 0.00 | 0.00 | 0.00 | 79 | 1022.5 |
| 20260510122325 | 11 | 360 | 25.7 | 33.8 | 0.00 | 0.00 | 0.00 | 79 | 1022.5 |
| 20260510122221 | 11 | 360 | 25.7 | 33.8 | 0.00 | 0.00 | 0.00 | 79 | 1022.4 |
| 20260510122121 | 11 | 360 | 25.7 | 33.8 | 0.00 | 0.00 | 0.00 | 79 | 1022.4 |
| 20260510122018 | 11 | 360 | 25.7 | 33.8 | 0.00 | 0.00 | 0.00 | 79 | 1022.4 |
| 20260510121915 | 11 | 360 | 22.5 | 33.8 | 0.00 | 0.00 | 0.00 | 78 | 1022.4 |
| 20260510121817 | 11 | 360 | 20.9 | 32.2 | 0.00 | 0.00 | 0.00 | 78 | 1022.4 |
| 20260510121733 | 11 | 360 | 20.9 | 32.2 | 0.00 | 0.00 | 0.00 | 78 | 1022.3 |
| 20260510121653 | 11 | 360 | 24.1 | 32.2 | 0.00 | 0.00 | 0.00 | 78 | 1022.4 |
| 20260510121546 | 11 | 360 | 22.5 | 32.2 | 0.00 | 0.00 | 0.00 | 78 | 1022.3 |
| 20260510121421 | 11 | 360 | 22.5 | 32.2 | 0.00 | 0.00 | 0.00 | 78 | 1022.3 |
| 20260510121342 | 11 | 360 | 22.5 | 33.8 | 0.00 | 0.00 | 0.00 | 78 | 1022.3 |
| 20260510121219 | 11 | 360 | 22.5 | 33.8 | 0.00 | 0.00 | 0.00 | 77 | 1022.3 |
| 20260510121140 | 11 | 360 | 25.7 | 33.8 | 0.00 | 0.00 | 0.00 | 77 | 1022.3 |
| 20260510121032 | 11 | 360 | 25.7 | 33.8 | 0.00 | 0.00 | 0.00 | 77 | 1022.3 |
| 20260510120930 | 11 | 360 | 24.1 | 33.8 | 0.00 | 0.00 | 0.00 | 77 | 1022.3 |
| 20260510120849 | 11 | 360 | 20.9 | 33.8 | 0.00 | 0.00 | 0.00 | 77 | 1022.3 |
| 20260510120724 | 11 | 360 | 24.1 | 33.8 | 0.00 | 0.00 | 0.00 | 77 | 1022.2 |
| 20260510120620 | 11 | 360 | 25.7 | 33.8 | 0.00 | 0.00 | 0.00 | 77 | 1022.3 |
| 20260510120534 | 11 | 360 | 25.7 | 38.6 | 0.00 | 0.00 | 0.00 | 76 | 1022.3 |
| 20260510120432 | 11 | 360 | 27.4 | 38.6 | 0.00 | 0.00 | 0.00 | 76 | 1022.3 |
| 20260510120335 | 11 | 360 | 29.0 | 38.6 | 0.00 | 0.00 | 0.00 | 76 | 1022.4 |
| 20260510120231 | 11 | 360 | 27.4 | 38.6 | 0.00 | 0.00 | 0.00 | 76 | 1022.3 |
| 20260510120128 | 11 | 360 | 27.4 | 38.6 | 0.00 | 0.00 | 0.00 | 76 | 1022.3 |
| 20260510120022 | 11 | 360 | 25.7 | 38.6 | 0.00 | 0.00 | 0.00 | 75 | 1022.2 |
| 20260510115920 | 11 | 360 | 25.7 | 38.6 | 0.00 | 0.00 | 0.00 | 75 | 1022.2 |
| 20260510115820 | 11 | 360 | 25.7 | 38.6 | 0.00 | 0.00 | 0.00 | 75 | 1022.2 |
| 20260510115716 | 11 | 360 | 27.4 | 38.6 | 0.00 | 0.00 | 0.00 | 74 | 1022.1 |
| 20260510115621 | 11 | 360 | 30.6 | 38.6 | 0.00 | 0.00 | 0.00 | 74 | 1022.2 |
| 20260510115535 | 11 | 360 | 29.0 | 38.6 | 0.00 | 0.00 | 0.00 | 74 | 1022.1 |
| 20260510115432 | 11 | 360 | 27.4 | 35.4 | 0.00 | 0.00 | 0.00 | 73 | 1022.1 |
| 20260510115332 | 11 | 360 | 27.4 | 35.4 | 0.00 | 0.00 | 0.00 | 73 | 1022.2 |
| 20260510115227 | 12 | 360 | 25.7 | 35.4 | 0.00 | 0.00 | 0.00 | 72 | 1022.1 |
| 20260510115124 | 12 | 360 | 27.4 | 35.4 | 0.00 | 0.00 | 0.00 | 72 | 1022.2 |
| 20260510115016 | 12 | 360 | 25.7 | 37.0 | 0.00 | 0.00 | 0.00 | 72 | 1022.1 |
| 20260510114916 | 12 | 360 | 27.4 | 37.0 | 0.00 | 0.00 | 0.00 | 71 | 1022.1 |
| 20260510114819 | 12 | 360 | 27.4 | 41.8 | 0.00 | 0.00 | 0.00 | 71 | 1022.1 |
| 20260510114735 | 12 | 360 | 29.0 | 41.8 | 0.00 | 0.00 | 0.00 | 71 | 1022.0 |
| 20260510114632 | 12 | 360 | 29.0 | 41.8 | 0.00 | 0.00 | 0.00 | 69 | 1022.1 |
| 20260510114529 | 12 | 360 | 27.4 | 41.8 | 0.00 | 0.00 | 0.00 | 69 | 1022.1 |
| 20260510114427 | 12 | 360 | 25.7 | 41.8 | 0.00 | 0.00 | 0.00 | 69 | 1022.1 |
| 20260510114323 | 12 | 360 | 27.4 | 41.8 | 0.00 | 0.00 | 0.00 | 69 | 1022.0 |
| 20260510114219 | 12 | 360 | 29.0 | 41.8 | 0.00 | 0.00 | 0.00 | 69 | 1021.9 |
| 20260510114123 | 12 | 360 | 29.0 | 41.8 | 0.00 | 0.00 | 0.00 | 69 | 1021.9 |
| 20260510114017 | 12 | 360 | 30.6 | 41.8 | 0.00 | 0.00 | 0.00 | 69 | 1021.8 |
| 20260510113917 | 12 | 360 | 33.8 | 41.8 | 0.00 | 0.00 | 0.00 | 69 | 1021.8 |
| 20260510113835 | 12 | 360 | 32.2 | 41.8 | 0.00 | 0.00 | 0.00 | 68 | 1021.8 |
| 20260510113731 | 11 | 360 | 27.4 | 38.6 | 0.00 | 0.00 | 0.00 | 68 | 1021.8 |
| 20260510113629 | 11 | 360 | 24.1 | 32.2 | 0.00 | 0.00 | 0.00 | 68 | 1021.7 |
| 20260510113523 | 11 | 360 | 24.1 | 32.2 | 0.00 | 0.00 | 0.00 | 68 | 1021.7 |
| 20260510113427 | 11 | 360 | 25.7 | 32.2 | 0.00 | 0.00 | 0.00 | 68 | 1021.7 |
| 20260510113328 | 11 | 360 | 25.7 | 32.2 | 0.00 | 0.00 | 0.00 | 68 | 1021.7 |
| 20260510113244 | 11 | 360 | 24.1 | 32.2 | 0.00 | 0.00 | 0.00 | 68 | 1021.7 |
| 20260510113140 | 11 | 360 | 22.5 | 32.2 | 0.00 | 0.00 | 0.00 | 68 | 1021.6 |
| 20260510113035 | 11 | 360 | 24.1 | 32.2 | 0.00 | 0.00 | 0.00 | 68 | 1021.6 |
| 20260510112934 | 11 | 360 | 25.7 | 33.8 | 0.00 | 0.00 | 0.00 | 67 | 1021.6 |
| 20260510112833 | 11 | 360 | 25.7 | 33.8 | 0.00 | 0.00 | 0.00 | 67 | 1021.6 |
| 20260510112749 | 11 | 360 | 25.7 | 33.8 | 0.00 | 0.00 | 0.00 | 67 | 1021.6 |
| 20260510112624 | 11 | 360 | 25.7 | 33.8 | 0.00 | 0.00 | 0.00 | 67 | 1021.6 |
| 20260510112517 | 11 | 360 | 24.1 | 33.8 | 0.00 | 0.00 | 0.00 | 67 | 1021.6 |
| 20260510112418 | 11 | 360 | 24.1 | 33.8 | 0.00 | 0.00 | 0.00 | 67 | 1021.7 |
| 20260510112336 | 11 | 360 | 24.1 | 33.8 | 0.00 | 0.00 | 0.00 | 67 | 1021.6 |
| 20260510112235 | 11 | 360 | 22.5 | 33.8 | 0.00 | 0.00 | 0.00 | 67 | 1021.6 |
| 20260510112131 | 11 | 360 | 24.1 | 33.8 | 0.00 | 0.00 | 0.00 | 67 | 1021.5 |
| 20260510112024 | 11 | 360 | 24.1 | 33.8 | 0.00 | 0.00 | 0.00 | 67 | 1021.6 |
| 20260510111920 | 11 | 360 | 22.5 | 30.6 | 0.00 | 0.00 | 0.00 | 67 | 1021.5 |
| 20260510111823 | 11 | 360 | 22.5 | 30.6 | 0.00 | 0.00 | 0.00 | 67 | 1021.5 |
| 20260510111739 | 11 | 360 | 24.1 | 30.6 | 0.00 | 0.00 | 0.00 | 67 | 1021.5 |
| 20260510111635 | 11 | 360 | 24.1 | 30.6 | 0.00 | 0.00 | 0.00 | 67 | 1021.5 |
| 20260510111527 | 11 | 360 | 22.5 | 30.6 | 0.00 | 0.00 | 0.00 | 67 | 1021.4 |
| 20260510111430 | 11 | 360 | 20.9 | 29.0 | 0.00 | 0.00 | 0.00 | 67 | 1021.4 |
| 20260510111331 | 11 | 360 | 22.5 | 29.0 | 0.00 | 0.00 | 0.00 | 67 | 1021.4 |
| 20260510111230 | 11 | 360 | 22.5 | 29.0 | 0.00 | 0.00 | 0.00 | 67 | 1021.4 |
| 20260510111128 | 11 | 360 | 22.5 | 29.0 | 0.00 | 0.00 | 0.00 | 67 | 1021.5 |
| 20260510111022 | 11 | 360 | 20.9 | 29.0 | 0.00 | 0.00 | 0.00 | 67 | 1021.5 |
| 20260510110921 | 11 | 360 | 20.9 | 27.4 | 0.00 | 0.00 | 0.00 | 67 | 1021.5 |
| 20260510110840 | 11 | 360 | 19.3 | 27.4 | 0.00 | 0.00 | 0.00 | 67 | 1021.5 |
| 20260510110719 | 11 | 360 | 19.3 | 27.4 | 0.00 | 0.00 | 0.00 | 67 | 1021.4 |
| 20260510110617 | 11 | 360 | 19.3 | 27.4 | 0.00 | 0.00 | 0.00 | 67 | 1021.5 |
| 20260510110531 | 11 | 360 | 19.3 | 27.4 | 0.00 | 0.00 | 0.00 | 67 | 1021.5 |
| 20260510110416 | 11 | 360 | 17.7 | 27.4 | 0.00 | 0.00 | 0.00 | 67 | 1021.5 |
| 20260510110334 | 11 | 360 | 19.3 | 27.4 | 0.00 | 0.00 | 0.00 | 67 | 1021.5 |
| 20260510110253 | 11 | 360 | 19.3 | 27.4 | 0.00 | 0.00 | 0.00 | 67 | 1021.4 |
| 20260510110129 | 11 | 360 | 17.7 | 27.4 | 0.00 | 0.00 | 0.00 | 67 | 1021.4 |
| 20260510110021 | 11 | 360 | 19.3 | 27.4 | 0.00 | 0.00 | 0.00 | 67 | 1021.4 |
| 20260510105918 | 11 | 360 | 20.9 | 27.4 | 0.00 | 0.00 | 0.00 | 67 | 1021.3 |
| 20260510105819 | 11 | 360 | 20.9 | 30.6 | 0.00 | 0.00 | 0.00 | 67 | 1021.2 |
| 20260510105718 | 11 | 360 | 19.3 | 30.6 | 0.00 | 0.00 | 0.00 | 67 | 1021.1 |
| 20260510105617 | 11 | 360 | 19.3 | 30.6 | 0.00 | 0.00 | 0.00 | 67 | 1021.1 |
| 20260510105531 | 11 | 360 | 20.9 | 30.6 | 0.00 | 0.00 | 0.00 | 67 | 1021.0 |
| 20260510105448 | 11 | 360 | 20.9 | 30.6 | 0.00 | 0.00 | 0.00 | 67 | 1020.9 |
| 20260510105329 | 11 | 360 | 20.9 | 30.6 | 0.00 | 0.00 | 0.00 | 68 | 1020.8 |
| 20260510105225 | 11 | 360 | 20.9 | 30.6 | 0.00 | 0.00 | 0.00 | 68 | 1020.7 |
| 20260510105124 | 11 | 360 | 20.9 | 30.6 | 0.00 | 0.00 | 0.00 | 68 | 1020.6 |
| 20260510105022 | 11 | 360 | 19.3 | 30.6 | 0.00 | 0.00 | 0.00 | 68 | 1020.6 |
| 20260510104918 | 11 | 360 | 20.9 | 30.6 | 0.00 | 0.00 | 0.00 | 68 | 1020.6 |
| 20260510104818 | 11 | 360 | 19.3 | 30.6 | 0.00 | 0.00 | 0.00 | 68 | 1020.5 |
| 20260510104717 | 11 | 360 | 17.7 | 24.1 | 0.00 | 0.00 | 0.00 | 68 | 1020.5 |
| 20260510104634 | 11 | 360 | 17.7 | 24.1 | 0.00 | 0.00 | 0.00 | 68 | 1020.4 |
| 20260510104530 | 11 | 360 | 17.7 | 24.1 | 0.00 | 0.00 | 0.00 | 68 | 1020.5 |
| 20260510104429 | 11 | 360 | 19.3 | 24.1 | 0.00 | 0.00 | 0.00 | 68 | 1020.5 |
| 20260510104329 | 11 | 360 | 19.3 | 24.1 | 0.00 | 0.00 | 0.00 | 68 | 1020.5 |
| 20260510104244 | 11 | 360 | 17.7 | 24.1 | 0.00 | 0.00 | 0.00 | 68 | 1020.5 |
| 20260510104119 | 11 | 360 | 19.3 | 24.1 | 0.00 | 0.00 | 0.00 | 68 | 1020.5 |
| 20260510104018 | 11 | 360 | 19.3 | 24.1 | 0.00 | 0.00 | 0.00 | 68 | 1020.5 |
| 20260510103916 | 11 | 360 | 17.7 | 24.1 | 0.00 | 0.00 | 0.00 | 68 | 1020.5 |
| 20260510103834 | 11 | 360 | 19.3 | 24.1 | 0.00 | 0.00 | 0.00 | 68 | 1020.5 |
| 20260510103731 | 11 | 360 | 17.7 | 24.1 | 0.00 | 0.00 | 0.00 | 68 | 1020.4 |
| 20260510103631 | 11 | 360 | 16.1 | 24.1 | 0.00 | 0.00 | 0.00 | 68 | 1020.4 |
| 20260510103524 | 11 | 360 | 16.1 | 24.1 | 0.00 | 0.00 | 0.00 | 68 | 1020.3 |
| 20260510103426 | 11 | 360 | 16.1 | 24.1 | 0.00 | 0.00 | 0.00 | 68 | 1020.3 |
| 20260510103330 | 11 | 360 | 17.7 | 24.1 | 0.00 | 0.00 | 0.00 | 68 | 1020.3 |
| 20260510103250 | 11 | 360 | 17.7 | 24.1 | 0.00 | 0.00 | 0.00 | 68 | 1020.3 |
| 20260510103126 | 11 | 360 | 16.1 | 24.1 | 0.00 | 0.00 | 0.00 | 68 | 1020.3 |
| 20260510103023 | 11 | 360 | 17.7 | 24.1 | 0.00 | 0.00 | 0.00 | 68 | 1020.2 |
| 20260510102920 | 11 | 360 | 17.7 | 24.1 | 0.00 | 0.00 | 0.00 | 68 | 1020.2 |
| 20260510102821 | 11 | 360 | 17.7 | 24.1 | 0.00 | 0.00 | 0.00 | 68 | 1020.2 |
| 20260510102717 | 11 | 360 | 17.7 | 25.7 | 0.00 | 0.00 | 0.00 | 68 | 1020.1 |
| 20260510102635 | 11 | 360 | 19.3 | 25.7 | 0.00 | 0.00 | 0.00 | 68 | 1020.0 |
| 20260510102533 | 11 | 360 | 19.3 | 25.7 | 0.00 | 0.00 | 0.00 | 68 | 1020.0 |
| 20260510102430 | 11 | 360 | 19.3 | 25.7 | 0.00 | 0.00 | 0.00 | 68 | 1020.0 |
| 20260510102349 | 11 | 360 | 17.7 | 27.4 | 0.00 | 0.00 | 0.00 | 67 | 1019.9 |
| 20260510102224 | 11 | 360 | 17.7 | 27.4 | 0.00 | 0.00 | 0.00 | 67 | 1019.9 |
| 20260510102142 | 11 | 360 | 17.7 | 30.6 | 0.00 | 0.00 | 0.00 | 67 | 1019.9 |
| 20260510102016 | 11 | 360 | 19.3 | 30.6 | 0.00 | 0.00 | 0.00 | 67 | 1019.9 |
| 20260510101932 | 11 | 360 | 20.9 | 30.6 | 0.00 | 0.00 | 0.00 | 67 | 1019.9 |
| 20260510101853 | 11 | 360 | 20.9 | 30.6 | 0.00 | 0.00 | 0.00 | 67 | 1019.8 |
| 20260510101728 | 11 | 360 | 19.3 | 30.6 | 0.00 | 0.00 | 0.00 | 67 | 1019.9 |
| 20260510101632 | 11 | 360 | 19.3 | 30.6 | 0.00 | 0.00 | 0.00 | 67 | 1019.8 |
| 20260510101526 | 11 | 360 | 20.9 | 30.6 | 0.00 | 0.00 | 0.00 | 67 | 1019.9 |
| 20260510101426 | 11 | 360 | 22.5 | 30.6 | 0.00 | 0.00 | 0.00 | 67 | 1019.8 |
| 20260510101324 | 11 | 360 | 20.9 | 30.6 | 0.00 | 0.00 | 0.00 | 67 | 1019.8 |
| 20260510101219 | 11 | 360 | 22.5 | 30.6 | 0.00 | 0.00 | 0.00 | 67 | 1019.8 |
| 20260510101137 | 11 | 360 | 20.9 | 27.4 | 0.00 | 0.00 | 0.00 | 67 | 1019.8 |
| 20260510101054 | 11 | 360 | 20.9 | 27.4 | 0.00 | 0.00 | 0.00 | 67 | 1019.8 |
| 20260510100932 | 11 | 360 | 19.3 | 27.4 | 0.00 | 0.00 | 0.00 | 67 | 1019.8 |
| 20260510100850 | 11 | 360 | 17.7 | 27.4 | 0.00 | 0.00 | 0.00 | 66 | 1019.8 |
| 20260510100755 | 11 | 360 | 17.7 | 27.4 | 0.00 | 0.00 | 0.00 | 66 | 1019.8 |
| 20260510100631 | 12 | 360 | 17.7 | 27.4 | 0.00 | 0.00 | 0.00 | 66 | 1019.9 |
| 20260510100528 | 12 | 360 | 19.3 | 27.4 | 0.00 | 0.00 | 0.00 | 66 | 1019.7 |
| 20260510100425 | 12 | 360 | 20.9 | 27.4 | 0.00 | 0.00 | 0.00 | 66 | 1019.8 |
| 20260510100324 | 12 | 360 | 20.9 | 27.4 | 0.00 | 0.00 | 0.00 | 66 | 1019.7 |
| 20260510100221 | 12 | 360 | 19.3 | 27.4 | 0.00 | 0.00 | 0.00 | 66 | 1019.7 |
| 20260510100118 | 12 | 360 | 17.7 | 29.0 | 0.00 | 0.00 | 0.00 | 66 | 1019.6 |
| 20260510100016 | 12 | 360 | 20.9 | 29.0 | 0.00 | 0.00 | 0.00 | 66 | 1019.6 |
| 20260510095936 | 12 | 360 | 22.5 | 29.0 | 0.00 | 0.00 | 0.00 | 66 | 1019.5 |
| 20260510095834 | 12 | 360 | 20.9 | 29.0 | 0.00 | 0.00 | 0.00 | 66 | 1019.5 |
| 20260510095733 | 12 | 360 | 20.9 | 30.6 | 0.00 | 0.00 | 0.00 | 66 | 1019.5 |
| 20260510095630 | 12 | 360 | 20.9 | 32.2 | 0.00 | 0.00 | 0.00 | 66 | 1019.4 |
| 20260510095544 | 12 | 360 | 22.5 | 32.2 | 0.00 | 0.00 | 0.00 | 66 | 1019.3 |
| 20260510095420 | 12 | 360 | 22.5 | 32.2 | 0.00 | 0.00 | 0.00 | 66 | 1019.3 |
| 20260510095338 | 12 | 360 | 22.5 | 32.2 | 0.00 | 0.00 | 0.00 | 66 | 1019.3 |
| 20260510095218 | 12 | 360 | 22.5 | 33.8 | 0.00 | 0.00 | 0.00 | 66 | 1019.3 |
| 20260510095135 | 12 | 360 | 22.5 | 33.8 | 0.00 | 0.00 | 0.00 | 66 | 1019.2 |
| 20260510095032 | 12 | 360 | 22.5 | 33.8 | 0.00 | 0.00 | 0.00 | 66 | 1019.2 |
| 20260510094929 | 12 | 360 | 24.1 | 33.8 | 0.00 | 0.00 | 0.00 | 66 | 1019.2 |
| 20260510094826 | 12 | 360 | 24.1 | 33.8 | 0.00 | 0.00 | 0.00 | 66 | 1019.2 |
| 20260510094743 | 12 | 360 | 24.1 | 33.8 | 0.00 | 0.00 | 0.00 | 66 | 1019.1 |
| 20260510094700 | 12 | 360 | 22.5 | 33.8 | 0.00 | 0.00 | 0.00 | 66 | 1019.1 |
| 20260510094534 | 12 | 360 | 22.5 | 33.8 | 0.00 | 0.00 | 0.00 | 65 | 1019.0 |
| 20260510094430 | 12 | 360 | 25.7 | 33.8 | 0.00 | 0.00 | 0.00 | 65 | 1019.0 |
| 20260510094330 | 12 | 360 | 25.7 | 33.8 | 0.00 | 0.00 | 0.00 | 65 | 1019.0 |
| 20260510094229 | 12 | 360 | 25.7 | 33.8 | 0.00 | 0.00 | 0.00 | 66 | 1019.0 |
| 20260510094126 | 12 | 360 | 25.7 | 33.8 | 0.00 | 0.00 | 0.00 | 65 | 1018.9 |
| 20260510094020 | 12 | 360 | 24.1 | 33.8 | 0.00 | 0.00 | 0.00 | 66 | 1019.0 |
| 20260510093920 | 12 | 360 | 25.7 | 37.0 | 0.00 | 0.00 | 0.00 | 66 | 1018.9 |
| 20260510093817 | 12 | 360 | 25.7 | 37.0 | 0.00 | 0.00 | 0.00 | 65 | 1018.9 |
| 20260510093716 | 12 | 360 | 25.7 | 37.0 | 0.00 | 0.00 | 0.00 | 65 | 1018.9 |
| 20260510093613 | 12 | 360 | 25.7 | 37.0 | 0.00 | 0.00 | 0.00 | 65 | 1018.8 |
| 20260510093514 | 12 | 360 | 25.7 | 37.0 | 0.00 | 0.00 | 0.00 | 65 | 1018.7 |
| 20260510093417 | 12 | 360 | 24.1 | 37.0 | 0.00 | 0.00 | 0.00 | 65 | 1018.6 |
| 20260510093335 | 12 | 360 | 24.1 | 37.0 | 0.00 | 0.00 | 0.00 | 65 | 1018.7 |
| 20260510093232 | 12 | 360 | 24.1 | 37.0 | 0.00 | 0.00 | 0.00 | 65 | 1018.7 |
| 20260510093132 | 12 | 360 | 27.4 | 37.0 | 0.00 | 0.00 | 0.00 | 66 | 1018.6 |
| 20260510093028 | 12 | 360 | 27.4 | 37.0 | 0.00 | 0.00 | 0.00 | 65 | 1018.6 |
| 20260510092945 | 12 | 360 | 24.1 | 37.0 | 0.00 | 0.00 | 0.00 | 65 | 1018.6 |
| 20260510092824 | 12 | 360 | 24.1 | 37.0 | 0.00 | 0.00 | 0.00 | 65 | 1018.5 |
| 20260510092740 | 12 | 360 | 25.7 | 37.0 | 0.00 | 0.00 | 0.00 | 65 | 1018.5 |
| 20260510092620 | 12 | 360 | 27.4 | 37.0 | 0.00 | 0.00 | 0.00 | 65 | 1018.4 |
| 20260510092535 | 12 | 360 | 29.0 | 37.0 | 0.00 | 0.00 | 0.00 | 65 | 1018.4 |
| 20260510092433 | 12 | 360 | 29.0 | 37.0 | 0.00 | 0.00 | 0.00 | 65 | 1018.5 |
| 20260510092333 | 12 | 360 | 25.7 | 37.0 | 0.00 | 0.00 | 0.00 | 65 | 1018.5 |
| 20260510092230 | 12 | 360 | 27.4 | 37.0 | 0.00 | 0.00 | 0.00 | 65 | 1018.4 |
| 20260510092127 | 12 | 360 | 29.0 | 37.0 | 0.00 | 0.00 | 0.00 | 65 | 1018.5 |
| 20260510092020 | 12 | 360 | 27.4 | 37.0 | 0.00 | 0.00 | 0.00 | 65 | 1018.4 |
| 20260510091924 | 12 | 360 | 29.0 | 37.0 | 0.00 | 0.00 | 0.00 | 65 | 1018.4 |
| 20260510091822 | 12 | 360 | 27.4 | 37.0 | 0.00 | 0.00 | 0.00 | 65 | 1018.5 |
| 20260510091719 | 12 | 360 | 27.4 | 37.0 | 0.00 | 0.00 | 0.00 | 65 | 1018.4 |
| 20260510091619 | 12 | 360 | 27.4 | 37.0 | 0.00 | 0.00 | 0.00 | 65 | 1018.5 |
| 20260510091513 | 12 | 360 | 29.0 | 38.6 | 0.00 | 0.00 | 0.00 | 65 | 1018.5 |
| 20260510091434 | 12 | 360 | 29.0 | 40.2 | 0.00 | 0.00 | 0.00 | 65 | 1018.5 |
| 20260510091320 | 12 | 360 | 27.4 | 40.2 | 0.00 | 0.00 | 0.00 | 65 | 1018.5 |
| 20260510091237 | 12 | 360 | 27.4 | 40.2 | 0.00 | 0.00 | 0.00 | 65 | 1018.5 |
| 20260510091133 | 12 | 360 | 25.7 | 40.2 | 0.00 | 0.00 | 0.00 | 65 | 1018.5 |
| 20260510091026 | 12 | 360 | 29.0 | 40.2 | 0.00 | 0.00 | 0.00 | 65 | 1018.6 |
| 20260510090924 | 12 | 360 | 30.6 | 40.2 | 0.00 | 0.00 | 0.00 | 65 | 1018.4 |
| 20260510090823 | 12 | 360 | 29.0 | 40.2 | 0.00 | 0.00 | 0.00 | 65 | 1018.4 |
| 20260510090721 | 12 | 360 | 29.0 | 40.2 | 0.00 | 0.00 | 0.00 | 65 | 1018.5 |
| 20260510090638 | 12 | 360 | 30.6 | 40.2 | 0.00 | 0.00 | 0.00 | 65 | 1018.6 |
| 20260510090552 | 12 | 360 | 29.0 | 40.2 | 0.00 | 0.00 | 0.00 | 65 | 1018.5 |
| 20260510090432 | 12 | 360 | 27.4 | 40.2 | 0.00 | 0.00 | 0.00 | 65 | 1018.5 |
| 20260510090331 | 12 | 360 | 27.4 | 40.2 | 0.00 | 0.00 | 0.00 | 65 | 1018.4 |
| 20260510090232 | 12 | 360 | 29.0 | 43.5 | 0.00 | 0.00 | 0.00 | 65 | 1018.5 |
| 20260510090129 | 12 | 360 | 32.2 | 45.1 | 0.00 | 0.00 | 0.00 | 65 | 1018.5 |
| 20260510090021 | 12 | 360 | 32.2 | 45.1 | 0.00 | 0.00 | 0.00 | 65 | 1018.4 |
| 20260510085918 | 12 | 360 | 32.2 | 45.1 | 0.00 | 0.00 | 0.00 | 65 | 1018.4 |
| 20260510085838 | 12 | 360 | 32.2 | 45.1 | 0.00 | 0.00 | 0.00 | 64 | 1018.4 |
| 20260510085734 | 12 | 360 | 32.2 | 45.1 | 0.00 | 0.00 | 0.00 | 64 | 1018.3 |
| 20260510085630 | 12 | 360 | 29.0 | 45.1 | 0.00 | 0.00 | 0.00 | 64 | 1018.3 |
| 20260510085528 | 12 | 360 | 29.0 | 45.1 | 0.00 | 0.00 | 0.00 | 64 | 1018.3 |
| 20260510085426 | 12 | 360 | 32.2 | 45.1 | 0.00 | 0.00 | 0.00 | 64 | 1018.3 |
| 20260510085343 | 12 | 360 | 33.8 | 45.1 | 0.00 | 0.00 | 0.00 | 64 | 1018.3 |
| 20260510085222 | 12 | 360 | 35.4 | 45.1 | 0.00 | 0.00 | 0.00 | 64 | 1018.3 |
| 20260510085139 | 12 | 360 | 33.8 | 43.5 | 0.00 | 0.00 | 0.00 | 64 | 1018.3 |
| 20260510085052 | 12 | 360 | 33.8 | 43.5 | 0.00 | 0.00 | 0.00 | 64 | 1018.3 |
| 20260510084947 | 12 | 360 | 33.8 | 43.5 | 0.00 | 0.00 | 0.00 | 64 | 1018.2 |
| 20260510084824 | 12 | 360 | 33.8 | 46.7 | 0.00 | 0.00 | 0.00 | 63 | 1018.3 |
| 20260510084723 | 12 | 360 | 35.4 | 46.7 | 0.00 | 0.00 | 0.00 | 63 | 1018.2 |
| 20260510084623 | 12 | 360 | 32.2 | 46.7 | 0.00 | 0.00 | 0.00 | 63 | 1018.2 |
| 20260510084537 | 12 | 360 | 30.6 | 46.7 | 0.00 | 0.00 | 0.00 | 63 | 1018.1 |
| 20260510084433 | 12 | 360 | 30.6 | 46.7 | 0.00 | 0.00 | 0.00 | 63 | 1018.2 |
| 20260510084331 | 12 | 360 | 32.2 | 46.7 | 0.00 | 0.00 | 0.00 | 63 | 1018.2 |
| 20260510084228 | 12 | 360 | 33.8 | 49.9 | 0.00 | 0.00 | 0.00 | 63 | 1018.1 |
| 20260510084125 | 12 | 360 | 33.8 | 49.9 | 0.00 | 0.00 | 0.00 | 63 | 1018.1 |
| 20260510084038 | 12 | 360 | 33.8 | 49.9 | 0.00 | 0.00 | 0.00 | 63 | 1018.1 |
| 20260510083934 | 12 | 360 | 33.8 | 49.9 | 0.00 | 0.00 | 0.00 | 63 | 1018.1 |
| 20260510083832 | 13 | 360 | 32.2 | 49.9 | 0.00 | 0.00 | 0.00 | 63 | 1018.0 |
| 20260510083731 | 13 | 360 | 33.8 | 49.9 | 0.00 | 0.00 | 0.00 | 63 | 1018.0 |
| 20260510083654 | 13 | 360 | 35.4 | 49.9 | 0.00 | 0.00 | 0.00 | 63 | 1018.0 |
| 20260510083528 | 13 | 360 | 38.6 | 49.9 | 0.00 | 0.00 | 0.00 | 62 | 1018.0 |
| 20260510083424 | 13 | 360 | 37.0 | 49.9 | 0.00 | 0.00 | 0.00 | 62 | 1018.0 |
| 20260510083326 | 13 | 360 | 37.0 | 49.9 | 0.00 | 0.00 | 0.00 | 62 | 1018.1 |
| 20260510083242 | 13 | 360 | 33.8 | 49.9 | 0.00 | 0.00 | 0.00 | 62 | 1018.1 |
| 20260510083138 | 13 | 360 | 30.6 | 49.9 | 0.00 | 0.00 | 0.00 | 62 | 1018.0 |
| 20260510083035 | 13 | 360 | 32.2 | 49.9 | 0.00 | 0.00 | 0.00 | 62 | 1018.0 |
| 20260510082952 | 13 | 360 | 35.4 | 49.9 | 0.00 | 0.00 | 0.00 | 62 | 1017.9 |
| 20260510082829 | 13 | 360 | 38.6 | 49.9 | 0.00 | 0.00 | 0.00 | 62 | 1017.9 |
| 20260510082729 | 13 | 360 | 40.2 | 49.9 | 0.00 | 0.00 | 0.00 | 62 | 1017.9 |
| 20260510082629 | 13 | 360 | 40.2 | 49.9 | 0.00 | 0.00 | 0.00 | 62 | 1017.9 |
| 20260510082523 | 13 | 360 | 37.0 | 49.9 | 0.00 | 0.00 | 0.00 | 62 | 1017.9 |
| 20260510082420 | 13 | 360 | 37.0 | 53.1 | 0.00 | 0.00 | 0.00 | 62 | 1018.0 |
| 20260510082319 | 13 | 360 | 38.6 | 53.1 | 0.00 | 0.00 | 0.00 | 62 | 1017.7 |
| 20260510082216 | 13 | 360 | 38.6 | 53.1 | 0.00 | 0.00 | 0.00 | 62 | 1017.9 |
| 20260510082133 | 13 | 360 | 38.6 | 53.1 | 0.00 | 0.00 | 0.00 | 62 | 1017.7 |
| 20260510082031 | 13 | 360 | 38.6 | 53.1 | 0.00 | 0.00 | 0.00 | 62 | 1017.8 |
| 20260510081928 | 13 | 360 | 37.0 | 53.1 | 0.00 | 0.00 | 0.00 | 62 | 1017.8 |
| 20260510081830 | 13 | 360 | 38.6 | 53.1 | 0.00 | 0.00 | 0.00 | 62 | 1017.5 |
| 20260510081727 | 13 | 360 | 38.6 | 53.1 | 0.00 | 0.00 | 0.00 | 62 | 1017.6 |
| 20260510081627 | 13 | 360 | 38.6 | 53.1 | 0.00 | 0.00 | 0.00 | 62 | 1017.7 |
| 20260510081521 | 13 | 360 | 37.0 | 53.1 | 0.00 | 0.00 | 0.00 | 63 | 1017.6 |
| 20260510081441 | 13 | 360 | 38.6 | 51.5 | 0.00 | 0.00 | 0.00 | 63 | 1017.6 |
| 20260510081321 | 13 | 360 | 37.0 | 51.5 | 0.00 | 0.00 | 0.00 | 63 | 1017.6 |
| 20260510081241 | 13 | 360 | 35.4 | 51.5 | 0.00 | 0.00 | 0.00 | 63 | 1017.7 |
| 20260510081117 | 13 | 360 | 35.4 | 51.5 | 0.00 | 0.00 | 0.00 | 63 | 1017.6 |
| 20260510081017 | 13 | 360 | 37.0 | 51.5 | 0.00 | 0.00 | 0.00 | 63 | 1017.6 |
| 20260510080935 | 13 | 360 | 38.6 | 51.5 | 0.00 | 0.00 | 0.00 | 63 | 1017.7 |
| 20260510080832 | 13 | 360 | 38.6 | 51.5 | 0.00 | 0.00 | 0.00 | 63 | 1017.6 |
| 20260510080729 | 13 | 360 | 38.6 | 51.5 | 0.00 | 0.00 | 0.00 | 64 | 1017.7 |
| 20260510080625 | 13 | 360 | 35.4 | 46.7 | 0.00 | 0.00 | 0.00 | 64 | 1017.6 |
| 20260510080524 | 13 | 360 | 35.4 | 45.1 | 0.00 | 0.00 | 0.00 | 64 | 1017.6 |
| 20260510080422 | 13 | 360 | 35.4 | 45.1 | 0.00 | 0.00 | 0.00 | 64 | 1017.6 |
| 20260510080321 | 13 | 360 | 33.8 | 45.1 | 0.00 | 0.00 | 0.00 | 64 | 1017.5 |
| 20260510080218 | 13 | 360 | 32.2 | 45.1 | 0.00 | 0.00 | 0.00 | 64 | 1017.6 |
| 20260510080115 | 13 | 360 | 32.2 | 45.1 | 0.00 | 0.00 | 0.00 | 64 | 1017.6 |
| 20260510080032 | 13 | 360 | 33.8 | 45.1 | 0.00 | 0.00 | 0.00 | 64 | 1017.7 |
| 20260510075929 | 13 | 360 | 35.4 | 51.5 | 0.00 | 0.00 | 0.00 | 64 | 1017.8 |
| 20260510075834 | 13 | 360 | 33.8 | 51.5 | 0.00 | 0.00 | 0.00 | 64 | 1017.7 |
| 20260510075754 | 13 | 360 | 30.6 | 51.5 | 0.00 | 0.00 | 0.00 | 64 | 1017.8 |
| 20260510075631 | 13 | 360 | 32.2 | 51.5 | 0.00 | 0.00 | 0.00 | 64 | 1017.9 |
| 20260510075525 | 13 | 360 | 32.2 | 51.5 | 0.00 | 0.00 | 0.00 | 64 | 1017.9 |
| 20260510075445 | 13 | 360 | 32.2 | 51.5 | 0.00 | 0.00 | 0.00 | 64 | 1017.8 |
| 20260510075322 | 13 | 360 | 33.8 | 51.5 | 0.00 | 0.00 | 0.00 | 64 | 1017.7 |
| 20260510075220 | 13 | 360 | 35.4 | 51.5 | 0.00 | 0.00 | 0.00 | 64 | 1017.7 |
| 20260510075119 | 13 | 360 | 38.6 | 51.5 | 0.00 | 0.00 | 0.00 | 64 | 1017.6 |
| 20260510075034 | 13 | 360 | 37.0 | 51.5 | 0.00 | 0.00 | 0.00 | 64 | 1017.6 |
| 20260510074950 | 13 | 360 | 33.8 | 51.5 | 0.00 | 0.00 | 0.00 | 64 | 1017.6 |
| 20260510074831 | 13 | 360 | 33.8 | 51.5 | 0.00 | 0.00 | 0.00 | 64 | 1017.5 |
| 20260510074727 | 13 | 360 | 35.4 | 51.5 | 0.00 | 0.00 | 0.00 | 64 | 1017.6 |
| 20260510074624 | 13 | 360 | 38.6 | 51.5 | 0.00 | 0.00 | 0.00 | 64 | 1017.6 |
| 20260510074521 | 13 | 360 | 35.4 | 54.7 | 0.00 | 0.00 | 0.00 | 64 | 1017.5 |
| 20260510074418 | 13 | 360 | 35.4 | 54.7 | 0.00 | 0.00 | 0.00 | 64 | 1017.4 |
| 20260510074320 | 13 | 360 | 37.0 | 54.7 | 0.00 | 0.00 | 0.00 | 64 | 1017.3 |
| 20260510074220 | 13 | 360 | 38.6 | 54.7 | 0.00 | 0.00 | 0.00 | 64 | 1017.4 |
| 20260510074120 | 13 | 360 | 41.8 | 54.7 | 0.00 | 0.00 | 0.00 | 64 | 1017.4 |
| 20260510074034 | 13 | 360 | 38.6 | 54.7 | 0.00 | 0.00 | 0.00 | 64 | 1017.4 |
| 20260510073950 | 13 | 360 | 37.0 | 57.9 | 0.00 | 0.00 | 0.00 | 64 | 1017.3 |
| 20260510073827 | 13 | 360 | 40.2 | 57.9 | 0.00 | 0.00 | 0.00 | 63 | 1017.3 |
| 20260510073746 | 13 | 360 | 40.2 | 57.9 | 0.00 | 0.00 | 0.00 | 63 | 1017.3 |
| 20260510073642 | 13 | 360 | 40.2 | 57.9 | 0.00 | 0.00 | 0.00 | 63 | 1017.2 |
| 20260510073534 | 13 | 360 | 37.0 | 57.9 | 0.00 | 0.00 | 0.00 | 63 | 1017.2 |
| 20260510073431 | 13 | 360 | 33.8 | 57.9 | 0.00 | 0.00 | 0.00 | 63 | 1017.1 |
| 20260510073349 | 13 | 360 | 35.4 | 57.9 | 0.00 | 0.00 | 0.00 | 63 | 1017.2 |
| 20260510073228 | 13 | 360 | 38.6 | 57.9 | 0.00 | 0.00 | 0.00 | 63 | 1017.2 |
| 20260510073125 | 13 | 360 | 40.2 | 57.9 | 0.00 | 0.00 | 0.00 | 63 | 1017.1 |
| 20260510073022 | 13 | 360 | 38.6 | 57.9 | 0.00 | 0.00 | 0.00 | 63 | 1017.0 |
| 20260510072919 | 13 | 360 | 37.0 | 51.5 | 0.00 | 0.00 | 0.00 | 63 | 1017.1 |
| 20260510072822 | 13 | 360 | 38.6 | 51.5 | 0.00 | 0.00 | 0.00 | 63 | 1017.2 |
| 20260510072718 | 13 | 360 | 33.8 | 43.5 | 0.00 | 0.00 | 0.00 | 63 | 1017.3 |
| 20260510072635 | 13 | 360 | 32.2 | 46.7 | 0.00 | 0.00 | 0.00 | 62 | 1017.4 |
| 20260510072556 | 14 | 360 | 32.2 | 46.7 | 0.00 | 0.00 | 0.00 | 62 | 1017.4 |
| 20260510072432 | 14 | 360 | 33.8 | 48.3 | 0.00 | 0.00 | 0.00 | 62 | 1017.5 |
| 20260510072330 | 14 | 360 | 35.4 | 48.3 | 0.00 | 0.00 | 0.00 | 62 | 1017.4 |
| 20260510072230 | 14 | 360 | 33.8 | 51.5 | 0.00 | 0.00 | 0.00 | 62 | 1017.4 |
| 20260510072126 | 14 | 360 | 33.8 | 51.5 | 0.00 | 0.00 | 0.00 | 62 | 1017.4 |
| 20260510072021 | 14 | 360 | 33.8 | 54.7 | 0.00 | 0.00 | 0.00 | 62 | 1017.4 |
| 20260510071925 | 14 | 360 | 32.2 | 54.7 | 0.00 | 0.00 | 0.00 | 62 | 1017.4 |
| 20260510071827 | 14 | 360 | 33.8 | 54.7 | 0.00 | 0.00 | 0.00 | 62 | 1017.2 |
| 20260510071722 | 14 | 360 | 32.2 | 54.7 | 0.00 | 0.00 | 0.00 | 62 | 1017.0 |
| 20260510071623 | 14 | 360 | 35.4 | 56.3 | 0.00 | 0.00 | 0.00 | 62 | 1016.9 |
| 20260510071517 | 14 | 360 | 38.6 | 56.3 | 0.00 | 0.00 | 0.00 | 61 | 1016.8 |
| 20260510071434 | 14 | 360 | 41.8 | 56.3 | 0.00 | 0.00 | 0.00 | 61 | 1016.7 |
| 20260510071331 | 14 | 360 | 40.2 | 56.3 | 0.00 | 0.00 | 0.00 | 61 | 1016.6 |
| 20260510071230 | 14 | 360 | 41.8 | 56.3 | 0.00 | 0.00 | 0.00 | 61 | 1016.4 |
| 20260510071126 | 14 | 360 | 46.7 | 56.3 | 0.00 | 0.00 | 0.00 | 61 | 1016.4 |
| 20260510071023 | 14 | 360 | 43.5 | 56.3 | 0.00 | 0.00 | 0.00 | 61 | 1016.3 |
| 20260510070923 | 14 | 360 | 40.2 | 56.3 | 0.00 | 0.00 | 0.00 | 61 | 1016.2 |
| 20260510070822 | 14 | 360 | 40.2 | 56.3 | 0.00 | 0.00 | 0.00 | 61 | 1016.5 |
| 20260510070718 | 14 | 360 | 40.2 | 56.3 | 0.00 | 0.00 | 0.00 | 61 | 1016.3 |
| 20260510070635 | 14 | 360 | 37.0 | 51.5 | 0.00 | 0.00 | 0.00 | 61 | 1016.5 |
| 20260510070553 | 14 | 360 | 38.6 | 51.5 | 0.00 | 0.00 | 0.00 | 61 | 1016.4 |
| 20260510070432 | 14 | 360 | 38.6 | 51.5 | 0.00 | 0.00 | 0.00 | 61 | 1016.4 |
| 20260510070330 | 15 | 360 | 40.2 | 51.5 | 0.00 | 0.00 | 0.00 | 61 | 1016.4 |
| 20260510070250 | 15 | 360 | 40.2 | 51.5 | 0.00 | 0.00 | 0.00 | 61 | 1016.5 |
| 20260510070152 | 15 | 360 | 40.2 | 51.5 | 0.00 | 0.00 | 0.00 | 61 | 1016.5 |
| 20260510070025 | 15 | 360 | 41.8 | 51.5 | 0.00 | 0.00 | 0.00 | 61 | 1016.6 |
| 20260510065922 | 15 | 360 | 40.2 | 51.5 | 0.00 | 0.00 | 0.00 | 61 | 1016.6 |
| 20260510065824 | 15 | 360 | 40.2 | 51.5 | 0.00 | 0.00 | 0.00 | 61 | 1016.7 |
| 20260510065721 | 15 | 360 | 37.0 | 51.5 | 0.00 | 0.00 | 0.00 | 61 | 1016.7 |
| 20260510065620 | 15 | 360 | 37.0 | 51.5 | 0.00 | 0.00 | 0.00 | 61 | 1016.8 |
| 20260510065534 | 15 | 360 | 40.2 | 51.5 | 0.00 | 0.00 | 0.00 | 61 | 1016.8 |
| 20260510065451 | 15 | 360 | 40.2 | 51.5 | 0.00 | 0.00 | 0.00 | 62 | 1016.8 |
| 20260510065314 | 15 | 360 | 40.2 | 51.5 | 0.00 | 0.00 | 0.00 | 62 | 1016.8 |
| 20260510065234 | 15 | 360 | 41.8 | 51.5 | 0.00 | 0.00 | 0.00 | 62 | 1016.7 |
| 20260510065131 | 15 | 360 | 40.2 | 51.5 | 0.00 | 0.00 | 0.00 | 62 | 1016.9 |
| 20260510065044 | 15 | 360 | 38.6 | 48.3 | 0.00 | 0.00 | 0.00 | 62 | 1016.7 |
| 20260510064919 | 15 | 360 | 38.6 | 53.1 | 0.00 | 0.00 | 0.00 | 62 | 1016.8 |
| 20260510064820 | 15 | 360 | 40.2 | 53.1 | 0.00 | 0.00 | 0.00 | 62 | 1016.7 |
| 20260510064736 | 15 | 360 | 38.6 | 53.1 | 0.00 | 0.00 | 0.00 | 62 | 1016.8 |
| 20260510064638 | 15 | 360 | 38.6 | 53.1 | 0.00 | 0.00 | 0.00 | 63 | 1016.8 |
| 20260510064552 | 15 | 360 | 35.4 | 53.1 | 0.00 | 0.00 | 0.00 | 63 | 1016.8 |
| 20260510064431 | 15 | 360 | 35.4 | 53.1 | 0.00 | 0.00 | 0.00 | 62 | 1016.9 |
| 20260510064332 | 15 | 360 | 33.8 | 53.1 | 0.00 | 0.00 | 0.00 | 62 | 1016.9 |
| 20260510064228 | 15 | 360 | 32.2 | 56.3 | 0.00 | 0.00 | 0.00 | 62 | 1016.9 |
| 20260510064148 | 15 | 360 | 38.6 | 56.3 | 0.00 | 0.00 | 0.00 | 62 | 1016.9 |
| 20260510064041 | 15 | 360 | 40.2 | 56.3 | 0.00 | 0.00 | 0.00 | 62 | 1017.0 |
| 20260510063917 | 15 | 360 | 38.6 | 56.3 | 0.00 | 0.00 | 0.00 | 62 | 1016.9 |
| 20260510063818 | 15 | 360 | 40.2 | 56.3 | 0.00 | 0.00 | 0.00 | 62 | 1017.0 |
| 20260510063718 | 15 | 360 | 41.8 | 56.3 | 0.00 | 0.00 | 0.00 | 62 | 1017.0 |
| 20260510063620 | 15 | 360 | 43.5 | 56.3 | 0.00 | 0.00 | 0.00 | 62 | 1017.0 |
| 20260510063535 | 15 | 360 | 43.5 | 56.3 | 0.00 | 0.00 | 0.00 | 62 | 1016.9 |
| 20260510063432 | 15 | 360 | 43.5 | 56.3 | 0.00 | 0.00 | 0.00 | 62 | 1016.9 |
| 20260510063333 | 15 | 360 | 43.5 | 56.3 | 0.00 | 0.00 | 0.00 | 62 | 1016.8 |
| 20260510063249 | 15 | 360 | 38.6 | 56.3 | 0.00 | 0.00 | 0.00 | 62 | 1016.8 |
| 20260510063125 | 15 | 360 | 40.2 | 56.3 | 0.00 | 0.00 | 0.00 | 62 | 1016.7 |
| 20260510063018 | 15 | 360 | 37.0 | 56.3 | 0.00 | 0.00 | 0.00 | 62 | 1016.6 |
| 20260510062922 | 15 | 360 | 37.0 | 53.1 | 0.00 | 0.00 | 0.00 | 62 | 1016.8 |
| 20260510062821 | 15 | 360 | 41.8 | 53.1 | 0.00 | 0.00 | 0.00 | 62 | 1016.7 |
| 20260510062737 | 15 | 360 | 41.8 | 53.1 | 0.00 | 0.00 | 0.00 | 62 | 1016.6 |
| 20260510062633 | 15 | 360 | 41.8 | 53.1 | 0.00 | 0.00 | 0.00 | 62 | 1016.7 |
| 20260510062530 | 15 | 360 | 45.1 | 53.1 | 0.00 | 0.00 | 0.00 | 62 | 1016.6 |
| 20260510062427 | 15 | 360 | 40.2 | 53.1 | 0.00 | 0.00 | 0.00 | 62 | 1016.6 |
| 20260510062326 | 15 | 360 | 40.2 | 53.1 | 0.00 | 0.00 | 0.00 | 62 | 1016.6 |
| 20260510062221 | 15 | 360 | 38.6 | 53.1 | 0.00 | 0.00 | 0.00 | 62 | 1016.6 |
| 20260510062141 | 15 | 360 | 37.0 | 53.1 | 0.00 | 0.00 | 0.00 | 62 | 1016.7 |
| 20260510062037 | 15 | 360 | 35.4 | 49.9 | 0.00 | 0.00 | 0.00 | 62 | 1016.5 |
| 20260510061933 | 15 | 360 | 37.0 | 49.9 | 0.00 | 0.00 | 0.00 | 62 | 1016.6 |
| 20260510061831 | 15 | 360 | 38.6 | 49.9 | 0.00 | 0.00 | 0.00 | 62 | 1016.6 |
| 20260510061726 | 15 | 360 | 38.6 | 49.9 | 0.00 | 0.00 | 0.00 | 62 | 1016.7 |
| 20260510061623 | 15 | 360 | 35.4 | 48.3 | 0.00 | 0.00 | 0.00 | 62 | 1016.6 |
| 20260510061519 | 15 | 360 | 35.4 | 48.3 | 0.00 | 0.00 | 0.00 | 62 | 1016.7 |
| 20260510061416 | 15 | 360 | 35.4 | 48.3 | 0.00 | 0.00 | 0.00 | 61 | 1016.7 |
| 20260510061315 | 15 | 360 | 35.4 | 43.5 | 0.00 | 0.00 | 0.00 | 61 | 1016.7 |
| 20260510061218 | 15 | 360 | 35.4 | 43.5 | 0.00 | 0.00 | 0.00 | 61 | 1016.7 |
| 20260510061116 | 15 | 360 | 33.8 | 43.5 | 0.00 | 0.00 | 0.00 | 61 | 1016.7 |
| 20260510061033 | 15 | 360 | 32.2 | 43.5 | 0.00 | 0.00 | 0.00 | 61 | 1016.8 |
| 20260510060929 | 15 | 360 | 30.6 | 43.5 | 0.00 | 0.00 | 0.00 | 61 | 1016.7 |
| 20260510060829 | 15 | 360 | 32.2 | 43.5 | 0.00 | 0.00 | 0.00 | 61 | 1016.7 |
| 20260510060725 | 15 | 360 | 32.2 | 43.5 | 0.00 | 0.00 | 0.00 | 61 | 1016.7 |
| 20260510060622 | 15 | 360 | 30.6 | 43.5 | 0.00 | 0.00 | 0.00 | 61 | 1016.5 |
| 20260510060519 | 15 | 360 | 29.0 | 43.5 | 0.00 | 0.00 | 0.00 | 61 | 1016.5 |
| 20260510060420 | 15 | 360 | 29.0 | 45.1 | 0.00 | 0.00 | 0.00 | 61 | 1016.4 |
| 20260510060318 | 15 | 360 | 27.4 | 46.7 | 0.00 | 0.00 | 0.00 | 61 | 1016.3 |
| 20260510060217 | 15 | 360 | 27.4 | 46.7 | 0.00 | 0.00 | 0.00 | 61 | 1016.2 |
| 20260510060134 | 15 | 360 | 29.0 | 46.7 | 0.00 | 0.00 | 0.00 | 61 | 1016.1 |
| 20260510060028 | 15 | 360 | 29.0 | 46.7 | 0.00 | 0.00 | 0.00 | 61 | 1016.0 |
| 20260510055935 | 15 | 360 | 32.2 | 46.7 | 0.00 | 0.00 | 0.00 | 61 | 1015.9 |
| 20260510055834 | 15 | 360 | 33.8 | 46.7 | 0.00 | 0.00 | 0.00 | 61 | 1016.0 |
| 20260510055754 | 15 | 360 | 33.8 | 46.7 | 0.00 | 0.00 | 0.00 | 61 | 1016.0 |
| 20260510055615 | 15 | 360 | 33.8 | 46.7 | 0.00 | 0.00 | 0.00 | 61 | 1015.9 |
| 20260510055532 | 15 | 360 | 37.0 | 46.7 | 0.00 | 0.00 | 0.00 | 61 | 1015.9 |
| 20260510055449 | 15 | 360 | 35.4 | 46.7 | 0.00 | 0.00 | 0.00 | 61 | 1015.8 |
| 20260510055327 | 15 | 360 | 33.8 | 46.7 | 0.00 | 0.00 | 0.00 | 61 | 1015.7 |
| 20260510055223 | 15 | 360 | 32.2 | 43.5 | 0.00 | 0.00 | 0.00 | 61 | 1015.6 |
| 20260510055123 | 15 | 360 | 30.6 | 43.5 | 0.00 | 0.00 | 0.00 | 61 | 1015.5 |
| 20260510055017 | 16 | 360 | 27.4 | 43.5 | 0.00 | 0.00 | 0.00 | 61 | 1015.4 |
| 20260510054916 | 16 | 360 | 30.6 | 43.5 | 0.00 | 0.00 | 0.00 | 61 | 1015.4 |
| 20260510054818 | 16 | 360 | 30.6 | 43.5 | 0.00 | 0.00 | 0.00 | 61 | 1015.4 |
| 20260510054734 | 16 | 360 | 32.2 | 43.5 | 0.00 | 0.00 | 0.00 | 60 | 1015.4 |
| 20260510054631 | 16 | 360 | 29.0 | 37.0 | 0.00 | 0.00 | 0.00 | 60 | 1015.3 |
| 20260510054545 | 16 | 360 | 27.4 | 37.0 | 0.00 | 0.00 | 0.00 | 60 | 1015.4 |
| 20260510054422 | 16 | 360 | 25.7 | 35.4 | 0.00 | 0.00 | 0.00 | 60 | 1015.4 |
| 20260510054320 | 16 | 360 | 25.7 | 35.4 | 0.00 | 0.00 | 0.00 | 60 | 1015.4 |
| 20260510054215 | 16 | 360 | 25.7 | 35.4 | 0.00 | 0.00 | 0.00 | 60 | 1015.4 |
| 20260510054117 | 16 | 360 | 25.7 | 35.4 | 0.00 | 0.00 | 0.00 | 59 | 1015.3 |
| 20260510054016 | 16 | 360 | 25.7 | 35.4 | 0.00 | 0.00 | 0.00 | 59 | 1015.2 |
| 20260510053935 | 16 | 360 | 25.7 | 35.4 | 0.00 | 0.00 | 0.00 | 59 | 1015.2 |
| 20260510053833 | 16 | 360 | 25.7 | 35.4 | 0.00 | 0.00 | 0.00 | 59 | 1015.2 |
| 20260510053731 | 16 | 360 | 29.0 | 35.4 | 0.00 | 0.00 | 0.00 | 59 | 1015.3 |
| 20260510053628 | 16 | 360 | 29.0 | 35.4 | 0.00 | 0.00 | 0.00 | 59 | 1015.3 |
| 20260510053541 | 16 | 360 | 24.1 | 35.4 | 0.00 | 0.00 | 0.00 | 59 | 1015.1 |
| 20260510053417 | 16 | 360 | 22.5 | 30.6 | 0.00 | 0.00 | 0.00 | 59 | 1015.2 |
| 20260510053315 | 16 | 360 | 22.5 | 30.6 | 0.00 | 0.00 | 0.00 | 58 | 1015.1 |
| 20260510053215 | 16 | 360 | 20.9 | 29.0 | 0.00 | 0.00 | 0.00 | 58 | 1015.0 |
| 20260510053141 | 16 | 360 | 19.3 | 25.7 | 0.00 | 0.00 | 0.00 | 58 | 1015.0 |
| 20260510053034 | 16 | 360 | 19.3 | 25.7 | 0.00 | 0.00 | 0.00 | 58 | 1014.9 |
| 20260510052931 | 16 | 360 | 19.3 | 25.7 | 0.00 | 0.00 | 0.00 | 58 | 1014.8 |
| 20260510052830 | 16 | 360 | 20.9 | 24.1 | 0.00 | 0.00 | 0.00 | 58 | 1014.7 |
| 20260510052746 | 16 | 360 | 19.3 | 24.1 | 0.00 | 0.00 | 0.00 | 58 | 1014.7 |
| 20260510052622 | 16 | 360 | 19.3 | 24.1 | 0.00 | 0.00 | 0.00 | 58 | 1014.6 |
| 20260510052518 | 16 | 360 | 17.7 | 22.5 | 0.00 | 0.00 | 0.00 | 58 | 1014.5 |
| 20260510052420 | 16 | 360 | 17.7 | 22.5 | 0.00 | 0.00 | 0.00 | 58 | 1014.5 |
| 20260510052324 | 16 | 360 | 17.7 | 22.5 | 0.00 | 0.00 | 0.00 | 58 | 1014.5 |
| 20260510052224 | 16 | 360 | 16.1 | 22.5 | 0.00 | 0.00 | 0.00 | 58 | 1014.4 |
| 20260510052121 | 16 | 360 | 17.7 | 22.5 | 0.00 | 0.00 | 0.00 | 58 | 1014.4 |
| 20260510052037 | 16 | 360 | 16.1 | 22.5 | 0.00 | 0.00 | 0.00 | 57 | 1014.4 |
| 20260510051934 | 16 | 360 | 16.1 | 22.5 | 0.00 | 0.00 | 0.00 | 57 | 1014.3 |
| 20260510051832 | 16 | 360 | 16.1 | 22.5 | 0.00 | 0.00 | 0.00 | 57 | 1014.3 |
| 20260510051729 | 16 | 360 | 16.1 | 22.5 | 0.00 | 0.00 | 0.00 | 57 | 1014.2 |
| 20260510051628 | 16 | 360 | 14.5 | 19.3 | 0.00 | 0.00 | 0.00 | 57 | 1014.2 |
| 20260510051522 | 16 | 360 | 14.5 | 19.3 | 0.00 | 0.00 | 0.00 | 57 | 1014.3 |
| 20260510051427 | 16 | 360 | 16.1 | 19.3 | 0.00 | 0.00 | 0.00 | 57 | 1014.4 |
| 20260510051329 | 16 | 360 | 16.1 | 19.3 | 0.00 | 0.00 | 0.00 | 57 | 1014.4 |
| 20260510051225 | 16 | 360 | 14.5 | 20.9 | 0.00 | 0.00 | 0.00 | 57 | 1014.4 |
| 20260510051124 | 16 | 360 | 16.1 | 20.9 | 0.00 | 0.00 | 0.00 | 57 | 1014.3 |
| 20260510051018 | 16 | 360 | 16.1 | 20.9 | 0.00 | 0.00 | 0.00 | 57 | 1014.2 |
| 20260510050916 | 16 | 360 | 16.1 | 20.9 | 0.00 | 0.00 | 0.00 | 56 | 1014.1 |
| 20260510050820 | 16 | 360 | 16.1 | 20.9 | 0.00 | 0.00 | 0.00 | 56 | 1014.1 |
| 20260510050719 | 16 | 360 | 16.1 | 20.9 | 0.00 | 0.00 | 0.00 | 56 | 1014.0 |
| 20260510050620 | 16 | 360 | 16.1 | 20.9 | 0.00 | 0.00 | 0.00 | 56 | 1014.0 |
| 20260510050534 | 16 | 360 | 16.1 | 20.9 | 0.00 | 0.00 | 0.00 | 56 | 1014.0 |
| 20260510050433 | 16 | 360 | 16.1 | 20.9 | 0.00 | 0.00 | 0.00 | 56 | 1014.0 |
| 20260510050334 | 16 | 360 | 16.1 | 20.9 | 0.00 | 0.00 | 0.00 | 56 | 1014.0 |
| 20260510050230 | 16 | 360 | 16.1 | 20.9 | 0.00 | 0.00 | 0.00 | 56 | 1013.9 |
| 20260510050127 | 16 | 360 | 16.1 | 20.9 | 0.00 | 0.00 | 0.00 | 56 | 1013.9 |
| 20260510050026 | 16 | 360 | 17.7 | 20.9 | 0.00 | 0.00 | 0.00 | 56 | 1013.9 |
| 20260510045943 | 16 | 360 | 17.7 | 20.9 | 0.00 | 0.00 | 0.00 | 56 | 1013.8 |
| 20260510045820 | 16 | 360 | 17.7 | 20.9 | 0.00 | 0.00 | 0.00 | 56 | 1013.8 |
| 20260510045739 | 16 | 360 | 17.7 | 20.9 | 0.00 | 0.00 | 0.00 | 55 | 1013.8 |
| 20260510045638 | 16 | 360 | 17.7 | 20.9 | 0.00 | 0.00 | 0.00 | 55 | 1013.7 |
| 20260510045532 | 16 | 360 | 17.7 | 20.9 | 0.00 | 0.00 | 0.00 | 55 | 1013.8 |
| 20260510045453 | 16 | 360 | 16.1 | 20.9 | 0.00 | 0.00 | 0.00 | 55 | 1013.8 |
| 20260510045332 | 16 | 360 | 16.1 | 20.9 | 0.00 | 0.00 | 0.00 | 55 | 1013.8 |
| 20260510045230 | 16 | 360 | 14.5 | 20.9 | 0.00 | 0.00 | 0.00 | 55 | 1013.8 |
| 20260510045126 | 16 | 360 | 14.5 | 20.9 | 0.00 | 0.00 | 0.00 | 55 | 1013.8 |
| 20260510045024 | 16 | 360 | 14.5 | 20.9 | 0.00 | 0.00 | 0.00 | 55 | 1013.8 |
| 20260510044948 | 16 | 360 | 14.5 | 20.9 | 0.00 | 0.00 | 0.00 | 55 | 1013.8 |
| 20260510044907 | 16 | 360 | 16.1 | 20.9 | 0.00 | 0.00 | 0.00 | 55 | 1013.8 |
| 20260510044743 | 16 | 360 | 14.5 | 20.9 | 0.00 | 0.00 | 0.00 | 55 | 1013.8 |
| 20260510044616 | 16 | 360 | 16.1 | 20.9 | 0.00 | 0.00 | 0.00 | 55 | 1013.9 |
| 20260510044534 | 16 | 360 | 16.1 | 20.9 | 0.00 | 0.00 | 0.00 | 55 | 1013.9 |
| 20260510044431 | 16 | 360 | 14.5 | 20.9 | 0.00 | 0.00 | 0.00 | 55 | 1013.9 |
| 20260510044352 | 16 | 360 | 14.5 | 22.5 | 0.00 | 0.00 | 0.00 | 55 | 1013.8 |
| 20260510044227 | 16 | 360 | 14.5 | 22.5 | 0.00 | 0.00 | 0.00 | 55 | 1013.8 |
| 20260510044129 | 16 | 360 | 14.5 | 22.5 | 0.00 | 0.00 | 0.00 | 55 | 1013.8 |
| 20260510044024 | 16 | 360 | 14.5 | 22.5 | 0.00 | 0.00 | 0.00 | 55 | 1013.8 |
| 20260510043921 | 16 | 360 | 14.5 | 22.5 | 0.00 | 0.00 | 0.00 | 54 | 1013.8 |
| 20260510043819 | 16 | 360 | 14.5 | 22.5 | 0.00 | 0.00 | 0.00 | 54 | 1013.9 |
| 20260510043735 | 16 | 360 | 14.5 | 22.5 | 0.00 | 0.00 | 0.00 | 54 | 1013.8 |
| 20260510043636 | 16 | 360 | 16.1 | 22.5 | 0.00 | 0.00 | 0.00 | 54 | 1013.9 |
| 20260510043533 | 16 | 360 | 17.7 | 22.5 | 0.00 | 0.00 | 0.00 | 54 | 1013.8 |
| 20260510043430 | 16 | 360 | 17.7 | 22.5 | 0.00 | 0.00 | 0.00 | 54 | 1013.9 |
| 20260510043334 | 16 | 360 | 16.1 | 20.9 | 0.00 | 0.00 | 0.00 | 54 | 1013.8 |
| 20260510043233 | 16 | 360 | 16.1 | 20.9 | 0.00 | 0.00 | 0.00 | 54 | 1013.9 |
| 20260510043131 | 16 | 360 | 14.5 | 20.9 | 0.00 | 0.00 | 0.00 | 54 | 1013.9 |
| 20260510043046 | 16 | 360 | 14.5 | 20.9 | 0.00 | 0.00 | 0.00 | 54 | 1013.9 |
| 20260510042925 | 16 | 360 | 14.5 | 20.9 | 0.00 | 0.00 | 0.00 | 54 | 1013.9 |
| 20260510042824 | 16 | 360 | 12.9 | 20.9 | 0.00 | 0.00 | 0.00 | 54 | 1013.9 |
| 20260510042742 | 16 | 360 | 12.9 | 20.9 | 0.00 | 0.00 | 0.00 | 54 | 1013.8 |
| 20260510042659 | 16 | 360 | 12.9 | 20.9 | 0.00 | 0.00 | 0.00 | 54 | 1013.8 |
| 20260510042535 | 16 | 360 | 14.5 | 20.9 | 0.00 | 0.00 | 0.00 | 54 | 1013.8 |
| 20260510042415 | 16 | 360 | 16.1 | 20.9 | 0.00 | 0.00 | 0.00 | 54 | 1013.8 |
| 20260510042317 | 16 | 360 | 16.1 | 24.1 | 0.00 | 0.00 | 0.00 | 54 | 1013.8 |
| 20260510042233 | 16 | 360 | 16.1 | 24.1 | 0.00 | 0.00 | 0.00 | 54 | 1013.7 |
| 20260510042130 | 16 | 360 | 16.1 | 24.1 | 0.00 | 0.00 | 0.00 | 54 | 1013.7 |
| 20260510042025 | 16 | 360 | 14.5 | 24.1 | 0.00 | 0.00 | 0.00 | 54 | 1013.6 |
| 20260510041921 | 17 | 360 | 16.1 | 24.1 | 0.00 | 0.00 | 0.00 | 54 | 1013.6 |
| 20260510041840 | 17 | 360 | 16.1 | 24.1 | 0.00 | 0.00 | 0.00 | 54 | 1013.6 |
| 20260510041735 | 17 | 360 | 16.1 | 24.1 | 0.00 | 0.00 | 0.00 | 54 | 1013.6 |
| 20260510041631 | 17 | 360 | 17.7 | 24.1 | 0.00 | 0.00 | 0.00 | 54 | 1013.5 |
| 20260510041530 | 17 | 360 | 17.7 | 29.0 | 0.00 | 0.00 | 0.00 | 54 | 1013.6 |
| 20260510041427 | 17 | 360 | 17.7 | 29.0 | 0.00 | 0.00 | 0.00 | 54 | 1013.5 |
| 20260510041326 | 17 | 360 | 17.7 | 30.6 | 0.00 | 0.00 | 0.00 | 54 | 1013.5 |
| 20260510041243 | 17 | 360 | 17.7 | 30.6 | 0.00 | 0.00 | 0.00 | 54 | 1013.5 |
| 20260510041200 | 17 | 360 | 17.7 | 30.6 | 0.00 | 0.00 | 0.00 | 54 | 1013.5 |
| 20260510041053 | 17 | 360 | 19.3 | 33.8 | 0.00 | 0.00 | 0.00 | 54 | 1013.5 |
| 20260510040930 | 17 | 360 | 17.7 | 33.8 | 0.00 | 0.00 | 0.00 | 54 | 1013.4 |
| 20260510040831 | 17 | 360 | 19.3 | 33.8 | 0.00 | 0.00 | 0.00 | 54 | 1013.4 |
| 20260510040731 | 17 | 360 | 20.9 | 33.8 | 0.00 | 0.00 | 0.00 | 54 | 1013.4 |
| 20260510040627 | 17 | 360 | 22.5 | 33.8 | 0.00 | 0.00 | 0.00 | 54 | 1013.4 |
| 20260510040521 | 17 | 360 | 22.5 | 33.8 | 0.00 | 0.00 | 0.00 | 54 | 1013.3 |
| 20260510040418 | 17 | 360 | 22.5 | 33.8 | 0.00 | 0.00 | 0.00 | 54 | 1013.2 |
| 20260510040319 | 17 | 360 | 22.5 | 33.8 | 0.00 | 0.00 | 0.00 | 54 | 1013.2 |
| 20260510040216 | 17 | 360 | 25.7 | 33.8 | 0.00 | 0.00 | 0.00 | 54 | 1013.2 |
| 20260510040133 | 17 | 360 | 24.1 | 33.8 | 0.00 | 0.00 | 0.00 | 54 | 1013.3 |
| 20260510040028 | 17 | 360 | 22.5 | 35.4 | 0.00 | 0.00 | 0.00 | 54 | 1013.3 |
| 20260510035934 | 17 | 360 | 20.9 | 35.4 | 0.00 | 0.00 | 0.00 | 54 | 1013.3 |
| 20260510035833 | 17 | 360 | 22.5 | 35.4 | 0.00 | 0.00 | 0.00 | 54 | 1013.2 |
| 20260510035729 | 17 | 360 | 22.5 | 35.4 | 0.00 | 0.00 | 0.00 | 53 | 1013.2 |
| 20260510035629 | 17 | 360 | 24.1 | 35.4 | 0.00 | 0.00 | 0.00 | 53 | 1013.2 |
| 20260510035544 | 17 | 360 | 25.7 | 35.4 | 0.00 | 0.00 | 0.00 | 53 | 1013.2 |
| 20260510035422 | 17 | 360 | 25.7 | 35.4 | 0.00 | 0.00 | 0.00 | 53 | 1013.2 |
| 20260510035323 | 17 | 360 | 27.4 | 35.4 | 0.00 | 0.00 | 0.00 | 53 | 1013.2 |
| 20260510035220 | 17 | 360 | 29.0 | 35.4 | 0.00 | 0.00 | 0.00 | 53 | 1013.2 |
| 20260510035117 | 17 | 360 | 27.4 | 35.4 | 0.00 | 0.00 | 0.00 | 53 | 1013.2 |
| 20260510035018 | 17 | 360 | 25.7 | 41.8 | 0.00 | 0.00 | 0.00 | 53 | 1013.1 |
| 20260510034935 | 17 | 360 | 25.7 | 41.8 | 0.00 | 0.00 | 0.00 | 53 | 1013.1 |
| 20260510034833 | 17 | 360 | 25.7 | 41.8 | 0.00 | 0.00 | 0.00 | 53 | 1013.1 |
| 20260510034753 | 17 | 360 | 27.4 | 41.8 | 0.00 | 0.00 | 0.00 | 53 | 1013.1 |
| 20260510034632 | 17 | 360 | 27.4 | 45.1 | 0.00 | 0.00 | 0.00 | 53 | 1013.1 |
| 20260510034528 | 17 | 360 | 25.7 | 45.1 | 0.00 | 0.00 | 0.00 | 53 | 1013.1 |
| 20260510034445 | 17 | 360 | 25.7 | 45.1 | 0.00 | 0.00 | 0.00 | 53 | 1013.1 |
| 20260510034321 | 17 | 360 | 29.0 | 45.1 | 0.00 | 0.00 | 0.00 | 53 | 1013.0 |
| 20260510034223 | 18 | 360 | 30.6 | 46.7 | 0.00 | 0.00 | 0.00 | 53 | 1012.9 |
| 20260510034140 | 18 | 360 | 30.6 | 46.7 | 0.00 | 0.00 | 0.00 | 52 | 1012.9 |
| 20260510034034 | 18 | 360 | 32.2 | 46.7 | 0.00 | 0.00 | 0.00 | 52 | 1012.9 |
| 20260510033931 | 18 | 360 | 30.6 | 46.7 | 0.00 | 0.00 | 0.00 | 52 | 1012.8 |
| 20260510033832 | 18 | 360 | 32.2 | 46.7 | 0.00 | 0.00 | 0.00 | 52 | 1012.9 |
| 20260510033732 | 18 | 360 | 32.2 | 46.7 | 0.00 | 0.00 | 0.00 | 52 | 1012.8 |
| 20260510033630 | 18 | 360 | 33.8 | 46.7 | 0.00 | 0.00 | 0.00 | 52 | 1012.8 |
| 20260510033543 | 18 | 360 | 35.4 | 46.7 | 0.00 | 0.00 | 0.00 | 52 | 1012.9 |
| 20260510033440 | 18 | 360 | 37.0 | 46.7 | 0.00 | 0.00 | 0.00 | 52 | 1012.8 |
| 20260510033321 | 18 | 360 | 35.4 | 46.7 | 0.00 | 0.00 | 0.00 | 51 | 1012.9 |
| 20260510033218 | 18 | 360 | 33.8 | 45.1 | 0.00 | 0.00 | 0.00 | 51 | 1012.8 |
| 20260510033118 | 18 | 360 | 35.4 | 45.1 | 0.00 | 0.00 | 0.00 | 51 | 1012.7 |
| 20260510033032 | 18 | 360 | 33.8 | 45.1 | 0.00 | 0.00 | 0.00 | 51 | 1012.7 |
| 20260510032930 | 18 | 360 | 30.6 | 41.8 | 0.00 | 0.00 | 0.00 | 50 | 1012.7 |
| 20260510032829 | 18 | 360 | 30.6 | 41.8 | 0.00 | 0.00 | 0.00 | 50 | 1012.7 |
| 20260510032729 | 18 | 360 | 30.6 | 41.8 | 0.00 | 0.00 | 0.00 | 50 | 1012.7 |
| 20260510032625 | 18 | 360 | 30.6 | 40.2 | 0.00 | 0.00 | 0.00 | 50 | 1012.6 |
| 20260510032523 | 18 | 360 | 30.6 | 40.2 | 0.00 | 0.00 | 0.00 | 50 | 1012.7 |
| 20260510032440 | 18 | 360 | 30.6 | 40.2 | 0.00 | 0.00 | 0.00 | 50 | 1012.6 |
| 20260510032338 | 18 | 360 | 32.2 | 40.2 | 0.00 | 0.00 | 0.00 | 49 | 1012.7 |
| 20260510032235 | 18 | 360 | 32.2 | 40.2 | 0.00 | 0.00 | 0.00 | 49 | 1012.6 |
| 20260510032133 | 18 | 360 | 30.6 | 41.8 | 0.00 | 0.00 | 0.00 | 49 | 1012.6 |
| 20260510032027 | 18 | 360 | 30.6 | 41.8 | 0.00 | 0.00 | 0.00 | 49 | 1012.6 |
| 20260510031924 | 19 | 360 | 29.0 | 41.8 | 0.00 | 0.00 | 0.00 | 48 | 1012.6 |
| 20260510031824 | 19 | 360 | 27.4 | 41.8 | 0.00 | 0.00 | 0.00 | 47 | 1012.6 |
| 20260510031725 | 19 | 360 | 25.7 | 41.8 | 0.00 | 0.00 | 0.00 | 47 | 1012.6 |
| 20260510031623 | 19 | 360 | 27.4 | 45.1 | 0.00 | 0.00 | 0.00 | 47 | 1012.6 |
| 20260510031520 | 19 | 360 | 27.4 | 45.1 | 0.00 | 0.00 | 0.00 | 47 | 1012.6 |
| 20260510031417 | 19 | 34 | 30.6 | 45.1 | 0.00 | 0.00 | 0.00 | 46 | 1012.6 |
| 20260510031336 | 19 | 22 | 32.2 | 45.1 | 0.00 | 0.00 | 0.00 | 46 | 1012.6 |
| 20260510031231 | 19 | 45 | 33.8 | 45.1 | 0.00 | 0.00 | 0.00 | 46 | 1012.5 |
| 20260510031148 | 20 | 16 | 29.0 | 45.1 | 0.00 | 0.00 | 0.00 | 45 | 1012.6 |
| 20260510031025 | 20 | 49 | 27.4 | 45.1 | 0.00 | 0.00 | 0.00 | 45 | 1012.6 |
| 20260510030926 | 20 | 18 | 27.4 | 45.1 | 0.00 | 0.00 | 0.00 | 45 | 1012.5 |
| 20260510030827 | 20 | 45 | 32.2 | 45.1 | 0.00 | 0.00 | 0.00 | 45 | 1012.6 |
| 20260510030725 | 20 | 38 | 32.2 | 45.1 | 0.00 | 0.00 | 0.00 | 45 | 1012.6 |
| 20260510030621 | 20 | 51 | 29.0 | 38.6 | 0.00 | 0.00 | 0.00 | 44 | 1012.5 |
| 20260510030535 | 20 | 44 | 27.4 | 33.8 | 0.00 | 0.00 | 0.00 | 44 | 1012.5 |
| 20260510030433 | 20 | 36 | 24.1 | 40.2 | 0.00 | 0.00 | 0.00 | 43 | 1012.5 |
| 20260510030352 | 20 | 46 | 22.5 | 40.2 | 0.00 | 0.00 | 0.00 | 43 | 1012.5 |
| 20260510030228 | 20 | 55 | 22.5 | 40.2 | 0.00 | 0.00 | 0.00 | 43 | 1012.5 |
| 20260510030129 | 20 | 41 | 24.1 | 43.5 | 0.00 | 0.00 | 0.00 | 42 | 1012.4 |
| 20260510030023 | 20 | 44 | 22.5 | 43.5 | 0.00 | 0.00 | 0.00 | 42 | 1012.4 |
| 20260510025940 | 20 | 51 | 24.1 | 43.5 | 0.00 | 0.00 | 0.00 | 42 | 1012.3 |
| 20260510025825 | 20 | 44 | 27.4 | 43.5 | 0.00 | 0.00 | 0.00 | 41 | 1012.2 |
| 20260510025743 | 20 | 23 | 29.0 | 43.5 | 0.00 | 0.00 | 0.00 | 41 | 1012.1 |
| 20260510025640 | 20 | 26 | 30.6 | 43.5 | 0.00 | 0.00 | 0.00 | 41 | 1012.0 |
| 20260510025555 | 20 | 24 | 30.6 | 43.5 | 0.00 | 0.00 | 0.00 | 41 | 1012.0 |
| 20260510025431 | 20 | 26 | 30.6 | 43.5 | 0.00 | 0.00 | 0.00 | 40 | 1012.0 |
| 20260510025330 | 21 | 31 | 32.2 | 43.5 | 0.00 | 0.00 | 0.00 | 40 | 1011.9 |
| 20260510025254 | 21 | 40 | 32.2 | 43.5 | 0.00 | 0.00 | 0.00 | 40 | 1011.9 |
| 20260510025150 | 21 | 32 | 32.2 | 43.5 | 0.00 | 0.00 | 0.00 | 39 | 1011.9 |
| 20260510025024 | 21 | 40 | 33.8 | 43.5 | 0.00 | 0.00 | 0.00 | 39 | 1011.9 |
| 20260510024921 | 21 | 23 | 32.2 | 43.5 | 0.00 | 0.00 | 0.00 | 38 | 1011.8 |
| 20260510024819 | 21 | 38 | 32.2 | 43.5 | 0.00 | 0.00 | 0.00 | 38 | 1011.9 |
| 20260510024717 | 21 | 5 | 32.2 | 43.5 | 0.00 | 0.00 | 0.00 | 37 | 1011.7 |
| 20260510024616 | 21 | 41 | 30.6 | 43.5 | 0.00 | 0.00 | 0.00 | 37 | 1011.8 |
| 20260510024530 | 21 | 38 | 29.0 | 40.2 | 0.00 | 0.00 | 0.00 | 35 | 1011.7 |
| 20260510024419 | 21 | 34 | 27.4 | 40.2 | 0.00 | 0.00 | 0.00 | 35 | 1011.7 |
| 20260510024336 | 21 | 26 | 27.4 | 40.2 | 0.00 | 0.00 | 0.00 | 34 | 1011.7 |
| 20260510024233 | 21 | 20 | 27.4 | 40.2 | 0.00 | 0.00 | 0.00 | 33 | 1011.7 |
| 20260510024132 | 21 | 25 | 29.0 | 40.2 | 0.00 | 0.00 | 0.00 | 33 | 1011.6 |
| 20260510024026 | 21 | 32 | 30.6 | 40.2 | 0.00 | 0.00 | 0.00 | 33 | 1011.6 |
| 20260510023923 | 21 | 36 | 29.0 | 40.2 | 0.00 | 0.00 | 0.00 | 33 | 1011.5 |
| 20260510023842 | 21 | 25 | 27.4 | 35.4 | 0.00 | 0.00 | 0.00 | 33 | 1011.4 |
| 20260510023717 | 21 | 32 | 27.4 | 35.4 | 0.00 | 0.00 | 0.00 | 33 | 1011.4 |
| 20260510023640 | 21 | 15 | 27.4 | 35.4 | 0.00 | 0.00 | 0.00 | 34 | 1011.3 |
| 20260510023554 | 21 | 36 | 24.1 | 35.4 | 0.00 | 0.00 | 0.00 | 34 | 1011.3 |
| 20260510023429 | 21 | 34 | 19.3 | 27.4 | 0.00 | 0.00 | 0.00 | 33 | 1011.3 |
| 20260510023349 | 21 | 28 | 19.3 | 27.4 | 0.00 | 0.00 | 0.00 | 33 | 1011.2 |
| 20260510023227 | 21 | 31 | 19.3 | 25.7 | 0.00 | 0.00 | 0.00 | 33 | 1011.2 |
| 20260510023144 | 21 | 19 | 19.3 | 25.7 | 0.00 | 0.00 | 0.00 | 33 | 1011.2 |
| 20260510023018 | 21 | 21 | 19.3 | 25.7 | 0.00 | 0.00 | 0.00 | 33 | 1011.0 |
| 20260510022937 | 21 | 31 | 20.9 | 25.7 | 0.00 | 0.00 | 0.00 | 33 | 1011.0 |
| 20260510022818 | 21 | 28 | 20.9 | 25.7 | 0.00 | 0.00 | 0.00 | 33 | 1011.1 |
| 20260510022722 | 21 | 30 | 20.9 | 24.1 | 0.00 | 0.00 | 0.00 | 33 | 1011.0 |
| 20260510022619 | 20 | 19 | 19.3 | 24.1 | 0.00 | 0.00 | 0.00 | 33 | 1011.0 |
| 20260510022516 | 20 | 21 | 17.7 | 22.5 | 0.00 | 0.00 | 0.00 | 34 | 1011.0 |
| 20260510022434 | 20 | 31 | 17.7 | 22.5 | 0.00 | 0.00 | 0.00 | 34 | 1011.0 |
| 20260510022336 | 20 | 24 | 17.7 | 22.5 | 0.00 | 0.00 | 0.00 | 34 | 1010.9 |
| 20260510022234 | 20 | 27 | 17.7 | 22.5 | 0.00 | 0.00 | 0.00 | 33 | 1010.9 |
| 20260510022131 | 20 | 30 | 17.7 | 22.5 | 0.00 | 0.00 | 0.00 | 34 | 1010.9 |
| 20260510022031 | 20 | 32 | 16.1 | 19.3 | 0.00 | 0.00 | 0.00 | 34 | 1011.0 |
| 20260510021932 | 20 | 24 | 16.1 | 19.3 | 0.00 | 0.00 | 0.00 | 33 | 1011.0 |
| 20260510021833 | 20 | 28 | 16.1 | 19.3 | 0.00 | 0.00 | 0.00 | 34 | 1011.0 |
| 20260510021730 | 20 | 24 | 14.5 | 19.3 | 0.00 | 0.00 | 0.00 | 33 | 1011.0 |
| 20260510021632 | 20 | 35 | 12.9 | 19.3 | 0.00 | 0.00 | 0.00 | 33 | 1010.9 |
| 20260510021525 | 20 | 26 | 12.9 | 16.1 | 0.00 | 0.00 | 0.00 | 33 | 1010.9 |
| 20260510021442 | 20 | 41 | 11.3 | 14.5 | 0.00 | 0.00 | 0.00 | 33 | 1010.9 |
| 20260510021320 | 20 | 38 | 11.3 | 14.5 | 0.00 | 0.00 | 0.00 | 33 | 1010.9 |
| 20260510021219 | 20 | 21 | 11.3 | 14.5 | 0.00 | 0.00 | 0.00 | 33 | 1010.9 |
| 20260510021142 | 20 | 28 | 9.7 | 14.5 | 0.00 | 0.00 | 0.00 | 32 | 1010.8 |
| 20260510021034 | 20 | 27 | 9.7 | 16.1 | 0.00 | 0.00 | 0.00 | 32 | 1010.8 |
| 20260510020931 | 21 | 31 | 9.7 | 16.1 | 0.00 | 0.00 | 0.00 | 32 | 1010.7 |
| 20260510020831 | 21 | 38 | 9.7 | 16.1 | 0.00 | 0.00 | 0.00 | 32 | 1010.7 |
| 20260510020748 | 21 | 34 | 11.3 | 16.1 | 0.00 | 0.00 | 0.00 | 31 | 1010.7 |
| 20260510020645 | 21 | 33 | 11.3 | 16.1 | 0.00 | 0.00 | 0.00 | 31 | 1010.6 |
| 20260510020559 | 21 | 43 | 11.3 | 17.7 | 0.00 | 0.00 | 0.00 | 31 | 1010.6 |
| 20260510020435 | 21 | 43 | 12.9 | 17.7 | 0.00 | 0.00 | 0.00 | 31 | 1010.6 |
| 20260510020335 | 21 | 42 | 12.9 | 17.7 | 0.00 | 0.00 | 0.00 | 31 | 1010.5 |
| 20260510020231 | 21 | 43 | 12.9 | 17.7 | 0.00 | 0.00 | 0.00 | 31 | 1010.4 |
| 20260510020132 | 21 | 29 | 12.9 | 17.7 | 0.00 | 0.00 | 0.00 | 31 | 1010.4 |
| 20260510020051 | 21 | 34 | 12.9 | 17.7 | 0.00 | 0.00 | 0.00 | 30 | 1010.3 |
| 20260510020010 | 21 | 31 | 12.9 | 19.3 | 0.00 | 0.00 | 0.00 | 30 | 1010.3 |
| 20260510015908 | 21 | 21 | 14.5 | 19.3 | 0.00 | 0.00 | 0.00 | 30 | 1010.3 |
| 20260510015716 | 22 | 36 | 14.5 | 19.3 | 0.00 | 0.00 | 0.00 | 30 | 1010.2 |
| 20260510015612 | 22 | 27 | 14.5 | 19.3 | 0.00 | 0.00 | 0.00 | 30 | 1010.3 |
| 20260510015529 | 22 | 28 | 14.5 | 19.3 | 0.00 | 0.00 | 0.00 | 29 | 1010.1 |
| 20260510015427 | 22 | 24 | 14.5 | 19.3 | 0.00 | 0.00 | 0.00 | 29 | 1010.1 |
| 20260510015332 | 22 | 32 | 14.5 | 20.9 | 0.00 | 0.00 | 0.00 | 29 | 1010.1 |
| 20260510015250 | 22 | 29 | 14.5 | 20.9 | 0.00 | 0.00 | 0.00 | 29 | 1010.1 |
| 20260510015129 | 22 | 29 | 14.5 | 20.9 | 0.00 | 0.00 | 0.00 | 29 | 1010.0 |
| 20260510015024 | 22 | 24 | 14.5 | 20.9 | 0.00 | 0.00 | 0.00 | 29 | 1010.0 |
| 20260510014942 | 22 | 26 | 14.5 | 22.5 | 0.00 | 0.00 | 0.00 | 29 | 1010.0 |
| 20260510014823 | 22 | 35 | 16.1 | 22.5 | 0.00 | 0.00 | 0.00 | 28 | 1010.0 |
| 20260510014720 | 22 | 34 | 14.5 | 22.5 | 0.00 | 0.00 | 0.00 | 28 | 1009.9 |
| 20260510014616 | 22 | 36 | 16.1 | 22.5 | 0.00 | 0.00 | 0.00 | 28 | 1009.9 |
| 20260510014521 | 23 | 44 | 16.1 | 22.5 | 0.00 | 0.00 | 0.00 | 28 | 1009.9 |
| 20260510014419 | 23 | 31 | 16.1 | 22.5 | 0.00 | 0.00 | 0.00 | 28 | 1009.9 |
| 20260510014317 | 23 | 33 | 16.1 | 22.5 | 0.00 | 0.00 | 0.00 | 28 | 1009.9 |
| 20260510014235 | 23 | 28 | 16.1 | 22.5 | 0.00 | 0.00 | 0.00 | 28 | 1009.9 |
| 20260510014131 | 23 | 30 | 16.1 | 22.5 | 0.00 | 0.00 | 0.00 | 28 | 1009.8 |
| 20260510014028 | 23 | 25 | 16.1 | 22.5 | 0.00 | 0.00 | 0.00 | 28 | 1009.9 |
| 20260510013929 | 23 | 41 | 16.1 | 19.3 | 0.00 | 0.00 | 0.00 | 27 | 1009.8 |
| 20260510013832 | 23 | 35 | 16.1 | 20.9 | 0.00 | 0.00 | 0.00 | 27 | 1009.8 |
| 20260510013754 | 23 | 29 | 16.1 | 20.9 | 0.00 | 0.00 | 0.00 | 27 | 1009.8 |
| 20260510013631 | 23 | 29 | 14.5 | 20.9 | 0.00 | 0.00 | 0.00 | 27 | 1009.8 |
| 20260510013525 | 23 | 33 | 16.1 | 20.9 | 0.00 | 0.00 | 0.00 | 27 | 1009.8 |
| 20260510013442 | 23 | 25 | 16.1 | 22.5 | 0.00 | 0.00 | 0.00 | 27 | 1009.8 |
| 20260510013321 | 23 | 26 | 16.1 | 22.5 | 0.00 | 0.00 | 0.00 | 27 | 1009.8 |
| 20260510013216 | 23 | 33 | 16.1 | 22.5 | 0.00 | 0.00 | 0.00 | 26 | 1009.8 |
| 20260510013116 | 24 | 25 | 17.7 | 22.5 | 0.00 | 0.00 | 0.00 | 26 | 1009.7 |
| 20260510013035 | 24 | 41 | 17.7 | 22.5 | 0.00 | 0.00 | 0.00 | 26 | 1009.7 |
| 20260510012932 | 24 | 39 | 17.7 | 22.5 | 0.00 | 0.00 | 0.00 | 26 | 1009.7 |
| 20260510012834 | 24 | 25 | 16.1 | 22.5 | 0.00 | 0.00 | 0.00 | 26 | 1009.7 |
| 20260510012751 | 24 | 34 | 16.1 | 22.5 | 0.00 | 0.00 | 0.00 | 25 | 1009.7 |
| 20260510012627 | 24 | 28 | 17.7 | 22.5 | 0.00 | 0.00 | 0.00 | 25 | 1009.7 |
| 20260510012522 | 24 | 20 | 19.3 | 22.5 | 0.00 | 0.00 | 0.00 | 25 | 1009.6 |
| 20260510012420 | 25 | 37 | 17.7 | 22.5 | 0.00 | 0.00 | 0.00 | 25 | 1009.6 |
| 20260510012327 | 25 | 39 | 17.7 | 22.5 | 0.00 | 0.00 | 0.00 | 25 | 1009.6 |
| 20260510012222 | 25 | 32 | 16.1 | 22.5 | 0.00 | 0.00 | 0.00 | 24 | 1009.6 |
| 20260510012139 | 25 | 40 | 16.1 | 22.5 | 0.00 | 0.00 | 0.00 | 24 | 1009.6 |
| 20260510012031 | 25 | 38 | 16.1 | 29.0 | 0.00 | 0.00 | 0.00 | 24 | 1009.5 |
| 20260510011932 | 25 | 26 | 17.7 | 29.0 | 0.00 | 0.00 | 0.00 | 24 | 1009.5 |
| 20260510011832 | 25 | 25 | 17.7 | 29.0 | 0.00 | 0.00 | 0.00 | 24 | 1009.5 |
| 20260510011729 | 25 | 27 | 17.7 | 29.0 | 0.00 | 0.00 | 0.00 | 24 | 1009.4 |
| 20260510011652 | 25 | 46 | 17.7 | 29.0 | 0.00 | 0.00 | 0.00 | 24 | 1009.4 |
| 20260510011526 | 25 | 44 | 17.7 | 29.0 | 0.00 | 0.00 | 0.00 | 23 | 1009.4 |
| 20260510011430 | 26 | 38 | 17.7 | 29.0 | 0.00 | 0.00 | 0.00 | 23 | 1009.4 |
| 20260510011332 | 26 | 42 | 17.7 | 29.0 | 0.00 | 0.00 | 0.00 | 23 | 1009.4 |
| 20260510011230 | 26 | 36 | 20.9 | 29.0 | 0.00 | 0.00 | 0.00 | 23 | 1009.4 |
| 20260510011147 | 26 | 38 | 20.9 | 29.0 | 0.00 | 0.00 | 0.00 | 23 | 1009.3 |
| 20260510011019 | 26 | 26 | 19.3 | 29.0 | 0.00 | 0.00 | 0.00 | 23 | 1009.3 |
| 20260510010916 | 26 | 38 | 19.3 | 29.0 | 0.00 | 0.00 | 0.00 | 23 | 1009.3 |
| 20260510010835 | 26 | 51 | 20.9 | 32.2 | 0.00 | 0.00 | 0.00 | 23 | 1009.3 |
| 20260510010715 | 26 | 21 | 20.9 | 32.2 | 0.00 | 0.00 | 0.00 | 23 | 1009.2 |
| 20260510010635 | 26 | 25 | 20.9 | 32.2 | 0.00 | 0.00 | 0.00 | 23 | 1009.2 |
| 20260510010529 | 26 | 38 | 19.3 | 32.2 | 0.00 | 0.00 | 0.00 | 23 | 1009.2 |
| 20260510010427 | 26 | 42 | 19.3 | 32.2 | 0.00 | 0.00 | 0.00 | 23 | 1009.1 |
| 20260510010328 | 26 | 37 | 20.9 | 32.2 | 0.00 | 0.00 | 0.00 | 22 | 1009.1 |
| 20260510010226 | 26 | 22 | 22.5 | 32.2 | 0.00 | 0.00 | 0.00 | 22 | 1009.1 |
| 20260510010123 | 26 | 24 | 22.5 | 32.2 | 0.00 | 0.00 | 0.00 | 22 | 1009.1 |
| 20260510010038 | 27 | 35 | 22.5 | 32.2 | 0.00 | 0.00 | 0.00 | 22 | 1009.1 |
| 20260510005919 | 27 | 39 | 22.5 | 32.2 | 0.00 | 0.00 | 0.00 | 21 | 1009.1 |
| 20260510005819 | 27 | 36 | 20.9 | 32.2 | 0.00 | 0.00 | 0.00 | 21 | 1009.1 |
| 20260510005716 | 27 | 45 | 20.9 | 32.2 | 0.00 | 0.00 | 0.00 | 20 | 1009.1 |
| 20260510005633 | 27 | 42 | 20.9 | 32.2 | 0.00 | 0.00 | 0.00 | 20 | 1009.0 |
| 20260510005526 | 27 | 26 | 20.9 | 32.2 | 0.00 | 0.00 | 0.00 | 20 | 1009.1 |
| 20260510005447 | 27 | 38 | 20.9 | 32.2 | 0.00 | 0.00 | 0.00 | 20 | 1009.0 |
| 20260510005324 | 27 | 28 | 19.3 | 32.2 | 0.00 | 0.00 | 0.00 | 20 | 1009.0 |
| 20260510005221 | 27 | 38 | 19.3 | 32.2 | 0.00 | 0.00 | 0.00 | 20 | 1009.0 |
| 20260510005122 | 27 | 35 | 20.9 | 32.2 | 0.00 | 0.00 | 0.00 | 19 | 1009.0 |
| 20260510005019 | 27 | 42 | 22.5 | 32.2 | 0.00 | 0.00 | 0.00 | 19 | 1008.9 |
| 20260510004916 | 27 | 29 | 20.9 | 30.6 | 0.00 | 0.00 | 0.00 | 19 | 1009.0 |
| 20260510004835 | 27 | 30 | 20.9 | 30.6 | 0.00 | 0.00 | 0.00 | 19 | 1009.0 |
| 20260510004732 | 27 | 40 | 20.9 | 30.6 | 0.00 | 0.00 | 0.00 | 18 | 1009.0 |
| 20260510004649 | 27 | 33 | 19.3 | 30.6 | 0.00 | 0.00 | 0.00 | 18 | 1009.0 |
| 20260510004523 | 27 | 29 | 17.7 | 29.0 | 0.00 | 0.00 | 0.00 | 18 | 1009.0 |
| 20260510004420 | 27 | 44 | 19.3 | 29.0 | 0.00 | 0.00 | 0.00 | 17 | 1009.0 |
| 20260510004321 | 27 | 32 | 17.7 | 29.0 | 0.00 | 0.00 | 0.00 | 17 | 1009.0 |
| 20260510004218 | 27 | 19 | 17.7 | 29.0 | 0.00 | 0.00 | 0.00 | 17 | 1008.9 |
| 20260510004115 | 27 | 36 | 19.3 | 29.0 | 0.00 | 0.00 | 0.00 | 17 | 1008.9 |
| 20260510004035 | 27 | 33 | 20.9 | 29.0 | 0.00 | 0.00 | 0.00 | 17 | 1009.0 |
| 20260510003931 | 27 | 18 | 20.9 | 29.0 | 0.00 | 0.00 | 0.00 | 17 | 1008.9 |
| 20260510003830 | 27 | 36 | 20.9 | 29.0 | 0.00 | 0.00 | 0.00 | 17 | 1008.8 |
| 20260510003727 | 28 | 19 | 22.5 | 29.0 | 0.00 | 0.00 | 0.00 | 17 | 1008.8 |
| 20260510003644 | 28 | 15 | 22.5 | 29.0 | 0.00 | 0.00 | 0.00 | 17 | 1008.8 |
| 20260510003544 | 28 | 24 | 20.9 | 29.0 | 0.00 | 0.00 | 0.00 | 17 | 1008.8 |
| 20260510003459 | 28 | 11 | 19.3 | 27.4 | 0.00 | 0.00 | 0.00 | 17 | 1008.8 |
| 20260510003356 | 28 | 30 | 17.7 | 27.4 | 0.00 | 0.00 | 0.00 | 17 | 1008.8 |
| 20260510003233 | 28 | 32 | 17.7 | 27.4 | 0.00 | 0.00 | 0.00 | 17 | 1008.8 |
| 20260510003130 | 28 | 27 | 19.3 | 27.4 | 0.00 | 0.00 | 0.00 | 17 | 1008.7 |
| 20260510003027 | 28 | 31 | 19.3 | 27.4 | 0.00 | 0.00 | 0.00 | 17 | 1008.7 |
| 20260510002944 | 28 | 24 | 19.3 | 27.4 | 0.00 | 0.00 | 0.00 | 17 | 1008.7 |
| 20260510002842 | 28 | 5 | 19.3 | 27.4 | 0.00 | 0.00 | 0.00 | 17 | 1008.7 |
| 20260510002718 | 28 | 46 | 20.9 | 27.4 | 0.00 | 0.00 | 0.00 | 17 | 1008.7 |
| 20260510002619 | 28 | 30 | 17.7 | 27.4 | 0.00 | 0.00 | 0.00 | 17 | 1008.7 |
| 20260510002534 | 28 | 27 | 16.1 | 27.4 | 0.00 | 0.00 | 0.00 | 17 | 1008.7 |
| 20260510002451 | 28 | 28 | 16.1 | 25.7 | 0.00 | 0.00 | 0.00 | 17 | 1008.7 |
| 20260510002331 | 28 | 5 | 19.3 | 25.7 | 0.00 | 0.00 | 0.00 | 17 | 1008.7 |
| 20260510002227 | 28 | 21 | 19.3 | 25.7 | 0.00 | 0.00 | 0.00 | 17 | 1008.7 |
| 20260510002126 | 28 | 5 | 19.3 | 25.7 | 0.00 | 0.00 | 0.00 | 17 | 1008.7 |
| 20260510002023 | 28 | 24 | 19.3 | 25.7 | 0.00 | 0.00 | 0.00 | 17 | 1008.7 |
| 20260510001940 | 28 | 5 | 20.9 | 25.7 | 0.00 | 0.00 | 0.00 | 17 | 1008.7 |
| 20260510001822 | 28 | 16 | 19.3 | 25.7 | 0.00 | 0.00 | 0.00 | 17 | 1008.7 |
| 20260510001739 | 28 | 16 | 20.9 | 25.7 | 0.00 | 0.00 | 0.00 | 17 | 1008.7 |
| 20260510001656 | 28 | 15 | 20.9 | 25.7 | 0.00 | 0.00 | 0.00 | 17 | 1008.7 |
| 20260510001553 | 28 | 52 | 20.9 | 27.4 | 0.00 | 0.00 | 0.00 | 17 | 1008.7 |
| 20260510001429 | 28 | 34 | 22.5 | 27.4 | 0.00 | 0.00 | 0.00 | 17 | 1008.7 |
| 20260510001328 | 28 | 38 | 22.5 | 30.6 | 0.00 | 0.00 | 0.00 | 17 | 1008.7 |
| 20260510001226 | 28 | 46 | 20.9 | 32.2 | 0.00 | 0.00 | 0.00 | 17 | 1008.7 |
| 20260510001127 | 28 | 28 | 19.3 | 32.2 | 0.00 | 0.00 | 0.00 | 17 | 1008.7 |
| 20260510001026 | 28 | 42 | 19.3 | 32.2 | 0.00 | 0.00 | 0.00 | 16 | 1008.7 |
| 20260510000943 | 28 | 24 | 19.3 | 32.2 | 0.00 | 0.00 | 0.00 | 16 | 1008.7 |
| 20260510000820 | 28 | 38 | 19.3 | 32.2 | 0.00 | 0.00 | 0.00 | 16 | 1008.7 |
| 20260510000716 | 28 | 38 | 19.3 | 32.2 | 0.00 | 0.00 | 0.00 | 16 | 1008.7 |
| 20260510000633 | 28 | 32 | 20.9 | 32.2 | 0.00 | 0.00 | 0.00 | 16 | 1008.6 |
| 20260510000551 | 28 | 23 | 22.5 | 32.2 | 0.00 | 0.00 | 0.00 | 16 | 1008.6 |
| 20260510000426 | 28 | 17 | 24.1 | 32.2 | 0.00 | 0.00 | 0.00 | 16 | 1008.6 |
| 20260510000326 | 28 | 42 | 20.9 | 32.2 | 0.00 | 0.00 | 0.00 | 16 | 1008.6 |
| 20260510000241 | 28 | 32 | 14.5 | 32.2 | 0.00 | 0.00 | 0.00 | 16 | 1008.7 |
| 20260510000138 | 28 | 25 | 16.1 | 32.2 | 0.00 | 0.00 | 0.00 | 16 | 1008.6 |
| 20260510000034 | 28 | 21 | 17.7 | 32.2 | 0.00 | 0.00 | 0.00 | 16 | 1008.7 |
| 20260509235952 | 28 | 15 | 20.9 | 32.2 | 0.00 | 0.00 | 0.00 | 16 | 1008.7 |
| 20260509235832 | 28 | 34 | 22.5 | 32.2 | 0.00 | 0.00 | 0.00 | 16 | 1008.7 |
| 20260509235728 | 29 | 30 | 24.1 | 32.2 | 0.00 | 0.00 | 0.00 | 16 | 1008.7 |
| 20260509235629 | 29 | 29 | 22.5 | 32.2 | 0.00 | 0.00 | 0.00 | 16 | 1008.7 |
| 20260509235526 | 29 | 28 | 24.1 | 32.2 | 0.00 | 0.00 | 0.00 | 17 | 1008.7 |
| 20260509235424 | 29 | 30 | 22.5 | 32.2 | 0.00 | 0.00 | 0.00 | 17 | 1008.6 |
| 20260509235322 | 29 | 38 | 19.3 | 32.2 | 0.00 | 0.00 | 0.00 | 16 | 1008.7 |
| 20260509235245 | 29 | 47 | 22.5 | 32.2 | 0.00 | 0.00 | 0.00 | 16 | 1008.7 |
| 20260509235122 | 29 | 47 | 22.5 | 32.2 | 0.00 | 0.00 | 0.00 | 17 | 1008.7 |
| 20260509235016 | 29 | 36 | 22.5 | 32.2 | 0.00 | 0.00 | 0.00 | 17 | 1008.7 |
| 20260509234934 | 29 | 37 | 20.9 | 32.2 | 0.00 | 0.00 | 0.00 | 17 | 1008.8 |
| 20260509234832 | 29 | 23 | 20.9 | 32.2 | 0.00 | 0.00 | 0.00 | 17 | 1008.8 |
| 20260509234734 | 29 | 15 | 22.5 | 32.2 | 0.00 | 0.00 | 0.00 | 17 | 1008.8 |
| 20260509234631 | 29 | 38 | 24.1 | 32.2 | 0.00 | 0.00 | 0.00 | 16 | 1008.8 |
| 20260509234528 | 29 | 26 | 24.1 | 32.2 | 0.00 | 0.00 | 0.00 | 17 | 1008.8 |
| 20260509234429 | 29 | 29 | 20.9 | 30.6 | 0.00 | 0.00 | 0.00 | 17 | 1008.7 |
| 20260509234347 | 28 | 31 | 17.7 | 30.6 | 0.00 | 0.00 | 0.00 | 17 | 1008.7 |
| 20260509234228 | 28 | 42 | 17.7 | 30.6 | 0.00 | 0.00 | 0.00 | 17 | 1008.8 |
| 20260509234126 | 28 | 355 | 20.9 | 30.6 | 0.00 | 0.00 | 0.00 | 17 | 1008.8 |
| 20260509234020 | 28 | 9 | 22.5 | 30.6 | 0.00 | 0.00 | 0.00 | 16 | 1008.7 |
| 20260509233938 | 28 | 19 | 22.5 | 30.6 | 0.00 | 0.00 | 0.00 | 16 | 1008.8 |
| 20260509233835 | 28 | 25 | 20.9 | 30.6 | 0.00 | 0.00 | 0.00 | 17 | 1008.8 |
| 20260509233732 | 28 | 17 | 17.7 | 27.4 | 0.00 | 0.00 | 0.00 | 17 | 1008.8 |
| 20260509233629 | 29 | 36 | 16.1 | 27.4 | 0.00 | 0.00 | 0.00 | 16 | 1008.8 |
| 20260509233530 | 29 | 24 | 17.7 | 30.6 | 0.00 | 0.00 | 0.00 | 16 | 1008.8 |
| 20260509233430 | 29 | 46 | 19.3 | 30.6 | 0.00 | 0.00 | 0.00 | 16 | 1008.8 |
| 20260509233329 | 29 | 24 | 17.7 | 30.6 | 0.00 | 0.00 | 0.00 | 16 | 1008.8 |
| 20260509233225 | 29 | 19 | 17.7 | 30.6 | 0.00 | 0.00 | 0.00 | 17 | 1008.8 |
| 20260509233125 | 29 | 50 | 20.9 | 32.2 | 0.00 | 0.00 | 0.00 | 16 | 1008.8 |
| 20260509233019 | 29 | 31 | 19.3 | 32.2 | 0.00 | 0.00 | 0.00 | 16 | 1008.8 |
| 20260509232939 | 29 | 18 | 17.7 | 32.2 | 0.00 | 0.00 | 0.00 | 17 | 1008.8 |
| 20260509232821 | 29 | 30 | 19.3 | 32.2 | 0.00 | 0.00 | 0.00 | 16 | 1008.8 |
| 20260509232742 | 29 | 20 | 24.1 | 37.0 | 0.00 | 0.00 | 0.00 | 16 | 1008.8 |
| 20260509232638 | 29 | 34 | 24.1 | 37.0 | 0.00 | 0.00 | 0.00 | 16 | 1008.7 |
| 20260509232531 | 29 | 26 | 22.5 | 37.0 | 0.00 | 0.00 | 0.00 | 16 | 1008.7 |
| 20260509232432 | 29 | 13 | 22.5 | 37.0 | 0.00 | 0.00 | 0.00 | 16 | 1008.7 |
| 20260509232332 | 29 | 22 | 24.1 | 37.0 | 0.00 | 0.00 | 0.00 | 17 | 1008.7 |
| 20260509232228 | 29 | 28 | 24.1 | 37.0 | 0.00 | 0.00 | 0.00 | 17 | 1008.7 |
| 20260509232132 | 29 | 23 | 25.7 | 37.0 | 0.00 | 0.00 | 0.00 | 16 | 1008.6 |
| 20260509232025 | 29 | 5 | 27.4 | 37.0 | 0.00 | 0.00 | 0.00 | 16 | 1008.6 |
| 20260509231925 | 29 | 350 | 27.4 | 37.0 | 0.00 | 0.00 | 0.00 | 16 | 1008.6 |
| 20260509231827 | 30 | 355 | 25.7 | 37.0 | 0.00 | 0.00 | 0.00 | 16 | 1008.6 |
| 20260509231743 | 30 | 355 | 25.7 | 33.8 | 0.00 | 0.00 | 0.00 | 16 | 1008.7 |
| 20260509231639 | 30 | 355 | 24.1 | 32.2 | 0.00 | 0.00 | 0.00 | 16 | 1008.7 |
| 20260509231553 | 29 | 10 | 20.9 | 32.2 | 0.00 | 0.00 | 0.00 | 17 | 1008.7 |
| 20260509231453 | 29 | 355 | 20.9 | 32.2 | 0.00 | 0.00 | 0.00 | 16 | 1008.7 |
| 20260509231356 | 29 | 348 | 24.1 | 32.2 | 0.00 | 0.00 | 0.00 | 16 | 1008.7 |
| 20260509231232 | 29 | 355 | 25.7 | 32.2 | 0.00 | 0.00 | 0.00 | 16 | 1008.7 |
| 20260509231155 | 29 | 9 | 24.1 | 32.2 | 0.00 | 0.00 | 0.00 | 16 | 1008.7 |
| 20260509231028 | 30 | 16 | 22.5 | 32.2 | 0.00 | 0.00 | 0.00 | 14 | 1008.7 |
| 20260509230945 | 30 | 11 | 17.7 | 24.1 | 0.00 | 0.00 | 0.00 | 14 | 1008.7 |
| 20260509230831 | 30 | 348 | 16.1 | 24.1 | 0.00 | 0.00 | 0.00 | 14 | 1008.7 |
| 20260509230731 | 30 | 5 | 17.7 | 24.1 | 0.00 | 0.00 | 0.00 | 14 | 1008.7 |
| 20260509230628 | 30 | 350 | 17.7 | 24.1 | 0.00 | 0.00 | 0.00 | 14 | 1008.7 |
| 20260509230545 | 30 | 346 | 14.5 | 24.1 | 0.00 | 0.00 | 0.00 | 14 | 1008.7 |
| 20260509230459 | 30 | 355 | 14.5 | 24.1 | 0.00 | 0.00 | 0.00 | 13 | 1008.7 |
| 20260509230356 | 30 | 348 | 14.5 | 24.1 | 0.00 | 0.00 | 0.00 | 13 | 1008.7 |
| 20260509230232 | 30 | 9 | 14.5 | 24.1 | 0.00 | 0.00 | 0.00 | 14 | 1008.7 |
| 20260509230129 | 30 | 5 | 16.1 | 27.4 | 0.00 | 0.00 | 0.00 | 14 | 1008.7 |
| 20260509230027 | 30 | 309 | 17.7 | 27.4 | 0.00 | 0.00 | 0.00 | 14 | 1008.7 |
| 20260509225924 | 30 | 327 | 16.1 | 29.0 | 0.00 | 0.00 | 0.00 | 14 | 1008.6 |
| 20260509225842 | 30 | 339 | 16.1 | 30.6 | 0.00 | 0.00 | 0.00 | 14 | 1008.6 |
| 20260509225737 | 30 | 355 | 16.1 | 30.6 | 0.00 | 0.00 | 0.00 | 14 | 1008.6 |
| 20260509225655 | 30 | 9 | 17.7 | 30.6 | 0.00 | 0.00 | 0.00 | 14 | 1008.5 |
| 20260509225527 | 30 | 15 | 17.7 | 30.6 | 0.00 | 0.00 | 0.00 | 14 | 1008.6 |
| 20260509225423 | 30 | 329 | 17.7 | 53.1 | 0.00 | 0.00 | 0.00 | 14 | 1008.6 |
| 20260509225321 | 30 | 350 | 19.3 | 53.1 | 0.00 | 0.00 | 0.00 | 14 | 1008.6 |
| 20260509225240 | 30 | 355 | 19.3 | 53.1 | 0.00 | 0.00 | 0.00 | 14 | 1008.6 |
| 20260509225119 | 30 | 15 | 22.5 | 53.1 | 0.00 | 0.00 | 0.00 | 15 | 1008.6 |
| 20260509225017 | 30 | 10 | 22.5 | 53.1 | 0.00 | 0.00 | 0.00 | 15 | 1008.7 |
| 20260509224934 | 30 | 11 | 20.9 | 53.1 | 0.00 | 0.00 | 0.00 | 15 | 1008.6 |
| 20260509224855 | 30 | 23 | 19.3 | 53.1 | 0.00 | 0.00 | 0.00 | 15 | 1008.6 |
| 20260509224732 | 30 | 15 | 20.9 | 53.1 | 0.00 | 0.00 | 0.00 | 15 | 1008.7 |
| 20260509224630 | 30 | 5 | 24.1 | 53.1 | 0.00 | 0.00 | 0.00 | 16 | 1008.7 |
| 20260509224527 | 30 | 39 | 20.9 | 53.1 | 0.00 | 0.00 | 0.00 | 16 | 1008.6 |
| 20260509224428 | 30 | 342 | 17.7 | 25.7 | 0.00 | 0.00 | 0.00 | 16 | 1008.6 |
| 20260509224327 | 30 | 350 | 19.3 | 25.7 | 0.00 | 0.00 | 0.00 | 16 | 1008.6 |
| 20260509224229 | 30 | 355 | 17.7 | 25.7 | 0.00 | 0.00 | 0.00 | 16 | 1008.7 |
| 20260509224129 | 30 | 355 | 16.1 | 25.7 | 0.00 | 0.00 | 0.00 | 15 | 1008.7 |
| 20260509224024 | 30 | 360 | 16.1 | 25.7 | 0.00 | 0.00 | 0.00 | 15 | 1008.7 |
| 20260509223922 | 30 | 22 | 14.5 | 25.7 | 0.00 | 0.00 | 0.00 | 15 | 1008.7 |
| 20260509223842 | 30 | 355 | 12.9 | 32.2 | 0.00 | 0.00 | 0.00 | 16 | 1008.7 |
| 20260509223716 | 30 | 333 | 14.5 | 37.0 | 0.00 | 0.00 | 0.00 | 16 | 1008.7 |
| 20260509223633 | 30 | 345 | 16.1 | 37.0 | 0.00 | 0.00 | 0.00 | 16 | 1008.7 |
| 20260509223548 | 30 | 346 | 19.3 | 37.0 | 0.00 | 0.00 | 0.00 | 15 | 1008.7 |
| 20260509223425 | 30 | 355 | 16.1 | 37.0 | 0.00 | 0.00 | 0.00 | 16 | 1008.7 |
| 20260509223328 | 30 | 355 | 12.9 | 37.0 | 0.00 | 0.00 | 0.00 | 16 | 1008.7 |
| 20260509223245 | 30 | 360 | 14.5 | 38.6 | 0.00 | 0.00 | 0.00 | 16 | 1008.8 |
| 20260509223126 | 30 | 5 | 19.3 | 38.6 | 0.00 | 0.00 | 0.00 | 15 | 1008.8 |
| 20260509223019 | 30 | 9 | 22.5 | 38.6 | 0.00 | 0.00 | 0.00 | 16 | 1008.8 |
| 20260509222918 | 30 | 337 | 27.4 | 40.2 | 0.00 | 0.00 | 0.00 | 16 | 1008.8 |
| 20260509222819 | 30 | 334 | 29.0 | 40.2 | 0.00 | 0.00 | 0.00 | 16 | 1008.8 |
| 20260509222716 | 30 | 329 | 27.4 | 40.2 | 0.00 | 0.00 | 0.00 | 16 | 1008.7 |
| 20260509222621 | 30 | 340 | 25.7 | 40.2 | 0.00 | 0.00 | 0.00 | 16 | 1008.7 |
| 20260509222534 | 30 | 340 | 27.4 | 40.2 | 0.00 | 0.00 | 0.00 | 16 | 1008.7 |
| 20260509222430 | 30 | 337 | 29.0 | 40.2 | 0.00 | 0.00 | 0.00 | 16 | 1008.7 |
| 20260509222327 | 30 | 336 | 30.6 | 40.2 | 0.00 | 0.00 | 0.00 | 16 | 1008.7 |
| 20260509222224 | 30 | 348 | 27.4 | 40.2 | 0.00 | 0.00 | 0.00 | 16 | 1008.6 |
| 20260509222122 | 30 | 360 | 27.4 | 40.2 | 0.00 | 0.00 | 0.00 | 16 | 1008.6 |
| 20260509222017 | 30 | 355 | 29.0 | 40.2 | 0.00 | 0.00 | 0.00 | 15 | 1008.7 |
| 20260509221913 | 30 | 346 | 29.0 | 40.2 | 0.00 | 0.00 | 0.00 | 15 | 1008.7 |
| 20260509221820 | 30 | 360 | 29.0 | 38.6 | 0.00 | 0.00 | 0.00 | 15 | 1008.6 |
| 20260509221735 | 30 | 347 | 29.0 | 38.6 | 0.00 | 0.00 | 0.00 | 15 | 1008.5 |
| 20260509221632 | 30 | 5 | 24.1 | 38.6 | 0.00 | 0.00 | 0.00 | 16 | 1008.5 |
| 20260509221545 | 30 | 343 | 24.1 | 38.6 | 0.00 | 0.00 | 0.00 | 16 | 1008.5 |
| 20260509221427 | 30 | 331 | 27.4 | 38.6 | 0.00 | 0.00 | 0.00 | 16 | 1008.5 |
| 20260509221325 | 30 | 330 | 25.7 | 33.8 | 0.00 | 0.00 | 0.00 | 16 | 1008.5 |
| 20260509221221 | 30 | 9 | 22.5 | 30.6 | 0.00 | 0.00 | 0.00 | 16 | 1008.5 |
| 20260509221138 | 30 | 10 | 20.9 | 30.6 | 0.00 | 0.00 | 0.00 | 16 | 1008.5 |
| 20260509221034 | 30 | 345 | 19.3 | 30.6 | 0.00 | 0.00 | 0.00 | 16 | 1008.5 |
| 20260509220951 | 30 | 5 | 20.9 | 30.6 | 0.00 | 0.00 | 0.00 | 16 | 1008.6 |
| 20260509220850 | 30 | 13 | 24.1 | 30.6 | 0.00 | 0.00 | 0.00 | 16 | 1008.6 |
| 20260509220733 | 30 | 5 | 20.9 | 33.8 | 0.00 | 0.00 | 0.00 | 16 | 1008.5 |
| 20260509220634 | 30 | 351 | 20.9 | 33.8 | 0.00 | 0.00 | 0.00 | 15 | 1008.6 |
| 20260509220528 | 30 | 360 | 22.5 | 35.4 | 0.00 | 0.00 | 0.00 | 15 | 1008.6 |
| 20260509220429 | 30 | 16 | 22.5 | 35.4 | 0.00 | 0.00 | 0.00 | 16 | 1008.5 |
| 20260509220332 | 30 | 14 | 22.5 | 35.4 | 0.00 | 0.00 | 0.00 | 15 | 1008.6 |
| 20260509220229 | 30 | 15 | 20.9 | 41.8 | 0.00 | 0.00 | 0.00 | 16 | 1008.6 |
| 20260509220150 | 30 | 11 | 20.9 | 41.8 | 0.00 | 0.00 | 0.00 | 15 | 1008.6 |
| 20260509220025 | 30 | 347 | 22.5 | 41.8 | 0.00 | 0.00 | 0.00 | 15 | 1008.6 |
| 20260509215928 | 30 | 355 | 24.1 | 41.8 | 0.00 | 0.00 | 0.00 | 15 | 1008.7 |
| 20260509215846 | 30 | 344 | 25.7 | 41.8 | 0.00 | 0.00 | 0.00 | 15 | 1008.7 |
| 20260509215724 | 30 | 348 | 27.4 | 41.8 | 0.00 | 0.00 | 0.00 | 15 | 1008.7 |
| 20260509215621 | 30 | 330 | 29.0 | 41.8 | 0.00 | 0.00 | 0.00 | 15 | 1008.7 |
| 20260509215535 | 30 | 334 | 29.0 | 41.8 | 0.00 | 0.00 | 0.00 | 15 | 1008.7 |
| 20260509215434 | 30 | 343 | 30.6 | 41.8 | 0.00 | 0.00 | 0.00 | 16 | 1008.6 |
| 20260509215314 | 30 | 338 | 29.0 | 41.8 | 0.00 | 0.00 | 0.00 | 16 | 1008.7 |
| 20260509215217 | 30 | 342 | 25.7 | 37.0 | 0.00 | 0.00 | 0.00 | 16 | 1008.7 |
| 20260509215134 | 30 | 340 | 24.1 | 37.0 | 0.00 | 0.00 | 0.00 | 16 | 1008.7 |
| 20260509215030 | 30 | 334 | 24.1 | 33.8 | 0.00 | 0.00 | 0.00 | 15 | 1008.7 |
| 20260509214927 | 30 | 319 | 19.3 | 37.0 | 0.00 | 0.00 | 0.00 | 15 | 1008.7 |
| 20260509214827 | 30 | 330 | 20.9 | 37.0 | 0.00 | 0.00 | 0.00 | 15 | 1008.7 |
| 20260509214724 | 30 | 330 | 22.5 | 37.0 | 0.00 | 0.00 | 0.00 | 15 | 1008.7 |
| 20260509214622 | 30 | 333 | 24.1 | 37.0 | 0.00 | 0.00 | 0.00 | 15 | 1008.7 |
| 20260509214520 | 30 | 302 | 25.7 | 37.0 | 0.00 | 0.00 | 0.00 | 15 | 1008.8 |
| 20260509214417 | 30 | 317 | 22.5 | 37.0 | 0.00 | 0.00 | 0.00 | 15 | 1008.7 |
| 20260509214336 | 30 | 328 | 19.3 | 37.0 | 0.00 | 0.00 | 0.00 | 15 | 1008.7 |
| 20260509214253 | 30 | 348 | 20.9 | 37.0 | 0.00 | 0.00 | 0.00 | 15 | 1008.7 |
| 20260509214130 | 30 | 360 | 25.7 | 37.0 | 0.00 | 0.00 | 0.00 | 15 | 1008.7 |
| 20260509214024 | 30 | 340 | 22.5 | 37.0 | 0.00 | 0.00 | 0.00 | 15 | 1008.7 |
| 20260509213922 | 30 | 300 | 19.3 | 33.8 | 0.00 | 0.00 | 0.00 | 15 | 1008.7 |
| 20260509213822 | 30 | 344 | 20.9 | 33.8 | 0.00 | 0.00 | 0.00 | 15 | 1008.8 |
| 20260509213721 | 30 | 12 | 25.7 | 33.8 | 0.00 | 0.00 | 0.00 | 15 | 1008.8 |
| 20260509213617 | 30 | 348 | 25.7 | 33.8 | 0.00 | 0.00 | 0.00 | 16 | 1008.8 |
| 20260509213534 | 30 | 320 | 22.5 | 33.8 | 0.00 | 0.00 | 0.00 | 16 | 1008.7 |
| 20260509213431 | 30 | 324 | 19.3 | 32.2 | 0.00 | 0.00 | 0.00 | 16 | 1008.8 |
| 20260509213349 | 30 | 5 | 19.3 | 32.2 | 0.00 | 0.00 | 0.00 | 16 | 1008.8 |
| 20260509213306 | 30 | 330 | 17.7 | 32.2 | 0.00 | 0.00 | 0.00 | 16 | 1008.8 |
| 20260509213202 | 30 | 327 | 19.3 | 32.2 | 0.00 | 0.00 | 0.00 | 16 | 1008.8 |
| 20260509213055 | 30 | 339 | 19.3 | 32.2 | 0.00 | 0.00 | 0.00 | 16 | 1008.8 |
| 20260509212930 | 30 | 348 | 19.3 | 32.2 | 0.00 | 0.00 | 0.00 | 16 | 1008.8 |
| 20260509212852 | 30 | 290 | 24.1 | 32.2 | 0.00 | 0.00 | 0.00 | 16 | 1008.8 |
| 20260509212716 | 30 | 327 | 24.1 | 32.2 | 0.00 | 0.00 | 0.00 | 16 | 1008.8 |
| 20260509212633 | 30 | 331 | 22.5 | 32.2 | 0.00 | 0.00 | 0.00 | 17 | 1008.8 |
| 20260509212528 | 30 | 334 | 20.9 | 30.6 | 0.00 | 0.00 | 0.00 | 17 | 1008.8 |
| 20260509212425 | 30 | 349 | 19.3 | 30.6 | 0.00 | 0.00 | 0.00 | 18 | 1008.8 |
| 20260509212323 | 30 | 325 | 17.7 | 30.6 | 0.00 | 0.00 | 0.00 | 17 | 1008.8 |
| 20260509212221 | 30 | 315 | 19.3 | 30.6 | 0.00 | 0.00 | 0.00 | 16 | 1008.9 |
| 20260509212118 | 30 | 301 | 22.5 | 30.6 | 0.00 | 0.00 | 0.00 | 18 | 1009.0 |
| 20260509212031 | 30 | 341 | 20.9 | 30.6 | 0.00 | 0.00 | 0.00 | 17 | 1008.9 |
| 20260509211932 | 30 | 327 | 20.9 | 30.6 | 0.00 | 0.00 | 0.00 | 16 | 1008.9 |
| 20260509211832 | 30 | 301 | 17.7 | 30.6 | 0.00 | 0.00 | 0.00 | 16 | 1008.9 |
| 20260509211749 | 30 | 315 | 19.3 | 30.6 | 0.00 | 0.00 | 0.00 | 16 | 1008.9 |
| 20260509211625 | 30 | 301 | 17.7 | 30.6 | 0.00 | 0.00 | 0.00 | 16 | 1008.9 |
| 20260509211539 | 30 | 312 | 17.7 | 30.6 | 0.00 | 0.00 | 0.00 | 17 | 1009.0 |
| 20260509211456 | 30 | 355 | 17.7 | 30.6 | 0.00 | 0.00 | 0.00 | 17 | 1008.9 |
| 20260509211335 | 30 | 340 | 19.3 | 30.6 | 0.00 | 0.00 | 0.00 | 16 | 1009.0 |
| 20260509211254 | 30 | 360 | 22.5 | 30.6 | 0.00 | 0.00 | 0.00 | 17 | 1009.0 |
| 20260509211130 | 30 | 314 | 24.1 | 32.2 | 0.00 | 0.00 | 0.00 | 17 | 1009.0 |
| 20260509211022 | 30 | 336 | 19.3 | 32.2 | 0.00 | 0.00 | 0.00 | 17 | 1009.0 |
| 20260509210924 | 30 | 319 | 14.5 | 32.2 | 0.00 | 0.00 | 0.00 | 17 | 1009.0 |
| 20260509210823 | 30 | 310 | 16.1 | 32.2 | 0.00 | 0.00 | 0.00 | 17 | 1009.0 |
| 20260509210722 | 30 | 331 | 17.7 | 32.2 | 0.00 | 0.00 | 0.00 | 17 | 1009.1 |
| 20260509210618 | 30 | 341 | 19.3 | 32.2 | 0.00 | 0.00 | 0.00 | 17 | 1009.0 |
| 20260509210516 | 30 | 293 | 17.7 | 32.2 | 0.00 | 0.00 | 0.00 | 17 | 1009.1 |
| 20260509210413 | 30 | 315 | 19.3 | 32.2 | 0.00 | 0.00 | 0.00 | 17 | 1009.1 |
| 20260509210334 | 30 | 326 | 22.5 | 32.2 | 0.00 | 0.00 | 0.00 | 17 | 1009.1 |
| 20260509210234 | 30 | 271 | 22.5 | 33.8 | 0.00 | 0.00 | 0.00 | 16 | 1009.1 |
| 20260509210133 | 30 | 286 | 19.3 | 33.8 | 0.00 | 0.00 | 0.00 | 17 | 1009.0 |
| 20260509210025 | 30 | 337 | 16.1 | 33.8 | 0.00 | 0.00 | 0.00 | 18 | 1009.1 |
| 20260509205922 | 30 | 329 | 16.1 | 33.8 | 0.00 | 0.00 | 0.00 | 17 | 1009.1 |
| 20260509205821 | 30 | 351 | 16.1 | 33.8 | 0.00 | 0.00 | 0.00 | 18 | 1009.1 |
| 20260509205720 | 30 | 321 | 17.7 | 33.8 | 0.00 | 0.00 | 0.00 | 18 | 1009.1 |
| 20260509205617 | 30 | 327 | 20.9 | 33.8 | 0.00 | 0.00 | 0.00 | 17 | 1009.1 |
| 20260509205531 | 30 | 5 | 24.1 | 33.8 | 0.00 | 0.00 | 0.00 | 17 | 1009.1 |
| 20260509205435 | 30 | 337 | 27.4 | 33.8 | 0.00 | 0.00 | 0.00 | 17 | 1009.1 |
| 20260509205335 | 30 | 330 | 22.5 | 33.8 | 0.00 | 0.00 | 0.00 | 17 | 1009.0 |
| 20260509205232 | 30 | 348 | 14.5 | 33.8 | 0.00 | 0.00 | 0.00 | 17 | 1009.1 |
| 20260509205128 | 30 | 307 | 16.1 | 33.8 | 0.00 | 0.00 | 0.00 | 17 | 1009.1 |
| 20260509205042 | 30 | 341 | 19.3 | 33.8 | 0.00 | 0.00 | 0.00 | 17 | 1009.1 |
| 20260509204939 | 30 | 347 | 19.3 | 33.8 | 0.00 | 0.00 | 0.00 | 17 | 1009.2 |
| 20260509204836 | 30 | 321 | 17.7 | 33.8 | 0.00 | 0.00 | 0.00 | 18 | 1009.3 |
| 20260509204733 | 30 | 325 | 20.9 | 33.8 | 0.00 | 0.00 | 0.00 | 17 | 1009.3 |
| 20260509204650 | 30 | 328 | 24.1 | 33.8 | 0.00 | 0.00 | 0.00 | 17 | 1009.2 |
| 20260509204543 | 30 | 330 | 27.4 | 33.8 | 0.00 | 0.00 | 0.00 | 17 | 1009.2 |
| 20260509204423 | 30 | 331 | 22.5 | 38.6 | 0.00 | 0.00 | 0.00 | 18 | 1009.1 |
| 20260509204325 | 30 | 325 | 14.5 | 38.6 | 0.00 | 0.00 | 0.00 | 18 | 1009.1 |
| 20260509204241 | 30 | 338 | 14.5 | 38.6 | 0.00 | 0.00 | 0.00 | 17 | 1009.2 |
| 20260509204159 | 30 | 335 | 16.1 | 38.6 | 0.00 | 0.00 | 0.00 | 17 | 1009.3 |
| 20260509204031 | 30 | 321 | 22.5 | 38.6 | 0.00 | 0.00 | 0.00 | 17 | 1009.2 |
| 20260509203928 | 30 | 328 | 24.1 | 38.6 | 0.00 | 0.00 | 0.00 | 17 | 1009.2 |
| 20260509203826 | 30 | 355 | 22.5 | 38.6 | 0.00 | 0.00 | 0.00 | 18 | 1009.2 |
| 20260509203723 | 30 | 345 | 25.7 | 38.6 | 0.00 | 0.00 | 0.00 | 18 | 1009.2 |
| 20260509203625 | 30 | 5 | 29.0 | 38.6 | 0.00 | 0.00 | 0.00 | 17 | 1009.2 |
| 20260509203520 | 30 | 5 | 27.4 | 41.8 | 0.00 | 0.00 | 0.00 | 17 | 1009.2 |
| 20260509203416 | 30 | 11 | 22.5 | 41.8 | 0.00 | 0.00 | 0.00 | 18 | 1009.2 |
| 20260509203316 | 30 | 342 | 25.7 | 41.8 | 0.00 | 0.00 | 0.00 | 18 | 1009.2 |
| 20260509203232 | 30 | 348 | 25.7 | 41.8 | 0.00 | 0.00 | 0.00 | 18 | 1009.2 |
| 20260509203135 | 30 | 355 | 24.1 | 41.8 | 0.00 | 0.00 | 0.00 | 18 | 1009.2 |
| 20260509203028 | 30 | 336 | 25.7 | 41.8 | 0.00 | 0.00 | 0.00 | 18 | 1009.3 |
| 20260509202925 | 30 | 334 | 27.4 | 41.8 | 0.00 | 0.00 | 0.00 | 18 | 1009.4 |
| 20260509202845 | 30 | 344 | 22.5 | 41.8 | 0.00 | 0.00 | 0.00 | 18 | 1009.2 |
| 20260509202724 | 30 | 14 | 22.5 | 41.8 | 0.00 | 0.00 | 0.00 | 18 | 1009.4 |
| 20260509202644 | 30 | 350 | 22.5 | 41.8 | 0.00 | 0.00 | 0.00 | 18 | 1009.4 |
| 20260509202601 | 30 | 346 | 20.9 | 41.8 | 0.00 | 0.00 | 0.00 | 18 | 1009.4 |
| 20260509202436 | 30 | 286 | 17.7 | 35.4 | 0.00 | 0.00 | 0.00 | 18 | 1009.5 |
| 20260509202355 | 30 | 360 | 22.5 | 35.4 | 0.00 | 0.00 | 0.00 | 18 | 1009.4 |
| 20260509202230 | 30 | 355 | 20.9 | 35.4 | 0.00 | 0.00 | 0.00 | 18 | 1009.4 |
| 20260509202130 | 30 | 331 | 17.7 | 35.4 | 0.00 | 0.00 | 0.00 | 18 | 1009.4 |
| 20260509202023 | 30 | 355 | 20.9 | 35.4 | 0.00 | 0.00 | 0.00 | 18 | 1009.4 |
| 20260509201940 | 30 | 329 | 25.7 | 35.4 | 0.00 | 0.00 | 0.00 | 18 | 1009.4 |
| 20260509201821 | 30 | 327 | 24.1 | 35.4 | 0.00 | 0.00 | 0.00 | 19 | 1009.4 |
| 20260509201740 | 30 | 343 | 19.3 | 35.4 | 0.00 | 0.00 | 0.00 | 19 | 1009.3 |
| 20260509201620 | 30 | 336 | 19.3 | 35.4 | 0.00 | 0.00 | 0.00 | 18 | 1009.4 |
| 20260509201534 | 30 | 329 | 22.5 | 35.4 | 0.00 | 0.00 | 0.00 | 18 | 1009.4 |
| 20260509201452 | 30 | 312 | 25.7 | 35.4 | 0.00 | 0.00 | 0.00 | 18 | 1009.4 |
| 20260509201350 | 30 | 319 | 27.4 | 35.4 | 0.00 | 0.00 | 0.00 | 18 | 1009.4 |
| 20260509201226 | 30 | 325 | 29.0 | 35.4 | 0.00 | 0.00 | 0.00 | 19 | 1009.3 |
| 20260509201123 | 30 | 315 | 29.0 | 35.4 | 0.00 | 0.00 | 0.00 | 19 | 1009.3 |
| 20260509201020 | 30 | 334 | 27.4 | 35.4 | 0.00 | 0.00 | 0.00 | 18 | 1009.3 |
| 20260509200925 | 30 | 13 | 27.4 | 33.8 | 0.00 | 0.00 | 0.00 | 18 | 1009.4 |
| 20260509200826 | 30 | 351 | 27.4 | 33.8 | 0.00 | 0.00 | 0.00 | 19 | 1009.4 |
| 20260509200724 | 30 | 340 | 25.7 | 33.8 | 0.00 | 0.00 | 0.00 | 18 | 1009.4 |
| 20260509200641 | 30 | 322 | 24.1 | 30.6 | 0.00 | 0.00 | 0.00 | 18 | 1009.4 |
| 20260509200533 | 30 | 321 | 20.9 | 37.0 | 0.00 | 0.00 | 0.00 | 19 | 1009.4 |
| 20260509200432 | 30 | 345 | 17.7 | 37.0 | 0.00 | 0.00 | 0.00 | 18 | 1009.4 |
| 20260509200330 | 30 | 337 | 14.5 | 37.0 | 0.00 | 0.00 | 0.00 | 18 | 1009.4 |
| 20260509200226 | 30 | 302 | 14.5 | 37.0 | 0.00 | 0.00 | 0.00 | 17 | 1009.4 |
| 20260509200142 | 30 | 300 | 17.7 | 37.0 | 0.00 | 0.00 | 0.00 | 17 | 1009.4 |
| 20260509200023 | 30 | 305 | 20.9 | 37.0 | 0.00 | 0.00 | 0.00 | 17 | 1009.5 |
| 20260509195943 | 30 | 317 | 20.9 | 37.0 | 0.00 | 0.00 | 0.00 | 18 | 1009.5 |
| 20260509195841 | 30 | 327 | 24.1 | 37.0 | 0.00 | 0.00 | 0.00 | 18 | 1009.4 |
| 20260509195735 | 30 | 327 | 24.1 | 37.0 | 0.00 | 0.00 | 0.00 | 18 | 1009.4 |
| 20260509195632 | 30 | 340 | 22.5 | 37.0 | 0.00 | 0.00 | 0.00 | 18 | 1009.4 |
| 20260509195526 | 30 | 327 | 19.3 | 30.6 | 0.00 | 0.00 | 0.00 | 18 | 1009.5 |
| 20260509195423 | 30 | 328 | 20.9 | 30.6 | 0.00 | 0.00 | 0.00 | 18 | 1009.4 |
| 20260509195344 | 30 | 5 | 24.1 | 35.4 | 0.00 | 0.00 | 0.00 | 18 | 1009.4 |
| 20260509195224 | 30 | 360 | 24.1 | 35.4 | 0.00 | 0.00 | 0.00 | 18 | 1009.4 |
| 20260509195142 | 30 | 339 | 24.1 | 35.4 | 0.00 | 0.00 | 0.00 | 18 | 1009.4 |
| 20260509195035 | 30 | 335 | 19.3 | 35.4 | 0.00 | 0.00 | 0.00 | 19 | 1009.4 |
| 20260509194951 | 30 | 338 | 17.7 | 35.4 | 0.00 | 0.00 | 0.00 | 19 | 1009.4 |
| 20260509194830 | 30 | 340 | 16.1 | 35.4 | 0.00 | 0.00 | 0.00 | 19 | 1009.4 |
| 20260509194727 | 30 | 338 | 17.7 | 35.4 | 0.00 | 0.00 | 0.00 | 19 | 1009.4 |
| 20260509194623 | 30 | 10 | 19.3 | 35.4 | 0.00 | 0.00 | 0.00 | 18 | 1009.5 |
| 20260509194517 | 30 | 339 | 24.1 | 35.4 | 0.00 | 0.00 | 0.00 | 19 | 1009.5 |
| 20260509194434 | 30 | 320 | 27.4 | 35.4 | 0.00 | 0.00 | 0.00 | 19 | 1009.5 |
| 20260509194355 | 30 | 326 | 20.9 | 35.4 | 0.00 | 0.00 | 0.00 | 19 | 1009.4 |
| 20260509194217 | 30 | 355 | 14.5 | 32.2 | 0.00 | 0.00 | 0.00 | 18 | 1009.5 |
| 20260509194114 | 30 | 323 | 17.7 | 32.2 | 0.00 | 0.00 | 0.00 | 18 | 1009.4 |
| 20260509194030 | 30 | 346 | 22.5 | 32.2 | 0.00 | 0.00 | 0.00 | 18 | 1009.4 |
| 20260509193933 | 30 | 325 | 24.1 | 32.2 | 0.00 | 0.00 | 0.00 | 19 | 1009.4 |
| 20260509193854 | 30 | 350 | 25.7 | 32.2 | 0.00 | 0.00 | 0.00 | 18 | 1009.4 |
| 20260509193730 | 30 | 355 | 22.5 | 32.2 | 0.00 | 0.00 | 0.00 | 18 | 1009.4 |
| 20260509193627 | 30 | 5 | 20.9 | 32.2 | 0.00 | 0.00 | 0.00 | 18 | 1009.4 |
| 20260509193525 | 30 | 336 | 22.5 | 32.2 | 0.00 | 0.00 | 0.00 | 19 | 1009.4 |
| 20260509193422 | 30 | 316 | 22.5 | 32.2 | 0.00 | 0.00 | 0.00 | 19 | 1009.5 |
| 20260509193322 | 30 | 327 | 24.1 | 32.2 | 0.00 | 0.00 | 0.00 | 19 | 1009.5 |
| 20260509193218 | 30 | 350 | 24.1 | 32.2 | 0.00 | 0.00 | 0.00 | 19 | 1009.4 |
| 20260509193115 | 30 | 328 | 24.1 | 32.2 | 0.00 | 0.00 | 0.00 | 19 | 1009.5 |
| 20260509193035 | 30 | 327 | 24.1 | 32.2 | 0.00 | 0.00 | 0.00 | 19 | 1009.4 |
| 20260509192932 | 30 | 331 | 19.3 | 30.6 | 0.00 | 0.00 | 0.00 | 19 | 1009.5 |
| 20260509192829 | 30 | 295 | 17.7 | 30.6 | 0.00 | 0.00 | 0.00 | 19 | 1009.5 |
| 20260509192732 | 30 | 309 | 20.9 | 29.0 | 0.00 | 0.00 | 0.00 | 19 | 1009.5 |
| 20260509192635 | 30 | 310 | 19.3 | 29.0 | 0.00 | 0.00 | 0.00 | 19 | 1009.5 |
| 20260509192549 | 30 | 296 | 17.7 | 29.0 | 0.00 | 0.00 | 0.00 | 19 | 1009.5 |
| 20260509192449 | 30 | 294 | 19.3 | 29.0 | 0.00 | 0.00 | 0.00 | 19 | 1009.5 |
| 20260509192330 | 30 | 305 | 20.9 | 29.0 | 0.00 | 0.00 | 0.00 | 19 | 1009.4 |
| 20260509192225 | 30 | 320 | 19.3 | 29.0 | 0.00 | 0.00 | 0.00 | 20 | 1009.5 |
| 20260509192125 | 30 | 294 | 19.3 | 29.0 | 0.00 | 0.00 | 0.00 | 20 | 1009.5 |
| 20260509192022 | 30 | 344 | 17.7 | 29.0 | 0.00 | 0.00 | 0.00 | 20 | 1009.5 |
| 20260509191923 | 30 | 331 | 19.3 | 29.0 | 0.00 | 0.00 | 0.00 | 20 | 1009.6 |
| 20260509191823 | 30 | 355 | 20.9 | 29.0 | 0.00 | 0.00 | 0.00 | 20 | 1009.6 |
| 20260509191722 | 30 | 331 | 20.9 | 29.0 | 0.00 | 0.00 | 0.00 | 20 | 1009.6 |
| 20260509191620 | 30 | 360 | 19.3 | 29.0 | 0.00 | 0.00 | 0.00 | 20 | 1009.6 |
| 20260509191534 | 30 | 330 | 16.1 | 29.0 | 0.00 | 0.00 | 0.00 | 20 | 1009.6 |
| 20260509191433 | 29 | 270 | 16.1 | 29.0 | 0.00 | 0.00 | 0.00 | 19 | 1009.6 |
| 20260509191330 | 30 | 292 | 19.3 | 29.0 | 0.00 | 0.00 | 0.00 | 19 | 1009.7 |
| 20260509191231 | 30 | 303 | 20.9 | 29.0 | 0.00 | 0.00 | 0.00 | 19 | 1009.7 |
| 20260509191128 | 30 | 313 | 20.9 | 29.0 | 0.00 | 0.00 | 0.00 | 19 | 1009.6 |
| 20260509191041 | 30 | 287 | 19.3 | 29.0 | 0.00 | 0.00 | 0.00 | 20 | 1009.6 |
| 20260509190921 | 30 | 306 | 14.5 | 29.0 | 0.00 | 0.00 | 0.00 | 20 | 1009.6 |
| 20260509190818 | 30 | 338 | 16.1 | 30.6 | 0.00 | 0.00 | 0.00 | 20 | 1009.6 |
| 20260509190738 | 30 | 327 | 17.7 | 30.6 | 0.00 | 0.00 | 0.00 | 19 | 1009.6 |
| 20260509190633 | 30 | 292 | 19.3 | 30.6 | 0.00 | 0.00 | 0.00 | 20 | 1009.6 |
| 20260509190549 | 30 | 315 | 19.3 | 32.2 | 0.00 | 0.00 | 0.00 | 20 | 1009.6 |
| 20260509190425 | 30 | 342 | 17.7 | 32.2 | 0.00 | 0.00 | 0.00 | 20 | 1009.7 |
| 20260509190330 | 30 | 319 | 16.1 | 32.2 | 0.00 | 0.00 | 0.00 | 20 | 1009.7 |
| 20260509190227 | 30 | 292 | 17.7 | 33.8 | 0.00 | 0.00 | 0.00 | 20 | 1009.6 |
| 20260509190125 | 30 | 296 | 19.3 | 33.8 | 0.00 | 0.00 | 0.00 | 20 | 1009.6 |
| 20260509190022 | 30 | 317 | 22.5 | 33.8 | 0.00 | 0.00 | 0.00 | 21 | 1009.6 |
| 20260509185919 | 30 | 309 | 24.1 | 33.8 | 0.00 | 0.00 | 0.00 | 20 | 1009.7 |
| 20260509185818 | 30 | 334 | 20.9 | 37.0 | 0.00 | 0.00 | 0.00 | 21 | 1009.6 |
| 20260509185717 | 30 | 341 | 22.5 | 37.0 | 0.00 | 0.00 | 0.00 | 20 | 1009.6 |
| 20260509185635 | 30 | 355 | 24.1 | 37.0 | 0.00 | 0.00 | 0.00 | 20 | 1009.7 |
| 20260509185533 | 30 | 328 | 24.1 | 37.0 | 0.00 | 0.00 | 0.00 | 21 | 1009.6 |
| 20260509185430 | 29 | 335 | 24.1 | 37.0 | 0.00 | 0.00 | 0.00 | 21 | 1009.6 |
| 20260509185332 | 29 | 344 | 24.1 | 37.0 | 0.00 | 0.00 | 0.00 | 20 | 1009.6 |
| 20260509185227 | 29 | 337 | 24.1 | 37.0 | 0.00 | 0.00 | 0.00 | 21 | 1009.6 |
| 20260509185125 | 30 | 5 | 24.1 | 37.0 | 0.00 | 0.00 | 0.00 | 20 | 1009.7 |
| 20260509185019 | 30 | 338 | 27.4 | 37.0 | 0.00 | 0.00 | 0.00 | 20 | 1009.7 |
| 20260509184922 | 30 | 348 | 25.7 | 37.0 | 0.00 | 0.00 | 0.00 | 21 | 1009.6 |
| 20260509184823 | 30 | 327 | 22.5 | 37.0 | 0.00 | 0.00 | 0.00 | 21 | 1009.7 |
| 20260509184719 | 30 | 329 | 19.3 | 35.4 | 0.00 | 0.00 | 0.00 | 20 | 1009.7 |
| 20260509184616 | 30 | 338 | 22.5 | 35.4 | 0.00 | 0.00 | 0.00 | 21 | 1009.7 |
| 20260509184530 | 29 | 355 | 24.1 | 35.4 | 0.00 | 0.00 | 0.00 | 21 | 1009.7 |
| 20260509184447 | 29 | 321 | 25.7 | 35.4 | 0.00 | 0.00 | 0.00 | 22 | 1009.7 |
| 20260509184326 | 29 | 338 | 25.7 | 35.4 | 0.00 | 0.00 | 0.00 | 22 | 1009.7 |
| 20260509184223 | 29 | 346 | 25.7 | 35.4 | 0.00 | 0.00 | 0.00 | 22 | 1009.7 |
| 20260509184123 | 28 | 342 | 25.7 | 35.4 | 0.00 | 0.00 | 0.00 | 22 | 1009.8 |
| 20260509184024 | 29 | 328 | 25.7 | 35.4 | 0.00 | 0.00 | 0.00 | 22 | 1009.8 |
| 20260509183920 | 29 | 328 | 24.1 | 32.2 | 0.00 | 0.00 | 0.00 | 21 | 1009.8 |
| 20260509183838 | 29 | 310 | 25.7 | 32.2 | 0.00 | 0.00 | 0.00 | 22 | 1009.7 |
| 20260509183715 | 28 | 329 | 24.1 | 32.2 | 0.00 | 0.00 | 0.00 | 21 | 1009.8 |
| 20260509183635 | 28 | 333 | 20.9 | 32.2 | 0.00 | 0.00 | 0.00 | 21 | 1009.8 |
| 20260509183549 | 29 | 271 | 16.1 | 32.2 | 0.00 | 0.00 | 0.00 | 21 | 1009.8 |
| 20260509183425 | 29 | 279 | 16.1 | 32.2 | 0.00 | 0.00 | 0.00 | 21 | 1009.7 |
| 20260509183327 | 29 | 293 | 19.3 | 32.2 | 0.00 | 0.00 | 0.00 | 21 | 1009.8 |
| 20260509183223 | 30 | 277 | 19.3 | 32.2 | 0.00 | 0.00 | 0.00 | 20 | 1009.8 |
| 20260509183124 | 30 | 277 | 20.9 | 32.2 | 0.00 | 0.00 | 0.00 | 20 | 1009.7 |
| 20260509183037 | 30 | 269 | 20.9 | 32.2 | 0.00 | 0.00 | 0.00 | 21 | 1009.7 |
| 20260509182933 | 30 | 233 | 17.7 | 32.2 | 0.00 | 0.00 | 0.00 | 21 | 1009.7 |
| 20260509182850 | 30 | 240 | 11.3 | 27.4 | 0.00 | 0.00 | 0.00 | 21 | 1009.8 |
| 20260509182732 | 29 | 242 | 11.3 | 27.4 | 0.00 | 0.00 | 0.00 | 21 | 1009.7 |
| 20260509182628 | 29 | 242 | 12.9 | 27.4 | 0.00 | 0.00 | 0.00 | 21 | 1009.8 |
| 20260509182525 | 29 | 236 | 14.5 | 27.4 | 0.00 | 0.00 | 0.00 | 21 | 1009.8 |
| 20260509182422 | 29 | 304 | 12.9 | 27.4 | 0.00 | 0.00 | 0.00 | 21 | 1009.8 |
| 20260509182327 | 29 | 257 | 9.7 | 25.7 | 0.00 | 0.00 | 0.00 | 21 | 1009.9 |
| 20260509182226 | 29 | 277 | 11.3 | 25.7 | 0.00 | 0.00 | 0.00 | 21 | 1009.9 |
| 20260509182122 | 29 | 274 | 12.9 | 25.7 | 0.00 | 0.00 | 0.00 | 21 | 1009.9 |
| 20260509182036 | 29 | 294 | 12.9 | 25.7 | 0.00 | 0.00 | 0.00 | 21 | 1009.9 |
| 20260509181932 | 29 | 290 | 12.9 | 25.7 | 0.00 | 0.00 | 0.00 | 21 | 1009.9 |
| 20260509181834 | 29 | 289 | 12.9 | 25.7 | 0.00 | 0.00 | 0.00 | 21 | 1010.0 |
| 20260509181732 | 29 | 248 | 16.1 | 30.6 | 0.00 | 0.00 | 0.00 | 21 | 1010.1 |
| 20260509181649 | 29 | 260 | 16.1 | 30.6 | 0.00 | 0.00 | 0.00 | 21 | 1010.0 |
| 20260509181522 | 29 | 258 | 11.3 | 30.6 | 0.00 | 0.00 | 0.00 | 22 | 1010.1 |
| 20260509181430 | 29 | 245 | 8.0 | 37.0 | 0.00 | 0.00 | 0.00 | 21 | 1010.0 |
| 20260509181327 | 29 | 259 | 8.0 | 37.0 | 0.00 | 0.00 | 0.00 | 22 | 1010.1 |
| 20260509181230 | 29 | 269 | 8.0 | 37.0 | 0.00 | 0.00 | 0.00 | 22 | 1010.1 |
| 20260509181126 | 29 | 257 | 11.3 | 37.0 | 0.00 | 0.00 | 0.00 | 22 | 1010.1 |
| 20260509181040 | 29 | 232 | 16.1 | 37.0 | 0.00 | 0.00 | 0.00 | 22 | 1010.1 |
| 20260509180919 | 29 | 235 | 19.3 | 37.0 | 0.00 | 0.00 | 0.00 | 22 | 1010.3 |
| 20260509180841 | 29 | 222 | 19.3 | 37.0 | 0.00 | 0.00 | 0.00 | 21 | 1010.5 |
| 20260509180733 | 29 | 221 | 20.9 | 37.0 | 0.00 | 0.00 | 0.00 | 21 | 1010.2 |
| 20260509180617 | 29 | 267 | 25.7 | 37.0 | 0.00 | 0.00 | 0.00 | 22 | 1010.2 |
| 20260509180531 | 29 | 258 | 25.7 | 37.0 | 0.00 | 0.00 | 0.00 | 22 | 1010.3 |
| 20260509180427 | 29 | 263 | 20.9 | 37.0 | 0.00 | 0.00 | 0.00 | 21 | 1010.2 |
| 20260509180328 | 29 | 247 | 11.3 | 30.6 | 0.00 | 0.00 | 0.00 | 22 | 1010.3 |